Date StartTime U_cm/s V_cm/s W_cm/s Ustd_cm/s Vstd_cm/s Wstd_cm/s Uvar_(cm/s)^2 Vvar_(cm/s)^2 Wvar_(cm/s)^2 KE_(m/s)^2 TurbulentKE_(m/s)^2 HorizWindSpeed_cm/s FrictionSpeec_cm/s DragCoef SpeedOfSound_m/s SonicTemperature_C Pressure_mb 
06/22/2013  00:00:00      -55.380       -5.207      -14.275       34.001       27.460       17.696     1156.100      754.025      313.161        0.276        0.111       55.624       19.940        0.129      342.206       17.452      861.717
06/22/2013  00:01:00     -103.396       92.376      -28.422       45.317       55.774       30.422     2053.622     3110.758      925.525        1.306        0.304      138.651       18.233        0.017      342.139       17.340      861.722
06/22/2013  00:02:00      -79.793        2.108        3.094       40.404       34.293       24.646     1632.497     1175.990      607.449        0.490        0.171       79.821       19.508        0.060      342.147       17.353      861.723
06/22/2013  00:03:00     -115.304       15.402      -19.816       35.904       44.261       22.521     1289.120     1959.074      507.211        0.884        0.188      116.328       15.354        0.017      342.148       17.354      861.731
06/22/2013  00:04:00     -111.576      -49.592       -2.347       40.295       43.104       28.952     1623.700     1857.931      838.239        0.962        0.216      122.100       22.605        0.034      342.032       17.158      861.740
06/22/2013  00:05:00      -65.270        0.688       -3.782       37.478       31.279       19.953     1404.592      978.363      398.104        0.353        0.139       65.274       18.471        0.080      341.959       17.034      861.755
06/22/2013  00:06:00     -105.779       -9.440      -13.768       32.555       20.839       17.739     1059.799      434.264      314.680        0.664        0.090      106.200       17.017        0.026      341.930       16.984      861.743
06/22/2013  00:07:00     -124.278      -36.071      -17.151       38.565       39.741       22.002     1487.226     1579.366      484.083        1.029        0.178      129.407       17.206        0.018      341.871       16.885      861.740
06/22/2013  00:08:00     -104.265      -21.188      -12.273       35.069       29.047       19.703     1229.860      843.736      388.206        0.697        0.123      106.396       12.198        0.013      341.843       16.837      861.742
06/22/2013  00:09:00     -105.028      -50.802        1.189       43.524       35.990       21.266     1894.378     1295.269      452.258        0.863        0.182      116.669       18.040        0.024      341.738       16.658      861.740
06/22/2013  00:10:00     -109.240      -21.783       -5.739       43.923       31.206       23.958     1929.260      973.829      573.975        0.796        0.174      111.391       22.054        0.039      341.722       16.632      861.730
06/22/2013  00:11:00     -130.846      -61.418       -0.866       44.736       39.332       23.822     2001.305     1547.040      567.478        1.250        0.206      144.544       20.015        0.019      341.737       16.657      861.727
06/22/2013  00:12:00     -127.672      -28.312      -13.439       29.160       30.721       19.754      850.312      943.791      390.207        0.973        0.109      130.774       11.119        0.007      341.718       16.627      861.738
06/22/2013  00:13:00     -147.869      -53.744      -14.133       35.645       34.237       20.980     1270.575     1172.152      440.144        1.392        0.144      157.333       13.883        0.008      341.702       16.597      861.738
06/22/2013  00:14:00     -135.039      -57.513      -11.172       37.580       33.554       19.575     1412.236     1125.859      383.175        1.229        0.146      146.776        9.313        0.004      341.752       16.683      861.728
06/22/2013  00:15:00     -133.538      -40.545       -6.614       47.176       31.058       21.670     2225.593      964.573      469.578        1.159        0.183      139.558       15.669        0.013      341.679       16.558      861.721
06/22/2013  00:16:00     -137.731      -60.491       -6.007       52.463       39.434       23.228     2752.384     1555.060      539.546        1.376        0.242      150.430       21.591        0.021      341.660       16.526      861.719
06/22/2013  00:17:00     -115.549      -22.276       -0.012       76.102       34.280       22.935     5791.442     1175.131      526.004        1.067        0.375      117.677       29.089        0.061      341.578       16.388      861.726
06/22/2013  00:18:00     -115.723        3.824      -15.185       33.806       21.276       16.036     1142.869      452.682      257.169        0.774        0.093      115.787       13.662        0.014      341.629       16.473      861.737
06/22/2013  00:19:00     -137.926      -29.494      -18.752       57.047       56.810       26.240     3254.345     3227.420      688.535        1.371        0.359      141.044       22.726        0.026      341.757       16.691      861.737
06/22/2013  00:20:00     -130.660      -31.993       -8.214       36.387       32.580       21.781     1323.995     1061.466      474.406        1.051        0.143      134.520       13.574        0.010      341.734       16.653      861.740
06/22/2013  00:21:00     -127.403      -38.552       -5.743       44.135       32.890       22.348     1947.875     1081.753      499.427        1.064        0.176      133.108       22.673        0.029      341.719       16.628      861.748
06/22/2013  00:22:00     -127.449      -24.602       -2.484       39.180       48.534       26.584     1535.044     2355.506      706.713        1.073        0.230      129.802       18.041        0.019      341.738       16.659      861.761
06/22/2013  00:23:00     -122.528      -19.496      -17.061       66.660       37.794       26.167     4443.590     1428.368      684.711        1.112        0.328      124.070        9.772        0.006      341.705       16.603      861.773
06/22/2013  00:24:00     -105.997      -25.682       -3.301       47.799       44.848       24.086     2284.745     2011.362      580.122        0.839        0.244      109.064       18.188        0.028      341.624       16.466      861.769
06/22/2013  00:25:00     -139.522      -26.877      -16.703       34.778       36.254       19.720     1209.532     1314.348      388.875        1.169        0.146      142.087       12.675        0.008      341.638       16.490      861.772
06/22/2013  00:26:00     -154.805      -44.431      -12.992       51.246       37.520       31.375     2626.147     1407.760      984.419        1.556        0.251      161.055       34.508        0.046      341.671       16.545      861.763
06/22/2013  00:27:00     -159.531      -24.442      -14.136       42.447       32.604       26.047     1801.767     1062.989      678.442        1.489        0.177      161.392       23.117        0.021      341.670       16.544      861.768
06/22/2013  00:28:00     -138.681      -43.919       -3.849       59.425       50.243       29.538     3531.276     2524.357      872.464        1.405        0.346      145.470       32.787        0.051      341.586       16.402      861.770
06/22/2013  00:29:00      -94.538      -19.112        1.259       66.600       40.530       27.318     4435.523     1642.687      746.258        0.806        0.341       96.450       26.251        0.074      341.568       16.370      861.769
06/22/2013  00:30:00     -134.917      -25.402       -4.891       49.560       36.749       28.261     2456.218     1350.523      798.682        1.174        0.230      137.287       23.216        0.029      341.567       16.368      861.765
06/22/2013  00:31:00     -141.897      -15.719      -10.417       51.554       38.031       32.329     2657.837     1446.335     1045.152        1.282        0.257      142.765       29.481        0.043      341.525       16.298      861.768
06/22/2013  00:32:00     -154.101      -47.285       -0.996       78.208       57.326       43.550     6116.493     3286.287     1896.610        1.864        0.565      161.193       40.297        0.062      341.575       16.380      861.774
06/22/2013  00:33:00     -170.865      -13.661      -18.609       44.703       53.372       32.751     1998.351     2848.519     1072.654        1.782        0.296      171.410       21.099        0.015      341.611       16.442      861.776
06/22/2013  00:34:00     -134.260      -18.260        1.262       63.297       64.103       33.140     4006.573     4109.193     1098.267        1.379        0.461      135.496       33.473        0.061      341.575       16.382      861.775
06/22/2013  00:35:00     -136.188      -12.604       -7.995       69.011       58.679       33.103     4762.462     3443.230     1095.825        1.403        0.465      136.770       36.204        0.070      341.641       16.494      861.771
06/22/2013  00:36:00     -106.871      -26.362        0.897       62.817       47.448       32.399     3946.025     2251.290     1049.688        0.968        0.362      110.074       25.993        0.056      341.550       16.339      861.781
06/22/2013  00:37:00     -148.514        1.553      -16.496       55.388       60.233       30.970     3067.835     3627.991      959.121        1.499        0.383      148.522       17.102        0.013      341.591       16.408      861.784
06/22/2013  00:38:00     -168.943      -30.497      -19.500       62.509       50.594       33.676     3907.322     2559.789     1134.095        1.873        0.380      171.673       32.711        0.036      341.596       16.415      861.785
06/22/2013  00:39:00     -145.247      -22.386      -21.049       36.798       48.824       24.621     1354.068     2383.770      606.201        1.319        0.217      146.962       13.332        0.008      341.674       16.550      861.786
06/22/2013  00:40:00      -93.023      -29.258      -16.262       47.207       53.119       30.042     2228.508     2821.602      902.551        0.786        0.298       97.516       28.619        0.086      341.709       16.610      861.801
06/22/2013  00:41:00      -93.989      -32.307       -0.319       47.488       41.676       26.762     2255.131     1736.858      716.203        0.729        0.235       99.387       21.979        0.049      341.544       16.331      861.801
06/22/2013  00:42:00     -101.738      -39.900        2.217       51.026       45.024       33.713     2603.703     2027.120     1136.575        0.886        0.288      109.283       31.496        0.083      341.573       16.379      861.799
06/22/2013  00:43:00     -119.636      -54.359       -0.928       52.587       43.699       26.733     2765.381     1909.582      714.643        1.133        0.269      131.407       21.003        0.026      341.525       16.297      861.811
06/22/2013  00:44:00     -106.483      -34.903       -5.526       45.524       46.792       33.663     2072.396     2189.509     1133.211        0.899        0.270      112.058       27.806        0.062      341.561       16.358      861.809
06/22/2013  00:45:00     -147.935      -29.833       -4.565       48.464       39.942       25.825     2348.783     1595.359      666.946        1.370        0.231      150.913       24.567        0.027      341.581       16.392      861.815
06/22/2013  00:46:00     -166.294      -19.140      -11.773       54.294       42.619       26.604     2947.859     1816.381      707.793        1.681        0.274      167.392       25.772        0.024      341.559       16.354      861.808
06/22/2013  00:47:00     -189.278      -19.973      -21.961       46.407       43.498       28.507     2153.583     1892.110      812.651        2.078        0.243      190.329       17.029        0.008      341.602       16.427      861.812
06/22/2013  00:48:00     -147.001      -33.699       -8.765       39.983       36.028       22.815     1598.650     1298.019      520.506        1.312        0.171      150.814       20.732        0.019      341.562       16.359      861.823
06/22/2013  00:49:00     -144.432      -30.197       -4.603       50.890       38.955       30.913     2589.823     1517.526      955.611        1.343        0.253      147.555       24.775        0.028      341.618       16.455      861.819
06/22/2013  00:50:00      -66.915       -2.954        0.453       41.495       45.404       24.293     1721.824     2061.513      590.168        0.443        0.219       66.980       23.280        0.121      341.553       16.345      861.818
06/22/2013  00:51:00     -102.056      -12.148       -6.402       35.175       34.008       21.217     1237.269     1156.544      450.181        0.672        0.142      102.777       18.162        0.031      341.611       16.445      861.822
06/22/2013  00:52:00      -99.574       -6.284       -7.455       42.689       31.785       20.716     1822.359     1010.316      429.152        0.664        0.163       99.772       21.028        0.044      341.571       16.375      861.837
06/22/2013  00:53:00      -51.794      -15.164       -2.593       27.790       21.970       10.677      772.273      482.666      114.009        0.214        0.068       53.968       11.801        0.048      341.541       16.324      861.844
06/22/2013  00:54:00      -66.441      -21.169       -5.843       23.032       43.757       19.412      530.454     1914.699      376.843        0.386        0.141       69.732       12.118        0.030      341.604       16.431      861.842
06/22/2013  00:55:00      -40.023      -10.779       -6.316       42.428       25.261       16.660     1800.125      638.118      277.549        0.224        0.136       41.449        6.497        0.025      341.579       16.389      861.838
06/22/2013  00:56:00      -43.125      -21.345       -1.767       54.673       21.559       18.796     2989.129      464.799      353.284        0.306        0.190       48.119       25.554        0.282      341.505       16.265      861.843
06/22/2013  00:57:00     -102.181      -46.996       -4.494       39.642       38.751       23.389     1571.507     1501.604      547.040        0.814        0.181      112.470       25.024        0.050      341.577       16.387      861.849
06/22/2013  00:58:00      -70.284      -47.277        2.830       49.380       30.888       27.411     2438.420      954.073      751.377        0.566        0.207       84.705       25.621        0.091      341.532       16.308      861.853
06/22/2013  00:59:00      -92.216      -33.907        1.655       48.846       36.444       30.168     2385.939     1328.161      910.128        0.714        0.231       98.252       27.764        0.080      341.456       16.181      861.855
06/22/2013  01:00:00      -35.221      -44.121        5.380       43.294       34.023       26.477     1874.348     1157.539      701.032        0.347        0.187       56.455       22.504        0.159      341.474       16.210      861.855
06/22/2013  01:01:00      -67.781      -65.087        3.726       53.273       30.287       24.632     2838.042      917.293      606.714        0.660        0.218       93.972       29.334        0.097      341.467       16.200      861.850
06/22/2013  01:02:00     -122.094      -52.446       -4.611       42.662       38.356       19.455     1820.085     1471.205      378.508        1.067        0.183      132.881       20.617        0.024      341.498       16.252      861.848
06/22/2013  01:03:00      -69.750      -38.318        0.486       49.909       24.138       20.000     2490.871      582.666      399.985        0.490        0.174       79.582       20.965        0.069      341.463       16.191      861.846
06/22/2013  01:04:00     -118.059      -72.446        0.092       41.736       41.295       22.103     1741.918     1705.252      488.558        1.156        0.197      138.514       16.286        0.014      341.464       16.195      861.840
06/22/2013  01:05:00     -153.790      -86.547       -2.009       48.292       41.552       27.010     2332.131     1726.585      729.540        1.797        0.239      176.470       24.569        0.019      341.452       16.174      861.834
06/22/2013  01:06:00     -151.869      -77.997        6.297       65.921       42.623       31.490     4345.612     1816.723      991.630        1.817        0.358      170.727       34.556        0.041      341.444       16.160      861.829
06/22/2013  01:07:00      -86.616      -45.017        6.327       44.473       42.235       25.816     1977.879     1783.815      666.453        0.700        0.221       97.616       25.358        0.067      341.420       16.121      861.819
06/22/2013  01:08:00      -98.550      -51.760       -6.993       70.676       38.442       30.617     4995.163     1477.772      937.409        0.992        0.371      111.316       28.926        0.068      341.452       16.173      861.828
06/22/2013  01:09:00      -57.308      -48.551        5.617       60.323       42.823       32.160     3638.812     1833.834     1034.291        0.609        0.325       75.110       34.048        0.205      341.459       16.187      861.834
06/22/2013  01:10:00      -74.698      -33.957        1.588       45.367       30.004       24.786     2058.185      900.245      614.364        0.515        0.179       82.054       26.093        0.101      341.423       16.125      861.832
06/22/2013  01:11:00      -67.266      -15.116        6.236       38.603       30.984       18.573     1490.174      959.982      344.953        0.379        0.140       68.943       22.517        0.107      341.394       16.074      861.821
06/22/2013  01:12:00     -133.538       -6.680       -8.983       40.964       34.337       29.600     1678.052     1179.050      876.138        1.084        0.187      133.705       24.388        0.033      341.373       16.040      861.829
06/22/2013  01:13:00     -143.069      -41.920       -5.229       37.093       37.366       22.539     1375.872     1396.193      507.998        1.277        0.164      149.084       17.260        0.013      341.333       15.973      861.821
06/22/2013  01:14:00     -116.553      -39.783        2.172       58.808       34.397       23.795     3458.410     1183.156      566.202        1.019        0.260      123.156       23.584        0.037      341.269       15.866      861.811
06/22/2013  01:15:00     -120.572      -75.685        0.685       38.971       38.477       25.115     1518.707     1480.456      630.762        1.195        0.181      142.358       20.232        0.020      341.348       15.999      861.805
06/22/2013  01:16:00     -127.512      -45.148       -5.631       52.968       47.768       24.759     2805.626     2281.762      613.012        1.201        0.285      135.269       26.599        0.039      341.296       15.909      861.808
06/22/2013  01:17:00     -134.458      -24.115       -1.957       64.859       47.973       28.526     4206.717     2301.425      813.742        1.299        0.366      136.603       32.287        0.056      341.374       16.040      861.793
06/22/2013  01:18:00      -88.521      -72.181        5.377       57.010       47.488       25.231     3250.118     2255.146      636.599        0.961        0.307      114.219       24.371        0.046      341.351       16.004      861.785
06/22/2013  01:19:00     -137.728      -91.907        0.489       46.824       38.621       26.542     2192.519     1491.587      704.468        1.590        0.219      165.578       25.769        0.024      341.433       16.140      861.779
06/22/2013  01:20:00      -97.943      -12.764       -6.606       29.505       28.489       19.428      870.546      811.648      377.439        0.593        0.103       98.771       15.648        0.025      341.466       16.198      861.790
06/22/2013  01:21:00      -94.031      -39.797        1.677       27.463       35.862       20.612      754.196     1286.110      424.851        0.645        0.123      102.106       16.211        0.025      341.437       16.150      861.802
06/22/2013  01:22:00     -116.490       -8.926       -0.082       49.353       31.699       30.393     2435.689     1004.842      923.713        0.901        0.218      116.831       31.815        0.074      341.467       16.199      861.799
06/22/2013  01:23:00     -112.715      -87.609       -0.985       53.235       45.950       27.223     2833.984     2111.387      741.084        1.303        0.284      142.758       28.551        0.040      341.404       16.092      861.788
06/22/2013  01:24:00      -96.550      -54.039        9.257       72.197       54.093       32.168     5212.442     2926.009     1034.754        1.075        0.459      110.644       36.126        0.107      341.460       16.188      861.786
06/22/2013  01:25:00      -70.759      -47.368       12.026       66.558       50.890       29.082     4430.012     2589.813      845.785        0.763        0.393       85.151       33.726        0.157      341.528       16.303      861.785
06/22/2013  01:26:00      -69.445      -48.099        6.517       49.367       39.068       22.590     2437.147     1526.347      510.307        0.583        0.224       84.476       16.726        0.039      341.525       16.299      861.781
06/22/2013  01:27:00     -128.576      -70.645        4.323       44.179       29.841       23.993     1951.828      890.490      575.648        1.248        0.171      146.706       18.841        0.016      341.521       16.291      861.774
06/22/2013  01:28:00      -90.865      -42.129        4.832       43.886       28.766       23.774     1925.963      827.470      565.208        0.669        0.166      100.156       24.182        0.058      341.455       16.179      861.770
06/22/2013  01:29:00      -74.860      -26.603       -1.960       29.494       18.004       12.567      869.914      324.144      157.942        0.383        0.068       79.446       11.498        0.021      341.460       16.187      861.781
06/22/2013  01:30:00      -67.501       10.448       -1.062       20.974       14.410       13.562      439.895      207.639      183.915        0.275        0.042       68.305       13.099        0.037      341.428       16.133      861.771
06/22/2013  01:31:00      -69.033       31.176       -2.265       17.187       10.551       11.572      295.376      111.326      133.917        0.314        0.027       75.746        8.411        0.012      341.382       16.057      861.773
06/22/2013  01:32:00      -23.313       20.824       -5.780       27.004       13.061       12.340      729.190      170.601      152.283        0.103        0.053       31.259       11.698        0.140      341.329       15.966      861.788
06/22/2013  01:33:00      -22.659       18.537        3.674       32.339       16.927       13.020     1045.833      286.536      169.523        0.119        0.075       29.276       16.714        0.326      341.317       15.945      861.794
06/22/2013  01:34:00      -53.356       36.463      -10.656       13.351       21.560        9.675      178.252      464.846       93.604        0.251        0.037       64.625        6.777        0.011      341.403       16.093      861.793
06/22/2013  01:35:00      -75.703       43.822      -13.823       33.786       26.068       12.742     1141.496      679.527      162.352        0.491        0.099       87.472       14.649        0.028      341.378       16.048      861.787
06/22/2013  01:36:00      -67.284        7.875       -7.509       11.574       13.125       10.794      133.961      172.277      116.502        0.253        0.021       67.744        2.955        0.002      341.426       16.130      861.784
06/22/2013  01:37:00      -68.854      -17.056       -6.168       35.243       31.382       22.825     1242.074      984.804      520.962        0.391        0.137       70.935       24.812        0.122      341.412       16.108      861.795
06/22/2013  01:38:00      -96.388        4.553      -12.330       27.374       23.937       17.480      749.318      572.976      305.556        0.555        0.081       96.496       17.291        0.032      341.391       16.071      861.806
06/22/2013  01:39:00     -104.838        2.095      -17.741       16.614       26.203       11.055      276.037      686.615      122.204        0.620        0.054      104.859        8.442        0.006      341.375       16.042      861.815
06/22/2013  01:40:00      -45.595        5.012       -3.359       21.695       17.930       15.238      470.660      321.473      232.201        0.157        0.051       45.870       14.276        0.097      341.418       16.115      861.827
06/22/2013  01:41:00      -21.075      -14.656       -6.995       19.299       22.965       11.423      372.467      527.405      130.485        0.087        0.052       25.670        8.279        0.104      341.437       16.149      861.826
06/22/2013  01:42:00      -56.052      -36.934        3.461       23.667       18.896       13.826      560.121      357.077      191.152        0.281        0.055       67.126       11.120        0.027      341.284       15.889      861.826
06/22/2013  01:43:00      -85.136      -32.940       -8.039       15.135       10.204        6.868      229.063      104.116       47.163        0.439        0.019       91.286        3.709        0.002      341.398       16.084      861.824
06/22/2013  01:44:00      -84.293      -18.685       -6.016       28.294       21.905       11.430      800.546      479.831      130.639        0.445        0.071       86.339       10.263        0.014      341.392       16.073      861.825
06/22/2013  01:45:00      -53.822      -32.967       -4.352       26.779       16.962       10.304      717.101      287.696      106.176        0.256        0.056       63.116       11.658        0.034      341.427       16.131      861.814
06/22/2013  01:46:00      -44.647      -37.594        2.831       35.897       23.932       17.764     1288.630      572.739      315.564        0.280        0.109       58.367       19.709        0.114      341.408       16.099      861.810
06/22/2013  01:47:00      -90.396      -44.895        1.700       59.447       24.825       25.569     3533.896      616.290      653.798        0.750        0.240      100.931       25.879        0.066      341.321       15.952      861.808
06/22/2013  01:48:00      -84.148      -67.045        4.188       64.170       31.561       23.082     4117.823      996.081      532.791        0.862        0.282      107.591       27.935        0.067      341.262       15.851      861.807
06/22/2013  01:49:00      -62.956      -25.626        6.573       42.148       41.127       17.831     1776.464     1691.444      317.957        0.422        0.189       67.972       15.315        0.051      341.229       15.797      861.799
06/22/2013  01:50:00      -65.248      -36.265        3.164       30.279       41.372       18.577      916.812     1711.633      345.092        0.428        0.149       74.648       18.430        0.061      341.201       15.750      861.798
06/22/2013  01:51:00      -73.001      -15.477       -4.993       36.953       22.195       17.098     1365.545      492.602      292.340        0.387        0.108       74.624       20.205        0.073      341.152       15.667      861.804
06/22/2013  01:52:00     -124.222       13.034       -9.537       36.028       23.717       12.676     1298.020      562.514      160.692        0.886        0.101      124.904        6.662        0.003      341.120       15.613      861.811
06/22/2013  01:53:00     -110.982       43.970       -9.594       25.110       26.833       15.099      630.537      720.008      227.992        0.796        0.079      119.374       12.682        0.011      341.107       15.591      861.821
06/22/2013  01:54:00      -74.317       66.085      -20.294       14.716       25.689       13.024      216.565      659.934      169.631        0.567        0.052       99.450        6.823        0.005      341.160       15.682      861.825
06/22/2013  01:55:00      -52.742       13.467      -13.870       18.465       10.321        7.407      340.947      106.521       54.858        0.183        0.025       54.434        7.695        0.020      341.208       15.762      861.813
06/22/2013  01:56:00      -48.426      -39.021       -0.597       28.492       25.970       16.803      811.782      674.460      282.356        0.282        0.088       62.191       13.141        0.045      341.207       15.759      861.797
06/22/2013  01:57:00      -56.638      -17.234        0.457       50.590       30.705       25.214     2559.377      942.823      635.769        0.382        0.207       59.202       29.459        0.248      341.189       15.730      861.794
06/22/2013  01:58:00      -70.130        0.227       -7.215       32.900       39.170       21.077     1082.431     1534.268      444.220        0.402        0.153       70.130       15.181        0.047      341.045       15.484      861.792
06/22/2013  01:59:00     -116.944      -34.466       -1.852       33.876       40.504       18.844     1147.584     1640.606      355.099        0.900        0.157      121.917       16.744        0.019      341.040       15.478      861.786
06/22/2013  02:00:00      -81.179      -47.629        0.680       45.881       28.759       17.741     2105.050      827.107      314.735        0.605        0.162       94.120       24.648        0.069      341.064       15.517      861.777
06/22/2013  02:01:00      -71.982      -24.937       -2.947       55.551       30.564       20.371     3085.914      934.172      414.994        0.512        0.222       76.179       15.762        0.043      341.096       15.573      861.777
06/22/2013  02:02:00      -88.358        3.592       -4.623       23.192       20.014       13.479      537.888      400.567      181.688        0.448        0.056       88.431        7.575        0.007      341.021       15.445      861.789
06/22/2013  02:03:00      -46.325       18.998       -3.624       18.112       22.942       11.056      328.057      526.343      122.245        0.175        0.049       50.069        7.784        0.024      341.007       15.422      861.804
06/22/2013  02:04:00      -44.553       44.514       -7.018       16.466       23.214       14.219      271.142      538.871      202.172        0.251        0.051       62.980       11.359        0.033      341.031       15.462      861.816
06/22/2013  02:05:00      -22.981       58.701       -8.076       22.617       30.416       10.286      511.549      925.115      105.805        0.279        0.077       63.040        8.675        0.019      341.134       15.636      861.829
06/22/2013  02:06:00       -6.810       56.525       -7.280       21.481       15.458       14.274      461.446      238.953      203.741        0.210        0.045       56.934       10.220        0.032      341.138       15.642      861.847
06/22/2013  02:07:00       -1.003       43.367        1.564       19.406       18.395       12.958      376.580      338.368      167.910        0.138        0.044       43.378        7.307        0.028      341.045       15.487      861.854
06/22/2013  02:08:00      -63.787       19.266       -7.700       26.076       21.931       12.501      679.944      480.963      156.280        0.291        0.066       66.633       12.746        0.037      341.201       15.750      861.860
06/22/2013  02:09:00      -25.296       47.826      -13.882       24.522       25.163        9.073      601.309      633.169       82.319        0.222        0.066       54.104        5.752        0.011      341.113       15.602      861.860
06/22/2013  02:10:00      -36.065       56.041       -7.361       24.057       29.850       12.705      578.760      891.036      161.406        0.306        0.082       66.643       14.127        0.045      341.024       15.450      861.858
06/22/2013  02:11:00      -20.864       -1.168       -2.754       22.540       12.171        9.447      508.045      148.141       89.250        0.059        0.037       20.896       10.371        0.246      341.028       15.457      861.852
06/22/2013  02:12:00      -43.825       -0.619       -6.368       17.888        6.461        5.424      319.993       41.745       29.418        0.118        0.020       43.830        4.720        0.012      341.032       15.465      861.847
06/22/2013  02:13:00      -48.260       13.855       -7.213       21.407       18.978       10.239      458.270      360.153      104.838        0.175        0.046       50.209        7.018        0.020      341.054       15.501      861.846
06/22/2013  02:14:00      -41.179       10.180       -4.696       26.386       30.349       13.851      696.201      921.039      191.841        0.181        0.090       42.419        7.977        0.035      341.129       15.628      861.842
06/22/2013  02:15:00      -56.765       42.759      -10.608       16.186       37.265       16.246      261.974     1388.673      263.943        0.354        0.096       71.068       14.025        0.039      341.133       15.635      861.848
06/22/2013  02:16:00      -73.121       69.307      -12.995       30.120       44.731       17.401      907.244     2000.847      302.799        0.676        0.161      100.748       13.995        0.019      341.104       15.585      861.839
06/22/2013  02:17:00      -50.466       66.323      -11.222       25.873       32.538       17.344      669.393     1058.719      300.825        0.455        0.101       83.340       11.216        0.018      341.128       15.627      861.832
06/22/2013  02:18:00      -31.442       63.516       -4.382       24.789       43.778       16.055      614.507     1916.514      257.751        0.391        0.139       70.873       15.904        0.050      341.061       15.513      861.829
06/22/2013  02:19:00        3.739       70.273       -6.393       25.309       23.982       13.279      640.550      575.139      176.331        0.319        0.070       70.373       10.475        0.022      340.948       15.321      861.825
06/22/2013  02:20:00        9.766       65.934       -9.742       14.544       17.949        9.869      211.521      322.158       97.396        0.258        0.032       66.653        6.283        0.009      341.051       15.496      861.813
06/22/2013  02:21:00      -17.319       30.248      -14.772       41.462       20.147       16.789     1719.132      405.892      281.857        0.192        0.120       34.856       22.340        0.411      341.203       15.752      861.802
06/22/2013  02:22:00       11.608        0.355        9.693       27.658       24.919       10.261      764.992      620.966      105.286        0.086        0.075       11.613        8.841        0.580      341.128       15.626      861.785
06/22/2013  02:23:00        1.663       57.847       -3.058       17.289       32.523       10.947      298.918     1057.737      119.837        0.242        0.074       57.871       13.605        0.055      341.090       15.561      861.775
06/22/2013  02:24:00       -2.579       36.886        2.928       18.426       20.575       12.583      339.520      423.335      158.338        0.115        0.046       36.976       13.054        0.125      341.005       15.418      861.765
06/22/2013  02:25:00      -16.748        2.872       -0.839        8.653       11.988       12.767       74.876      143.723      163.003        0.034        0.019       16.992        7.948        0.219      340.733       14.958      861.766
06/22/2013  02:26:00       -7.857       -2.743       -5.172        6.310        6.168        3.482       39.814       38.046       12.125        0.009        0.004        8.322        3.564        0.183      340.724       14.941      861.767
06/22/2013  02:27:00      -23.190       10.293       -2.945        6.099        5.295        4.392       37.195       28.038       19.287        0.037        0.004       25.372        1.420        0.003      340.824       15.112      861.771
06/22/2013  02:28:00       -6.580        8.642       -1.913        6.861        9.616        5.750       47.070       92.460       33.066        0.015        0.009       10.862        3.981        0.134      340.805       15.077      861.774
06/22/2013  02:29:00      -18.584        1.182       -4.907        6.843       10.070        4.421       46.820      101.402       19.544        0.027        0.008       18.622        3.440        0.034      340.723       14.940      861.764
06/22/2013  02:30:00      -12.050      -14.251       -4.502       10.170        8.433        5.269      103.421       71.109       27.757        0.029        0.010       18.663        5.435        0.085      340.791       15.057      861.747
06/22/2013  02:31:00       -7.694      -27.896       -0.862       22.147       13.716       12.255      490.470      188.124      150.186        0.083        0.041       28.938        7.990        0.076      340.828       15.118      861.732
06/22/2013  02:32:00      -43.041      -22.002       -9.674       11.254        8.235        5.320      126.646       67.818       28.304        0.133        0.011       48.338        3.326        0.005      340.764       15.008      861.737
06/22/2013  02:33:00      -67.474      -27.472      -12.632       10.361        7.321        6.152      107.356       53.592       37.847        0.283        0.010       72.852        1.920        0.001      340.563       14.671      861.743
06/22/2013  02:34:00      -75.862      -26.258       -7.778       16.309       12.421        9.216      265.983      154.274       84.930        0.350        0.025       80.278        5.599        0.005      340.550       14.649      861.732
06/22/2013  02:35:00      -53.948      -37.600      -11.562       30.191       13.397        8.383      911.475      179.467       70.276        0.281        0.058       65.758        6.505        0.010      340.643       14.806      861.725
06/22/2013  02:36:00       10.743       -7.079       -3.605       18.752       17.792       12.308      351.656      316.565      151.499        0.050        0.041       12.865        6.953        0.292      341.057       15.506      861.715
06/22/2013  02:37:00      -78.512       -9.633      -11.481       37.348       16.319       11.402     1394.907      266.304      130.014        0.409        0.090       79.100       15.161        0.037      340.651       14.817      861.718
06/22/2013  02:38:00      -77.189      -12.942       -5.619       22.825       14.945       13.701      520.975      223.355      187.723        0.354        0.047       78.267       10.025        0.016      340.411       14.412      861.726
06/22/2013  02:39:00      -82.827      -17.196      -10.699       20.753       19.635       14.610      430.691      385.527      213.460        0.415        0.051       84.593        7.206        0.007      340.466       14.506      861.730
06/22/2013  02:40:00      -68.343      -36.057        0.078       21.870       19.112       16.259      478.281      365.284      264.367        0.354        0.055       77.271       13.729        0.032      340.484       14.537      861.724
06/22/2013  02:41:00     -114.729      -54.003       -6.867       24.573       23.039       13.370      603.847      530.789      178.762        0.872        0.066      126.803        9.147        0.005      340.435       14.453      861.714
06/22/2013  02:42:00      -94.388      -64.542       -0.813       24.999       19.781       15.127      624.941      391.296      228.816        0.716        0.062      114.345        9.800        0.007      340.416       14.421      861.712
06/22/2013  02:43:00      -74.318      -42.711        1.385       27.607       26.498       18.422      762.161      702.153      339.374        0.458        0.090       85.717       16.932        0.039      340.384       14.367      861.715
06/22/2013  02:44:00      -85.185      -20.929        0.824       34.540       18.948       15.261     1192.995      359.035      232.899        0.474        0.089       87.718       15.479        0.031      340.427       14.439      861.723
06/22/2013  02:45:00      -92.063       -2.304       -3.449       38.341       23.211       16.309     1470.026      538.729      265.989        0.538        0.114       92.092       17.214        0.035      340.248       14.138      861.715
06/22/2013  02:46:00      -82.264      -56.070        4.359       27.813       25.308       18.293      773.570      640.477      334.622        0.584        0.087       99.555       15.844        0.025      340.309       14.240      861.703
06/22/2013  02:47:00     -101.276      -13.465        0.307       39.452       29.856       20.073     1556.482      891.382      402.906        0.664        0.143      102.168       21.043        0.042      340.302       14.229      861.710
06/22/2013  02:48:00     -101.620       24.312       -4.193       37.805       24.246       18.729     1429.211      587.881      350.776        0.665        0.118      104.488       15.030        0.021      340.067       13.833      861.710
06/22/2013  02:49:00     -135.458        1.447       -8.239       28.792       36.286       18.287      828.955     1316.704      334.430        1.045        0.124      135.465       15.602        0.013      340.163       13.995      861.699
06/22/2013  02:50:00     -108.505      -37.893       -3.446       41.133       41.613       16.915     1691.905     1731.626      286.103        0.846        0.185      114.931       13.346        0.013      340.095       13.879      861.681
06/22/2013  02:51:00      -90.478        6.697       -2.288       45.944       35.264       23.889     2110.878     1243.568      570.701        0.608        0.196       90.725       22.712        0.063      339.933       13.605      861.681
06/22/2013  02:52:00     -110.690       -8.759       -1.114       46.806       27.207       24.265     2190.770      740.216      588.801        0.792        0.176      111.036       24.273        0.048      340.085       13.861      861.687
06/22/2013  02:53:00     -106.390      -11.410       -1.920       50.374       29.781       21.663     2537.522      886.930      469.277        0.767        0.195      107.001       24.843        0.054      340.116       13.915      861.685
06/22/2013  02:54:00      -97.323      -15.235       -0.620       43.249       28.683       22.502     1870.457      822.721      506.328        0.645        0.160       98.508       21.356        0.047      340.102       13.891      861.679
06/22/2013  02:55:00     -110.553      -11.225       -4.784       22.799       18.525       11.242      519.783      343.163      126.383        0.668        0.049      111.121        8.989        0.007      340.196       14.050      861.683
06/22/2013  02:56:00      -76.321      -11.337       -6.102       24.587       20.521       13.706      604.544      421.121      187.847        0.360        0.061       77.159       11.951        0.024      340.187       14.035      861.686
06/22/2013  02:57:00      -65.772      -11.427        0.084       22.690       19.441       14.386      514.813      377.966      206.949        0.278        0.055       66.758       10.950        0.027      340.141       13.957      861.694
06/22/2013  02:58:00      -34.409      -21.689        6.401       26.640       22.166       13.690      709.677      491.320      187.403        0.154        0.069       40.674       12.778        0.099      340.174       14.011      861.704
06/22/2013  02:59:00      -59.616      -31.579       -2.107       22.006       15.747        9.654      484.283      247.971       93.207        0.269        0.041       67.464        8.271        0.015      340.253       14.147      861.706
06/22/2013  03:00:00      -10.324      -41.904        0.157       18.064       17.025       11.095      326.309      289.864      123.097        0.130        0.037       43.157       10.166        0.055      340.311       14.245      861.705
06/22/2013  03:01:00       -3.479      -41.302      -11.265       18.463       12.773       13.703      340.869      163.145      187.773        0.127        0.035       41.448        7.351        0.031      340.379       14.358      861.713
06/22/2013  03:02:00      -16.292      -26.562       -2.729       20.278       21.422        9.856      411.216      458.919       97.147        0.097        0.048       31.160       11.338        0.132      340.440       14.460      861.733
06/22/2013  03:03:00        6.055        7.454       12.318       14.737        8.243        8.307      217.181       67.947       69.014        0.030        0.018        9.603        4.940        0.265      340.234       14.113      861.735
06/22/2013  03:04:00       -0.362       27.366       29.673       11.955       17.782       10.819      142.930      316.195      117.048        0.110        0.029       27.368        5.933        0.047      340.179       14.020      861.735
06/22/2013  03:05:00       -3.928       24.348       41.400       12.694       17.923       11.383      161.150      321.231      129.569        0.147        0.031       24.663        9.768        0.157      340.067       13.832      861.742
06/22/2013  03:06:00        2.700       11.757       10.687       11.071       13.594       10.686      122.562      184.791      114.187        0.034        0.021       12.063        8.000        0.440      339.937       13.612      861.744
06/22/2013  03:07:00      -10.541       -4.086       -0.991       11.127       13.854        8.993      123.818      191.935       80.867        0.026        0.020       11.305        7.939        0.493      340.146       13.963      861.745
06/22/2013  03:08:00       -2.732      -15.229      -10.888        6.904        9.273        6.446       47.659       85.997       41.555        0.027        0.009       15.472        3.202        0.043      340.299       14.224      861.732
06/22/2013  03:09:00      -14.874       -6.918       -2.988       19.667        6.274        4.955      386.795       39.359       24.549        0.036        0.023       16.404        4.556        0.077      340.348       14.308      861.730
06/22/2013  03:10:00      -53.610      -13.328      -11.222        7.793        8.900        5.955       60.729       79.206       35.459        0.168        0.009       55.242        2.782        0.003      340.206       14.067      861.719
06/22/2013  03:11:00      -67.412       -7.031       -7.222        9.336        7.247        6.752       87.155       52.522       45.588        0.242        0.009       67.778        5.095        0.006      340.246       14.135      861.709
06/22/2013  03:12:00      -73.095       -1.517       -8.567        5.835        4.098        5.282       34.044       16.797       27.895        0.275        0.004       73.110        2.305        0.001      340.336       14.286      861.703
06/22/2013  03:13:00      -57.614       10.801       -8.539        6.793        6.988        4.947       46.151       48.834       24.472        0.181        0.006       58.618        3.553        0.004      340.463       14.502      861.705
06/22/2013  03:14:00      -47.631       11.496       -5.109        5.649        5.780        4.164       31.907       33.413       17.339        0.125        0.004       48.999        3.654        0.006      340.451       14.482      861.696
06/22/2013  03:15:00      -22.496       -8.999        1.900       11.366       10.353        4.633      129.180      107.187       21.462        0.042        0.013       24.229        1.607        0.004      340.405       14.404      861.701
06/22/2013  03:16:00       14.111      -43.558       -5.822       23.518       24.890        9.869      553.089      619.537       97.405        0.170        0.064       45.786       13.383        0.085      340.251       14.142      861.721
06/22/2013  03:17:00      -25.331      -32.821        0.810       20.486       15.912       10.627      419.663      253.204      112.940        0.125        0.039       41.459        7.571        0.033      340.075       13.846      861.744
06/22/2013  03:18:00      -42.977      -25.076       -4.484       22.132       17.855       14.490      489.846      318.787      209.956        0.176        0.051       49.757       13.967        0.079      340.046       13.798      861.750
06/22/2013  03:19:00       -1.731      -28.749       -1.379       24.229       17.640       14.407      587.064      311.167      207.552        0.097        0.055       28.801        6.738        0.055      340.055       13.811      861.758
06/22/2013  03:20:00       41.693       40.891       18.546       46.228       40.994       24.582     2136.986     1680.475      604.281        0.409        0.221       58.399       16.471        0.080      340.024       13.758      861.758
06/22/2013  03:21:00       87.930       62.229        0.270       43.911       34.847       29.844     1928.195     1214.348      890.687        0.782        0.202      107.723       15.033        0.019      339.471       12.827      861.771
06/22/2013  03:22:00       33.452       54.670        1.124       45.423       40.698       18.196     2063.292     1656.361      331.104        0.408        0.203       64.093        9.033        0.020      339.414       12.731      861.766
06/22/2013  03:23:00        2.702       84.076       -7.855       18.435       35.085       12.325      339.862     1230.945      151.894        0.443        0.086       84.119       16.123        0.037      339.794       13.373      861.764
06/22/2013  03:24:00      -14.592       84.700       -9.201       16.026       35.412       12.605      256.833     1254.026      158.896        0.457        0.083       85.948       16.778        0.038      339.931       13.602      861.766
06/22/2013  03:25:00      -19.727       13.441       -5.409       17.962       16.147       11.021      322.644      260.728      121.465        0.065        0.035       23.871        9.980        0.175      339.870       13.499      861.788
06/22/2013  03:26:00      -28.265       29.694       -9.146       21.282       16.801       10.505      452.932      282.262      110.348        0.130        0.042       40.996       10.162        0.061      339.908       13.565      861.788
06/22/2013  03:27:00      -48.022      -17.731       -5.015       16.446       17.699        7.976      270.461      313.241       63.620        0.165        0.032       51.191        2.882        0.003      339.811       13.402      861.784
06/22/2013  03:28:00      -54.998      -13.907       -6.056        9.641       13.745        7.838       92.951      188.915       61.429        0.180        0.017       56.729        7.662        0.018      339.802       13.386      861.781
06/22/2013  03:29:00      -35.505      -12.348       -4.283       11.765       13.768       10.037      138.417      189.553      100.733        0.093        0.021       37.591        6.400        0.029      339.844       13.455      861.775
06/22/2013  03:30:00      -10.050      -26.228       -4.129        9.702        7.997        9.471       94.122       63.952       89.697        0.053        0.012       28.088        5.607        0.040      339.846       13.461      861.765
06/22/2013  03:31:00        2.131      -23.711       -1.527       13.365       11.275       11.913      178.627      127.135      141.920        0.051        0.022       23.807        3.258        0.019      340.148       13.970      861.761
06/22/2013  03:32:00      -35.227      -25.259       -1.401       29.901       19.519       13.759      894.084      380.980      189.314        0.167        0.073       43.347       14.398        0.110      340.027       13.764      861.772
06/22/2013  03:33:00      -70.122      -46.079        1.769       30.390       19.401       18.316      923.551      376.417      335.494        0.434        0.082       83.907       11.861        0.020      339.971       13.671      861.767
06/22/2013  03:34:00      -49.331      -43.787       -0.642       33.917       24.886       16.510     1150.359      619.310      272.585        0.320        0.102       65.961       11.504        0.030      339.918       13.580      861.768
06/22/2013  03:35:00      -63.156      -10.761       -4.275       39.153       26.587       18.323     1532.938      706.852      335.749        0.335        0.129       64.066       22.096        0.119      339.773       13.337      861.790
06/22/2013  03:36:00      -99.503        8.205      -11.083       32.414       18.583       17.030     1050.641      345.324      290.011        0.589        0.084       99.840       15.193        0.023      339.690       13.196      861.807
06/22/2013  03:37:00     -105.619      -10.057       -4.709       24.331       22.455       13.874      591.997      504.239      192.487        0.628        0.064      106.097       13.402        0.016      339.729       13.263      861.803
06/22/2013  03:38:00     -100.450      -37.657       -1.019       22.653       16.451       12.023      513.167      270.635      144.564        0.622        0.046      107.277       11.645        0.012      339.829       13.432      861.798
06/22/2013  03:39:00      -92.884      -62.363       -4.502       20.325       17.168       11.484      413.092      294.736      131.877        0.669        0.042      111.878        8.420        0.006      339.905       13.560      861.793
06/22/2013  03:40:00      -90.702      -46.923       -1.537       25.846       16.182       12.694      668.038      261.854      161.131        0.576        0.055      102.120       10.318        0.010      339.867       13.494      861.775
06/22/2013  03:41:00      -94.039      -51.397        2.887       35.534       22.827       16.864     1262.631      521.050      284.381        0.678        0.103      107.168       18.312        0.029      339.807       13.392      861.759
06/22/2013  03:42:00      -98.103      -60.165        0.293       36.755       25.744       25.841     1350.964      662.728      667.761        0.796        0.134      115.082       21.649        0.035      339.736       13.275      861.740
06/22/2013  03:43:00      -61.293      -47.606        3.174       38.864       30.451       23.476     1510.415      927.270      551.112        0.451        0.149       77.609       17.329        0.050      339.706       13.224      861.737
06/22/2013  03:44:00      -80.950      -56.065        7.450       49.053       29.281       24.036     2406.198      857.366      577.749        0.680        0.192       98.469       18.844        0.037      339.709       13.229      861.724
06/22/2013  03:45:00      -92.115      -59.734       -2.210       51.198       26.217       18.498     2621.185      687.313      342.179        0.785        0.183      109.787       11.074        0.010      339.668       13.160      861.708
06/22/2013  03:46:00     -111.629      -39.702       -3.469       20.054       22.469       14.666      402.176      504.838      215.090        0.759        0.056      118.479        8.860        0.006      339.610       13.063      861.699
06/22/2013  03:47:00     -103.760      -46.083       -1.447       31.632       25.329       15.698     1000.571      641.580      246.440        0.739        0.094      113.533       15.326        0.018      339.597       13.041      861.703
06/22/2013  03:48:00      -98.756      -35.916       -3.709       32.463       29.240       14.807     1053.855      854.984      219.242        0.659        0.106      105.084       13.591        0.017      339.561       12.980      861.693
06/22/2013  03:49:00      -91.041      -34.691       -0.224       34.888       30.677       16.565     1217.151      941.092      274.399        0.596        0.122       97.427       18.026        0.034      339.529       12.925      861.677
06/22/2013  03:50:00      -89.214      -19.366       -3.524       35.548       26.457       20.528     1263.678      699.974      421.390        0.537        0.119       91.292       21.883        0.057      339.347       12.618      861.674
06/22/2013  03:51:00      -91.330      -15.835       -0.355       46.052       26.292       24.703     2120.789      691.273      610.218        0.601        0.171       92.693       25.417        0.075      339.214       12.393      861.672
06/22/2013  03:52:00     -103.482       -3.459       -1.088       56.517       30.964       25.685     3194.226      958.741      659.731        0.777        0.241      103.540       29.536        0.081      339.179       12.334      861.667
06/22/2013  03:53:00     -145.037      -41.460       -4.671       45.167       31.247       21.198     2040.052      976.359      449.344        1.312        0.173      150.846       16.445        0.012      339.229       12.420      861.663
06/22/2013  03:54:00     -169.741      -52.735       -2.550       32.410       29.500       22.160     1050.389      870.249      491.059        1.701        0.121      177.744       18.063        0.010      339.356       12.633      861.650
06/22/2013  03:55:00     -144.788      -51.975       -3.331       35.537       47.779       25.594     1262.883     2282.856      655.066        1.394        0.210      153.834       20.236        0.017      339.370       12.657      861.658
06/22/2013  03:56:00     -103.291      -61.907        3.555       51.348       26.477       20.310     2636.643      701.019      412.503        0.913        0.188      120.422       23.200        0.037      339.391       12.692      861.653
06/22/2013  03:57:00      -87.641      -68.458       -0.802       41.220       27.563       22.072     1699.088      759.706      487.173        0.766        0.147      111.210       23.468        0.045      339.487       12.854      861.649
06/22/2013  03:58:00      -78.107      -32.323       -1.998       29.100       32.026       16.336      846.805     1025.685      266.869        0.464        0.107       84.531       15.615        0.034      339.455       12.799      861.639
06/22/2013  03:59:00      -85.837      -19.350        5.493       40.168       29.031       22.578     1613.428      842.787      509.751        0.537        0.148       87.991       24.652        0.078      339.353       12.628      861.636
06/22/2013  04:00:00      -77.104      -15.902        2.624       29.654       27.483       17.859      879.368      755.308      318.958        0.408        0.098       78.727       16.254        0.043      339.296       12.532      861.648
06/22/2013  04:01:00      -91.128      -32.966      -11.699       22.833       19.559       17.202      521.360      382.557      295.911        0.536        0.060       96.907       15.773        0.026      339.230       12.420      861.651
06/22/2013  04:02:00      -90.687      -47.434       -9.922       20.016       17.803       17.575      400.659      316.951      308.886        0.580        0.051      102.344       12.737        0.015      339.269       12.487      861.640
06/22/2013  04:03:00     -100.451      -50.313       -9.084       30.141       27.511       15.601      908.505      756.867      243.376        0.731        0.095      112.346       15.210        0.018      339.273       12.493      861.635
06/22/2013  04:04:00     -105.506      -29.294       -9.515       20.441       20.955       13.223      417.818      439.122      174.855        0.656        0.052      109.497       12.122        0.012      339.255       12.463      861.640
06/22/2013  04:05:00     -111.369      -40.074      -16.362       10.295       12.160       10.166      105.988      147.874      103.356        0.732        0.018      118.360        7.513        0.004      339.232       12.424      861.645
06/22/2013  04:06:00     -121.623      -46.251      -18.713        8.308       13.682        9.315       69.028      187.199       86.769        0.881        0.017      130.121        7.595        0.003      339.295       12.531      861.634
06/22/2013  04:07:00     -112.037      -30.190       -8.812       14.773       15.422       11.211      218.234      237.839      125.682        0.706        0.029      116.034        6.910        0.004      339.379       12.671      861.623
06/22/2013  04:08:00      -94.059      -16.573       -5.474       25.848       18.762       13.723      668.126      352.020      188.315        0.518        0.060       95.508       13.655        0.020      339.321       12.574      861.622
06/22/2013  04:09:00     -111.405      -13.504      -10.111       28.885       12.606       14.806      834.326      158.914      219.206        0.695        0.061      112.220       16.673        0.022      339.201       12.372      861.623
06/22/2013  04:10:00     -128.712        0.481      -13.557       27.337       18.554       17.210      747.308      344.263      296.201        0.907        0.069      128.713       12.639        0.010      339.121       12.237      861.622
06/22/2013  04:11:00     -126.811        2.944      -14.182       33.191       27.454       18.965     1101.667      753.731      359.672        0.925        0.111      126.845       16.889        0.018      339.249       12.452      861.612
06/22/2013  04:12:00     -103.202        0.839       -6.438       29.973       26.838       17.588      898.369      720.261      309.336        0.631        0.096      103.206       14.209        0.019      339.218       12.400      861.621
06/22/2013  04:13:00     -135.343       28.016      -13.210       39.222       26.710       16.199     1538.357      713.427      262.416        1.090        0.126      138.213        8.683        0.004      339.245       12.446      861.617
06/22/2013  04:14:00     -108.945       -8.095       -6.581       43.079       28.765       19.225     1855.785      827.420      369.609        0.751        0.153      109.246       21.102        0.037      339.240       12.439      861.601
06/22/2013  04:15:00     -115.027        4.772       -6.317       39.247       35.847       19.773     1540.309     1285.038      390.977        0.825        0.161      115.126       19.550        0.029      339.178       12.333      861.586
06/22/2013  04:16:00     -101.194       -6.250       -4.135       39.603       33.955       16.599     1568.437     1152.951      275.532        0.665        0.150      101.387       13.686        0.018      339.210       12.389      861.574
06/22/2013  04:17:00     -127.053       19.374       -6.224       36.244       26.595       17.014     1313.656      707.303      289.460        0.943        0.116      128.521       15.662        0.015      339.162       12.308      861.567
06/22/2013  04:18:00     -141.723       16.099       -6.438       18.351       17.316        8.365      336.745      299.861       69.978        1.055        0.035      142.634        3.800        0.001      339.249       12.451      861.552
06/22/2013  04:19:00     -119.146       35.531       -5.669       27.118       19.622       14.582      735.359      385.004      212.636        0.841        0.067      124.331       12.321        0.010      339.268       12.486      861.540
06/22/2013  04:20:00     -117.906       24.663       -9.061       38.115       18.444       14.908     1452.723      340.190      222.256        0.830        0.101      120.458       17.604        0.021      339.308       12.552      861.544
06/22/2013  04:21:00      -89.473       10.759       -3.090       28.463       25.117       18.288      810.166      630.878      334.447        0.495        0.089       90.117       10.930        0.015      339.339       12.605      861.540
06/22/2013  04:22:00      -51.088      -29.507       -2.237       43.438       23.754       14.825     1886.888      564.271      219.774        0.308        0.134       58.997       16.259        0.076      339.287       12.518      861.526
06/22/2013  04:23:00      -43.772      -33.470        0.905       36.079       37.056       18.540     1301.688     1373.154      343.745        0.303        0.151       55.102       17.524        0.101      339.270       12.489      861.545
06/22/2013  04:24:00      -84.293      -42.144       -5.580       44.182       23.775       21.606     1952.010      565.249      466.824        0.595        0.149       94.241       20.617        0.048      339.230       12.421      861.558
06/22/2013  04:25:00      -46.523      -34.598        3.222       37.894       26.311       20.314     1435.955      692.244      412.652        0.296        0.127       57.977       22.850        0.155      339.111       12.220      861.567
06/22/2013  04:26:00      -99.167      -36.394       -8.118       18.769       16.753        8.941      352.278      280.661       79.946        0.597        0.036      105.634        8.761        0.007      339.168       12.314      861.578
06/22/2013  04:27:00      -61.593      -45.148       -5.201       26.164       13.644       10.525      684.538      186.168      110.783        0.342        0.049       76.368       12.234        0.026      339.183       12.341      861.590
06/22/2013  04:28:00      -74.579      -45.720       -7.279       17.167       14.880       10.369      294.721      221.402      107.523        0.416        0.031       87.477        2.978        0.001      339.204       12.376      861.584
06/22/2013  04:29:00      -88.130      -31.055       -5.520       14.352       17.792       12.723      205.981      316.543      161.885        0.472        0.034       93.442        7.010        0.006      339.184       12.344      861.583
06/22/2013  04:30:00     -110.347      -30.527       -8.819       18.734       15.494       11.198      350.976      240.054      125.405        0.695        0.036      114.492        9.500        0.007      339.197       12.365      861.581
06/22/2013  04:31:00     -132.068      -45.468       -8.905       19.459       19.768       10.125      378.646      390.793      102.525        1.023        0.044      139.676        7.622        0.003      339.191       12.356      861.577
06/22/2013  04:32:00     -100.631      -32.573        4.510       49.795       37.816       18.482     2479.513     1430.067      341.567        0.773        0.213      105.772       16.667        0.025      339.041       12.102      861.572
06/22/2013  04:33:00     -109.121       -7.674       -4.451       34.740       25.027       19.522     1206.853      626.347      381.122        0.710        0.111      109.390       14.042        0.016      338.989       12.016      861.577
06/22/2013  04:34:00      -83.716       -4.633       -2.580       37.239       21.843       23.082     1386.759      477.126      532.797        0.472        0.120       83.844       23.304        0.077      338.900       11.865      861.594
06/22/2013  04:35:00      -94.309       -7.299       -6.818       25.574       22.732       14.831      654.048      516.745      219.953        0.519        0.070       94.591       12.849        0.018      338.954       11.958      861.594
06/22/2013  04:36:00     -104.086       -8.530       -5.352       33.370       21.767       18.534     1113.567      473.823      343.499        0.643        0.097      104.434       13.538        0.017      338.906       11.876      861.594
06/22/2013  04:37:00     -101.329      -26.725       -3.716       26.570       30.122       14.713      705.955      907.313      216.465        0.641        0.091      104.794        9.929        0.009      338.987       12.012      861.600
06/22/2013  04:38:00     -104.260      -29.067       -3.644       23.775       25.288       19.305      565.244      639.498      372.676        0.665        0.079      108.236       14.949        0.019      339.036       12.095      861.613
06/22/2013  04:39:00      -82.519      -32.396        2.358       35.815       23.137       16.662     1282.694      535.334      277.626        0.498        0.105       88.650       17.529        0.039      339.024       12.074      861.621
06/22/2013  04:40:00      -91.461      -55.232       -2.510       27.883       23.771       16.274      777.440      565.070      264.845        0.651        0.080      106.844       14.388        0.018      339.064       12.141      861.630
06/22/2013  04:41:00      -82.278      -53.075       -0.937       38.410       22.791       18.939     1475.363      519.416      358.697        0.597        0.118       97.911       15.892        0.026      339.040       12.102      861.641
06/22/2013  04:42:00      -57.301      -33.443        4.052       44.709       23.673       17.481     1998.877      560.416      305.572        0.364        0.143       66.346       11.184        0.028      339.040       12.101      861.656
06/22/2013  04:43:00      -47.036      -62.462        3.062       32.329       26.560       19.894     1045.166      705.409      395.788        0.413        0.107       78.191       15.891        0.041      339.050       12.118      861.668
06/22/2013  04:44:00      -65.266      -77.925        2.014       41.807       32.426       23.601     1747.842     1051.417      556.992        0.685        0.168      101.646       22.576        0.049      339.082       12.172      861.672
06/22/2013  04:45:00      -72.133      -75.301        2.198       43.168       36.934       20.775     1863.452     1364.123      431.580        0.727        0.183      104.276       23.610        0.051      339.054       12.124      861.675
06/22/2013  04:46:00     -103.492      -72.223        0.118       44.718       32.157       20.503     1999.697     1034.058      420.392        0.969        0.173      126.201       19.449        0.024      339.080       12.168      861.686
06/22/2013  04:47:00     -108.432      -70.914        1.188       49.632       30.187       25.285     2463.317      911.249      639.344        1.040        0.201      129.562       27.909        0.046      338.994       12.023      861.706
06/22/2013  04:48:00      -76.900      -83.291        0.075       40.907       32.120       25.128     1673.365     1031.723      631.408        0.809        0.167      113.362       24.859        0.048      338.832       11.752      861.719
06/22/2013  04:49:00      -38.043      -54.030        7.375       37.259       36.175       26.095     1388.214     1308.605      680.933        0.390        0.169       66.080       24.750        0.140      338.872       11.818      861.715
06/22/2013  04:50:00      -90.776      -90.281        0.820       43.765       34.416       22.131     1915.417     1184.481      489.784        0.999        0.179      128.027       23.501        0.034      338.918       11.896      861.707
06/22/2013  04:51:00      -75.825      -89.564        7.266       46.947       34.001       28.579     2204.002     1156.054      816.750        0.900        0.209      117.351       26.743        0.052      338.876       11.825      861.721
06/22/2013  04:52:00     -115.382      -99.972      -13.379       29.844       31.536       18.200      890.637      994.518      331.235        1.285        0.111      152.668       12.861        0.007      338.917       11.894      861.710
06/22/2013  04:53:00     -110.281      -90.264       -8.681       28.689       28.572       21.819      823.043      816.360      476.075        1.125        0.106      142.511       16.401        0.013      338.939       11.931      861.700
06/22/2013  04:54:00     -126.122      -72.035       -9.883       38.565       28.014       25.631     1487.276      784.810      656.956        1.206        0.146      145.244       19.252        0.018      338.913       11.888      861.708
06/22/2013  04:55:00     -118.894      -59.912       -6.794       37.964       36.588       26.753     1441.248     1338.716      715.705        1.063        0.175      133.136       20.631        0.024      338.786       11.675      861.740
06/22/2013  04:56:00      -44.220      -56.780       -3.940       23.387       21.501       14.938      546.940      462.284      223.129        0.321        0.062       71.968        4.761        0.004      338.780       11.664      861.748
06/22/2013  04:57:00      -12.620      -61.520       -3.239       23.446       19.522       12.412      549.706      381.111      154.048        0.252        0.054       62.801       10.918        0.030      338.867       11.810      861.736
06/22/2013  04:58:00      -43.066     -111.498       -5.189       29.057       26.290       16.935      844.335      691.170      286.791        0.807        0.091      119.526        7.617        0.004      338.887       11.843      861.715
06/22/2013  04:59:00      -64.746     -107.315       -4.637       41.716       59.033       28.015     1740.214     3484.850      784.837        1.087        0.300      125.334       30.952        0.061      338.983       12.006      861.694
06/22/2013  05:00:00      -75.928      -42.575        4.851       60.409       42.135       24.434     3649.225     1775.383      597.037        0.681        0.301       87.050       26.206        0.091      338.984       12.008      861.683
06/22/2013  05:01:00     -112.109      -52.544        5.047       78.733       55.863       33.552     6198.864     3120.640     1125.756        1.290        0.522      123.811       34.363        0.077      338.856       11.791      861.681
06/22/2013  05:02:00     -135.158     -102.156       -2.007       53.284       52.340       37.317     2839.149     2739.468     1392.529        1.784        0.349      169.421       32.278        0.036      338.687       11.508      861.696
06/22/2013  05:03:00     -119.782      -58.651      -14.937       35.244       45.974       21.191     1242.107     2113.578      449.050        1.091        0.190      133.371       17.910        0.018      338.695       11.520      861.713
06/22/2013  05:04:00     -133.030      -72.614      -11.968       22.506       30.193       18.884      506.509      911.622      356.597        1.244        0.089      151.558        9.648        0.004      338.709       11.544      861.721
06/22/2013  05:05:00      -91.801      -41.140       -1.103       42.455       37.033       18.465     1802.440     1371.464      340.953        0.682        0.176      100.598       18.877        0.035      338.682       11.499      861.723
06/22/2013  05:06:00      -98.572      -84.891       -7.949       53.648       47.640       26.096     2878.150     2269.614      681.000        1.141        0.291      130.088       30.708        0.056      338.641       11.429      861.734
06/22/2013  05:07:00     -132.025     -110.121       -0.877       52.377       48.742       27.266     2743.397     2375.736      743.424        1.771        0.293      171.922       22.056        0.016      338.629       11.409      861.727
06/22/2013  05:08:00     -105.368      -80.575        8.796       73.349       50.770       36.177     5380.081     2577.614     1308.740        1.347        0.463      132.645       35.743        0.073      338.574       11.317      861.749
06/22/2013  05:09:00      -40.418      -65.772       12.459       42.513       27.951       23.284     1807.313      781.247      542.150        0.462        0.157       77.198       21.041        0.074      338.583       11.333      861.772
06/22/2013  05:10:00      -63.867      -60.058        7.375       40.512       39.993       25.889     1641.249     1599.464      670.219        0.582        0.196       87.670       19.173        0.048      338.635       11.419      861.775
06/22/2013  05:11:00      -24.135      -78.500       10.759       50.660       65.456       36.859     2566.417     4284.445     1358.610        0.753        0.410       82.126       34.620        0.178      338.639       11.427      861.769
06/22/2013  05:12:00      -36.105      -56.715        8.798       35.287       35.778       29.836     1245.160     1280.061      890.203        0.401        0.171       67.232       17.809        0.070      338.638       11.425      861.772
06/22/2013  05:13:00      -38.522      -32.275       -1.113       47.347       42.207       29.730     2241.755     1781.464      883.858        0.372        0.245       50.255       23.130        0.212      338.527       11.238      861.788
06/22/2013  05:14:00      -54.593      -61.758        2.937       80.156       35.190       25.834     6424.975     1238.336      667.398        0.757        0.417       82.428       32.798        0.158      338.484       11.167      861.819
06/22/2013  05:15:00      -85.079      -73.811       10.034       49.487       48.063       30.641     2448.986     2310.075      938.887        0.924        0.285      112.635       25.832        0.053      338.416       11.053      861.834
06/22/2013  05:16:00      -32.245      -17.752       13.800       32.809       39.064       18.516     1076.434     1526.006      342.828        0.224        0.147       36.809       13.788        0.140      338.377       10.987      861.828
06/22/2013  05:17:00      -62.544      -36.862       -5.988       24.581       19.578       11.754      604.249      383.280      138.161        0.322        0.056       72.599        8.304        0.013      338.491       11.179      861.831
06/22/2013  05:18:00      -64.973      -24.199       -6.714       17.586       16.684       13.051      309.260      278.372      170.316        0.280        0.038       69.333        3.499        0.003      338.525       11.237      861.855
06/22/2013  05:19:00      -76.052       -6.644       -5.571       40.201       19.472       14.008     1616.095      379.166      196.213        0.402        0.110       76.342       13.665        0.032      338.423       11.064      861.856
06/22/2013  05:20:00      -38.593       -0.503        2.972       15.121       12.753        9.485      228.632      162.648       89.960        0.099        0.024       38.596        8.251        0.046      338.342       10.929      861.862
06/22/2013  05:21:00      -51.649      -13.123      -10.129       12.170       13.615        8.227      148.113      185.357       67.690        0.167        0.020       53.290        6.660        0.016      338.504       11.201      861.877
06/22/2013  05:22:00      -84.621      -28.645       -7.258       21.027       19.791       10.574      442.150      391.685      111.814        0.449        0.047       89.338        7.010        0.006      338.514       11.218      861.876
06/22/2013  05:23:00      -80.169      -29.090       -0.502       21.171       15.360       11.657      448.202      235.932      135.893        0.405        0.041       85.283        3.745        0.002      338.466       11.136      861.880
06/22/2013  05:24:00      -48.409      -31.638       -4.678       20.228        9.355        7.443      409.187       87.511       55.395        0.196        0.028       57.831        2.647        0.002      338.523       11.232      861.895
06/22/2013  05:25:00      -54.287      -22.608       -6.524       18.802        9.023        8.453      353.523       81.412       71.457        0.200        0.025       58.807        7.901        0.018      338.524       11.232      861.897
06/22/2013  05:26:00      -79.980      -31.470       -6.042       16.980       15.753        8.041      288.321      248.162       64.659        0.401        0.030       85.949        6.761        0.006      338.598       11.359      861.898
06/22/2013  05:27:00      -97.753      -29.995       -7.044       13.809       12.663       11.973      190.695      160.356      143.342        0.550        0.025      102.252       10.167        0.010      338.557       11.290      861.909
06/22/2013  05:28:00     -109.449      -49.886      -10.143       19.568       15.610       11.975      382.915      243.679      143.390        0.767        0.038      120.282        9.075        0.006      338.478       11.157      861.926
06/22/2013  05:29:00      -67.565      -45.405        2.243       48.178       23.754       18.072     2321.158      564.267      326.588        0.492        0.161       81.404       24.998        0.094      338.430       11.076      861.924
06/22/2013  05:30:00      -37.069      -29.494        2.046       41.790       21.896       17.058     1746.383      479.452      290.981        0.238        0.126       47.371       20.860        0.194      338.420       11.060      861.916
06/22/2013  05:31:00      -77.327      -40.891       -4.177       30.567       17.928       11.850      934.355      321.422      140.424        0.453        0.070       87.473       11.590        0.018      338.484       11.168      861.920
06/22/2013  05:32:00      -98.394      -32.410       -7.541       20.400       23.175       10.374      416.154      537.100      107.625        0.592        0.053      103.594        4.993        0.002      338.485       11.169      861.933
06/22/2013  05:33:00      -66.991      -17.893       -0.883       22.613       20.046       12.777      511.351      401.855      163.250        0.294        0.054       69.340       13.055        0.035      338.437       11.089      861.940
06/22/2013  05:34:00      -87.953      -15.223       -6.815       21.705       15.067       14.922      471.092      227.012      222.659        0.447        0.046       89.261       13.681        0.023      338.390       11.009      861.946
06/22/2013  05:35:00      -72.889      -11.428        1.244       24.804       19.467       13.539      615.260      378.951      183.307        0.331        0.059       73.779       14.784        0.040      338.396       11.019      861.961
06/22/2013  05:36:00      -55.915       -8.936       -0.265       20.794       10.111        9.304      432.380      102.230       86.556        0.191        0.031       56.624        8.224        0.021      338.439       11.091      861.976
06/22/2013  05:37:00      -45.715      -26.772       -7.976       14.871       12.814        9.660      221.139      164.199       93.316        0.167        0.024       52.977        8.078        0.023      338.562       11.296      861.977
06/22/2013  05:38:00      -53.985      -11.355       -2.164       18.728       11.215        9.119      350.745      125.772       83.149        0.180        0.028       55.166        4.784        0.008      338.538       11.257      861.985
06/22/2013  05:39:00      -91.435      -37.259      -10.739       16.545       16.472       13.117      273.738      271.329      172.054        0.529        0.036       98.735       11.425        0.013      338.592       11.349      861.980
06/22/2013  05:40:00      -83.711      -47.200       -5.247       21.404       14.167       13.515      458.121      200.697      182.664        0.505        0.042       96.101        9.480        0.010      338.566       11.305      861.977
06/22/2013  05:41:00      -67.141      -51.977        4.346       27.189       12.492       16.460      739.266      156.046      270.927        0.420        0.058       84.909       14.377        0.029      338.577       11.323      861.977
06/22/2013  05:42:00      -99.280      -50.606       -9.970       16.113       11.896       11.794      259.631      141.518      139.102        0.653        0.027      111.434       11.212        0.010      338.516       11.221      861.980
06/22/2013  05:43:00     -107.341      -40.748      -11.725       16.302       16.417       12.186      265.745      269.521      148.493        0.700        0.034      114.815        7.611        0.004      338.470       11.142      861.987
06/22/2013  05:44:00     -122.195      -48.318       -5.745       16.495       12.436       12.089      272.070      154.654      146.141        0.894        0.029      131.401        4.895        0.001      338.398       11.021      861.998
06/22/2013  05:45:00     -128.638      -59.081       -3.037       23.287       15.240       13.592      542.287      232.246      184.732        1.050        0.048      141.557        8.860        0.004      338.423       11.065      862.015
06/22/2013  05:46:00     -143.815      -56.466       -2.493       30.160       24.651       15.469      909.632      607.683      239.284        1.282        0.088      154.503       16.420        0.011      338.367       10.972      862.033
06/22/2013  05:47:00     -140.884      -64.136       -9.997       30.056       20.867       16.284      903.362      435.416      265.169        1.283        0.080      154.796       14.803        0.009      338.358       10.954      862.049
06/22/2013  05:48:00     -119.208      -57.333       -5.632       22.231       26.067       15.267      494.235      679.491      233.091        0.947        0.070      132.279       11.989        0.008      338.449       11.108      862.066
06/22/2013  05:49:00     -114.792      -29.665       -6.243       17.114       18.814       13.497      292.886      353.952      182.179        0.746        0.041      118.563        6.883        0.003      338.451       11.112      862.080
06/22/2013  05:50:00     -108.386      -40.719       -5.056       31.161       22.151       15.693      970.989      490.673      246.272        0.757        0.085      115.783       11.807        0.010      338.476       11.152      862.098
06/22/2013  05:51:00     -104.077      -37.549       -5.721       27.933       22.305       17.101      780.268      497.494      292.432        0.692        0.079      110.643       16.586        0.022      338.406       11.036      862.115
06/22/2013  05:52:00     -108.807      -48.097       -4.665       33.458       33.627       19.353     1119.416     1130.788      374.542        0.840        0.131      118.963       15.928        0.018      338.443       11.099      862.135
06/22/2013  05:53:00      -79.056      -70.806        3.018       43.737       27.503       24.230     1912.889      756.390      587.069        0.726        0.163      106.129       26.180        0.061      338.445       11.102      862.148
06/22/2013  05:54:00     -101.234      -52.787        1.020       38.907       27.741       20.448     1513.766      769.580      418.134        0.787        0.135      114.170       19.575        0.029      338.447       11.106      862.159
06/22/2013  05:55:00     -120.653      -31.769      -10.759       21.577       29.995       17.537      465.567      899.718      307.555        0.868        0.084      124.766       12.942        0.011      338.419       11.058      862.166
06/22/2013  05:56:00     -119.976      -25.652       -3.306       37.973       29.382       18.943     1441.976      863.304      358.856        0.886        0.133      122.687       19.138        0.024      338.319       10.890      862.178
06/22/2013  05:57:00     -110.751      -23.518        1.074       35.946       30.146       20.298     1292.148      908.763      412.010        0.772        0.131      113.220       18.620        0.027      338.276       10.818      862.186
06/22/2013  05:58:00     -114.842      -31.537        2.733       36.186       33.041       22.466     1309.411     1091.706      504.715        0.855        0.145      119.094       19.833        0.028      338.211       10.707      862.194
06/22/2013  05:59:00     -103.176      -28.176        2.258       51.935       35.976       22.659     2697.226     1294.301      513.416        0.797        0.225      106.954       21.710        0.041      338.274       10.815      862.204
06/22/2013  06:00:00      -82.301      -19.717        2.609       41.562       27.714       17.653     1727.375      768.078      311.618        0.499        0.140       84.630       16.722        0.039      338.283       10.830      862.219
06/22/2013  06:01:00      -96.551      -29.957        2.734       22.660       20.948       14.860      513.457      438.807      220.831        0.570        0.059      101.091        9.859        0.010      338.358       10.955      862.234
06/22/2013  06:02:00      -95.007      -45.812       -7.559       30.078       25.864       18.691      904.699      668.921      349.368        0.655        0.096      105.476       12.054        0.013      338.468       11.141      862.248
06/22/2013  06:03:00      -61.589      -34.247        4.474       25.851       26.433       16.223      668.293      698.697      263.173        0.331        0.082       70.470       13.035        0.034      338.536       11.253      862.255
06/22/2013  06:04:00      -51.648      -30.644        2.882       38.626       32.841       16.676     1491.980     1078.526      278.098        0.323        0.142       60.055       12.222        0.041      338.642       11.431      862.262
06/22/2013  06:05:00     -104.674      -51.263       -4.707       50.272       25.671       26.653     2527.230      658.993      710.360        0.875        0.195      116.553       26.895        0.053      338.555       11.285      862.271
06/22/2013  06:06:00     -135.227      -77.540       -6.792       64.231       42.888       40.744     4125.646     1839.338     1660.105        1.598        0.381      155.881       33.535        0.046      338.475       11.151      862.285
06/22/2013  06:07:00     -136.465      -88.306       -1.634       53.829       42.016       36.379     2897.559     1765.354     1323.446        1.620        0.299      162.545       32.311        0.040      338.402       11.029      862.297
06/22/2013  06:08:00     -119.505      -69.258        3.711       48.530       38.992       28.346     2355.120     1520.406      803.498        1.188        0.234      138.124       23.639        0.029      338.412       11.046      862.312
06/22/2013  06:09:00     -116.973      -67.292       -2.850       43.175       37.958       26.304     1864.110     1440.786      691.907        1.111        0.200      134.948       22.803        0.029      338.444       11.100      862.321
06/22/2013  06:10:00      -99.599      -52.199       -1.062       46.098       27.656       22.575     2125.055      764.856      509.649        0.802        0.170      112.449       24.402        0.047      338.505       11.203      862.322
06/22/2013  06:11:00      -77.919      -30.161        4.660       51.574       27.193       22.006     2659.833      739.468      484.267        0.544        0.194       83.553       22.990        0.076      338.601       11.363      862.326
06/22/2013  06:12:00     -100.827      -18.265       -7.026       28.477       34.172       17.827      810.941     1167.709      317.784        0.642        0.115      102.468       13.979        0.019      338.532       11.247      862.327
06/22/2013  06:13:00     -105.775      -17.937       -4.590       27.660       23.440       17.195      765.066      549.439      295.655        0.657        0.081      107.285       15.099        0.020      338.490       11.177      862.331
06/22/2013  06:14:00      -98.580      -15.295       -3.100       40.069       30.071       21.514     1605.545      904.242      462.862        0.647        0.149       99.760       21.382        0.046      338.471       11.145      862.340
06/22/2013  06:15:00     -127.340        7.540       -8.096       40.410       34.476       24.676     1632.959     1188.629      608.928        0.988        0.172      127.563       24.857        0.038      338.429       11.074      862.340
06/22/2013  06:16:00      -99.559      -22.373       -3.085       43.796       25.936       22.122     1918.049      672.668      489.374        0.675        0.154      102.042       24.581        0.058      338.438       11.089      862.357
06/22/2013  06:17:00     -112.449      -24.124       -5.829       40.813       29.480       14.647     1665.708      869.080      214.526        0.800        0.137      115.007       12.499        0.012      338.498       11.189      862.370
06/22/2013  06:18:00      -84.844      -20.535        3.200       45.113       28.109       20.794     2035.162      790.135      432.380        0.544        0.163       87.294       24.846        0.081      338.550       11.278      862.373
06/22/2013  06:19:00     -107.457       -9.790       -3.369       48.832       26.195       22.079     2384.592      686.183      487.484        0.761        0.178      107.902       19.467        0.033      338.566       11.305      862.385
06/22/2013  06:20:00     -129.514      -13.850       -6.031       53.250       26.050       18.894     2835.552      678.579      356.970        1.044        0.194      130.252       23.020        0.031      338.565       11.302      862.392
06/22/2013  06:21:00      -83.888      -40.432        7.111       36.368       37.466       18.684     1322.616     1403.704      349.091        0.590        0.154       93.124       19.838        0.045      338.606       11.372      862.390
06/22/2013  06:22:00     -130.021      -21.833       -3.486       27.295       25.804       20.075      745.026      665.826      402.991        0.960        0.091      131.841       17.912        0.018      338.601       11.364      862.393
06/22/2013  06:23:00     -115.469       -7.835       -1.170       41.852       33.028       26.250     1751.576     1090.849      689.061        0.846        0.177      115.734       23.939        0.043      338.648       11.442      862.388
06/22/2013  06:24:00     -113.048      -31.587        0.444       41.125       26.826       20.188     1691.251      719.611      407.563        0.830        0.141      117.378       19.242        0.027      338.688       11.511      862.368
06/22/2013  06:25:00      -99.843       -4.537        1.277       53.035       24.639       19.973     2812.717      607.094      398.915        0.690        0.191       99.946       22.497        0.051      338.660       11.464      862.363
06/22/2013  06:26:00     -122.744      -11.831        0.847       58.196       28.702       20.960     3386.723      823.811      439.317        0.993        0.232      123.313       25.655        0.043      338.657       11.457      862.349
06/22/2013  06:27:00     -145.591      -37.697       -4.550       40.783       38.572       21.161     1663.274     1487.810      447.785        1.312        0.180      150.392       20.485        0.019      338.642       11.432      862.334
06/22/2013  06:28:00     -136.724      -31.209       -1.080       40.710       32.062       21.451     1657.338     1027.968      460.143        1.141        0.157      140.241       18.245        0.017      338.658       11.459      862.329
06/22/2013  06:29:00     -144.123      -39.259       -8.488       35.563       29.284       22.056     1264.743      857.525      486.485        1.250        0.130      149.375       19.747        0.017      338.712       11.552      862.311
06/22/2013  06:30:00      -84.804      -56.397        6.172       52.867       35.203       19.448     2794.900     1239.220      378.218        0.741        0.221      101.844       24.874        0.060      338.778       11.661      862.312
06/22/2013  06:31:00     -156.407      -69.364       -2.523       41.123       26.205       23.706     1691.113      686.677      561.968        1.611        0.147      171.097       22.136        0.017      338.808       11.711      862.297
06/22/2013  06:32:00     -129.831      -46.898        0.712       36.565       32.177       26.202     1336.963     1035.343      686.538        1.106        0.153      138.042       20.892        0.023      338.839       11.763      862.299
06/22/2013  06:33:00     -118.991      -45.522       -2.505       35.443       27.911       17.679     1256.238      779.048      312.538        0.929        0.117      127.402       19.556        0.024      338.883       11.836      862.295
06/22/2013  06:34:00     -101.839      -27.709       -3.197       31.484       34.717       17.580      991.223     1205.279      309.055        0.683        0.125      105.541       14.459        0.019      338.902       11.869      862.297
06/22/2013  06:35:00     -117.983        7.463       -7.717       39.428       26.416       16.187     1554.596      697.790      262.020        0.827        0.126      118.219       13.865        0.014      338.807       11.709      862.293
06/22/2013  06:36:00     -127.195      -36.575       -3.477       26.852       17.993       17.485      721.026      323.736      305.715        0.944        0.068      132.349       15.528        0.014      338.936       11.929      862.293
06/22/2013  06:37:00     -104.883      -14.850       -7.102       32.405       18.075       15.849     1050.068      326.711      251.192        0.645        0.081      105.929       14.386        0.018      338.967       11.979      862.293
06/22/2013  06:38:00      -82.900       -5.188       -3.365       30.174       32.442       18.036      910.472     1052.504      325.296        0.460        0.114       83.062       18.271        0.048      338.933       11.921      862.305
06/22/2013  06:39:00      -95.839       10.595       -2.955       28.289       22.848       12.398      800.257      522.029      153.709        0.539        0.074       96.423       11.248        0.014      338.967       11.979      862.329
06/22/2013  06:40:00      -99.858      -22.041       -3.835       24.986       24.088       15.625      624.294      580.208      244.151        0.596        0.072      102.261       11.706        0.013      339.079       12.166      862.340
06/22/2013  06:41:00      -82.814      -38.103        4.638       27.509       21.323       13.290      756.771      454.680      176.613        0.486        0.069       91.159       14.083        0.024      339.199       12.367      862.358
06/22/2013  06:42:00      -87.200      -28.412        2.163       23.233       24.870       16.488      539.759      618.502      271.849        0.492        0.072       91.712       15.796        0.030      339.230       12.423      862.378
06/22/2013  06:43:00      -45.547      -11.097        8.910       29.167       22.698       18.339      850.719      515.198      336.333        0.199        0.085       46.879       17.189        0.134      339.304       12.546      862.392
06/22/2013  06:44:00      -77.102      -24.369       -1.783       26.317       19.208       15.703      692.599      368.948      246.570        0.392        0.065       80.862       15.197        0.035      339.305       12.545      862.394
06/22/2013  06:45:00      -77.631      -30.347       -1.302       17.837       18.032       13.203      318.145      325.147      174.330        0.388        0.041       83.351       10.572        0.016      339.350       12.624      862.402
06/22/2013  06:46:00      -69.561       -6.189       -3.844       20.190       13.175        7.411      407.640      173.583       54.917        0.276        0.032       69.835        5.057        0.005      339.299       12.536      862.403
06/22/2013  06:47:00      -42.179      -12.101        5.207       25.076       24.180       13.857      628.797      584.661      192.012        0.168        0.070       43.881       12.616        0.083      339.364       12.646      862.399
06/22/2013  06:48:00      -61.641      -33.834       -0.566       29.319       17.016       11.074      859.616      289.547      122.640        0.311        0.064       70.316       14.109        0.040      339.371       12.659      862.397
06/22/2013  06:49:00      -24.432      -47.663       -3.880       28.450       26.910       16.291      809.394      724.148      265.383        0.234        0.090       53.561       11.200        0.044      339.466       12.818      862.389
06/22/2013  06:50:00      -51.861      -64.818       -1.245       35.146       43.683       16.970     1235.250     1908.231      287.966        0.516        0.172       83.012       15.853        0.036      339.394       12.696      862.380
06/22/2013  06:51:00      -65.425      -61.581       -4.172       20.705       20.557       12.053      428.684      422.600      145.270        0.454        0.050       89.848        7.997        0.008      339.409       12.723      862.375
06/22/2013  06:52:00      -70.490      -62.916        0.825       27.995       27.601       20.180      783.737      761.816      407.250        0.544        0.098       94.484       16.421        0.030      339.409       12.722      862.366
06/22/2013  06:53:00      -66.081      -70.774       -9.768       30.749       28.899       20.785      945.515      835.155      431.997        0.584        0.111       96.828       14.525        0.023      339.418       12.738      862.375
06/22/2013  06:54:00      -86.476      -71.786      -10.522       32.518       25.383       16.700     1057.427      644.289      278.888        0.736        0.099      112.389        9.709        0.007      339.415       12.732      862.384
06/22/2013  06:55:00      -57.343      -46.959        0.820       36.224       31.417       22.716     1312.161      987.001      516.004        0.415        0.141       74.117       23.585        0.101      339.512       12.896      862.386
06/22/2013  06:56:00      -70.966      -65.482       -1.894       32.984       27.572       14.992     1087.937      760.198      224.775        0.570        0.104       96.561       13.394        0.019      339.463       12.813      862.393
06/22/2013  06:57:00      -64.841      -84.124       -1.705       27.838       21.671       22.443      774.929      469.626      503.682        0.652        0.087      106.213       19.603        0.034      339.457       12.802      862.404
06/22/2013  06:58:00      -71.281      -81.311       -2.080       36.628       33.144       21.153     1341.623     1098.503      447.443        0.729        0.144      108.131       19.794        0.034      339.486       12.852      862.412
06/22/2013  06:59:00      -52.052      -67.557        0.338       19.734       23.404       14.961      389.449      547.729      223.820        0.422        0.058       85.284        6.399        0.006      339.513       12.897      862.427
06/22/2013  07:00:00      -59.824      -70.924       -3.849       33.971       25.880       23.686     1154.014      669.749      561.006        0.550        0.119       92.786       23.863        0.066      339.593       13.034      862.447
06/22/2013  07:01:00      -67.303      -87.519       -6.518       24.338       29.519       17.672      592.344      871.357      312.317        0.700        0.089      110.405        9.010        0.007      339.518       12.907      862.453
06/22/2013  07:02:00      -19.808      -59.980       -4.235       20.663       27.957       17.139      426.941      781.583      293.743        0.275        0.075       63.166        5.827        0.009      339.584       13.018      862.465
06/22/2013  07:03:00      -21.461      -20.951       13.597       19.889       20.784       15.965      395.559      431.977      254.887        0.108        0.054       29.992       14.545        0.235      339.698       13.211      862.468
06/22/2013  07:04:00      -50.524      -90.695       -1.891       21.310       32.228       18.114      454.131     1038.649      328.107        0.630        0.091      103.819       13.785        0.018      339.559       12.976      862.478
06/22/2013  07:05:00      -39.423      -63.607        0.715       35.391       36.131       27.266     1252.493     1305.431      743.457        0.445        0.165       74.834       20.824        0.077      339.535       12.934      862.483
06/22/2013  07:06:00      -41.704      -42.637        2.652       27.887       26.253       19.496      777.708      689.206      380.098        0.271        0.092       59.642       11.822        0.039      339.617       13.072      862.488
06/22/2013  07:07:00      -58.336      -52.309       -4.142       39.437       38.581       25.415     1555.304     1488.494      645.920        0.492        0.184       78.354       19.296        0.061      339.612       13.065      862.505
06/22/2013  07:08:00      -61.382      -51.976       -3.290       38.684       35.262       20.347     1496.434     1243.418      414.006        0.482        0.158       80.431       14.901        0.034      339.606       13.056      862.516
06/22/2013  07:09:00      -74.569      -60.994       -3.438       38.876       40.516       24.939     1511.350     1641.572      621.950        0.653        0.189       96.337       20.845        0.047      339.610       13.063      862.523
06/22/2013  07:10:00      -83.963      -54.220        6.248       48.416       29.248       25.868     2344.064      855.470      669.148        0.695        0.193       99.948       26.493        0.070      339.681       13.181      862.522
06/22/2013  07:11:00      -69.713      -65.103       -7.423       44.770       35.061       21.114     2004.316     1229.286      445.792        0.642        0.184       95.385       14.444        0.023      339.616       13.072      862.523
06/22/2013  07:12:00      -58.943      -32.654        3.989       43.662       42.779       33.656     1906.345     1830.061     1132.722        0.471        0.243       67.384       23.350        0.120      339.742       13.285      862.512
06/22/2013  07:13:00      -51.639      -27.697       12.745       44.230       27.631       23.060     1956.264      763.451      531.757        0.342        0.163       58.598       11.012        0.035      339.765       13.323      862.499
06/22/2013  07:14:00      -79.033      -68.256        2.915       57.866       51.701       31.272     3348.433     2672.969      977.908        0.896        0.350      104.427       36.346        0.121      339.675       13.171      862.498
06/22/2013  07:15:00     -102.881      -89.799       -4.975       51.597       37.585       27.484     2662.233     1412.653      755.344        1.175        0.242      136.559       22.284        0.027      339.613       13.067      862.507
06/22/2013  07:16:00      -70.871      -74.285        0.036       47.041       33.024       24.636     2212.813     1090.587      606.946        0.722        0.196      102.669       16.175        0.025      339.657       13.140      862.517
06/22/2013  07:17:00      -72.365      -49.077       10.586       48.521       43.007       26.927     2354.316     1849.594      725.064        0.634        0.246       87.437       24.187        0.077      339.674       13.170      862.520
06/22/2013  07:18:00      -85.193      -59.054       -7.629       38.465       32.012       26.608     1479.525     1024.742      707.982        0.701        0.161      103.659       14.472        0.019      339.627       13.091      862.531
06/22/2013  07:19:00      -42.496      -28.199       10.927       42.621       25.415       20.540     1816.525      645.898      421.899        0.280        0.144       51.001       12.087        0.056      339.750       13.298      862.545
06/22/2013  07:20:00      -80.675      -46.818       -0.988       54.373       29.800       22.436     2956.464      888.018      503.353        0.652        0.217       93.275       25.725        0.076      339.764       13.321      862.547
06/22/2013  07:21:00      -51.296      -39.516        8.279       29.900       30.610       20.874      894.026      936.966      435.743        0.326        0.113       64.751       14.760        0.052      339.882       13.521      862.551
06/22/2013  07:22:00      -36.063      -29.816        8.725       25.097       30.584       18.745      629.855      935.392      351.362        0.209        0.096       46.793       18.633        0.159      340.092       13.876      862.554
06/22/2013  07:23:00      -49.790      -27.726        2.605       30.545       18.166       17.092      933.023      329.989      292.135        0.240        0.078       56.989       18.544        0.106      340.049       13.801      862.555
06/22/2013  07:24:00      -58.106      -26.971       -2.887       18.672       23.835       12.296      348.634      568.121      151.186        0.259        0.053       64.060       10.150        0.025      339.854       13.473      862.551
06/22/2013  07:25:00      -49.584      -43.805       -1.180       14.774       17.364        8.731      218.280      301.508       76.232        0.249        0.030       66.162        6.917        0.011      339.936       13.611      862.550
06/22/2013  07:26:00      -15.049      -21.264       12.096       21.098       20.470       17.449      445.110      419.030      304.458        0.100        0.058       26.050       16.088        0.381      340.588       14.714      862.551
06/22/2013  07:27:00      -11.905      -21.219       13.052       17.167       25.709       15.497      294.710      660.961      240.154        0.098        0.060       24.331       13.860        0.325      340.552       14.652      862.542
06/22/2013  07:28:00       -9.133       -0.058       14.183       14.620       17.461       21.597      213.753      304.884      466.427        0.063        0.049        9.133       10.697        1.372      340.887       15.218      862.537
06/22/2013  07:29:00       -2.486      -25.993       24.590       31.184       36.441       30.189      972.430     1327.920      911.394        0.225        0.161       26.111       13.291        0.259      340.967       15.354      862.531
06/22/2013  07:30:00       -3.581       28.566       57.612       18.095       32.540       29.734      327.441     1058.846      884.107        0.321        0.114       28.789       27.316        0.900      340.768       15.017      862.538
06/22/2013  07:31:00       -2.720       12.476       47.932       12.024       28.843       18.742      144.585      831.903      351.271        0.189        0.066       12.769       13.739        1.158      341.058       15.507      862.549
06/22/2013  07:32:00        2.457       23.814       61.451       21.772       31.865       20.221      474.024     1015.364      408.903        0.312        0.095       23.940       21.245        0.788      340.890       15.223      862.557
06/22/2013  07:33:00        2.823       -1.709       53.456       17.994       44.939       24.008      323.780     2019.493      576.405        0.289        0.146        3.300       23.776       51.908      340.882       15.209      862.568
06/22/2013  07:34:00       30.489      -34.583       30.822       43.140       65.612       45.092     1861.017     4304.990     2033.248        0.564        0.410       46.104       46.685        1.025      340.986       15.385      862.566
06/22/2013  07:35:00        1.160       34.997       72.674       21.821       30.064       18.760      476.137      903.861      351.950        0.412        0.087       35.016       16.428        0.220      340.930       15.291      862.581
06/22/2013  07:36:00        2.873       -6.303       41.458       31.348       52.762       37.364      982.683     2783.817     1396.044        0.346        0.258        6.927       38.101       30.253      340.873       15.195      862.594
06/22/2013  07:37:00       13.993      -14.904       28.593       27.482       32.854       30.781      755.283     1079.401      947.448        0.201        0.139       20.443       17.983        0.774      341.034       15.467      862.597
06/22/2013  07:38:00       18.360      -63.365       -2.467       54.669       39.471       33.657     2988.738     1557.979     1132.788        0.502        0.284       65.972       29.035        0.194      340.764       15.010      862.606
06/22/2013  07:39:00       24.707      -33.905       19.243       31.404       61.813       34.073      986.215     3820.885     1160.967        0.405        0.298       41.953       31.770        0.573      341.058       15.508      862.608
06/22/2013  07:40:00      -12.357       70.010       95.416       28.610       43.204       26.868      818.522     1866.616      721.897        0.878        0.170       71.092       26.682        0.141      340.962       15.345      862.600
06/22/2013  07:41:00       24.834       60.820       61.160       33.729       34.467       34.528     1137.675     1187.956     1192.149        0.579        0.176       65.695       26.342        0.161      340.654       14.824      862.604
06/22/2013  07:42:00        8.630       20.803       37.921       24.020       31.182       17.836      576.968      972.289      318.134        0.191        0.093       22.522       11.487        0.260      341.161       15.681      862.610
06/22/2013  07:43:00       -6.315       10.468       52.897       11.648       20.826       16.254      135.686      433.725      264.179        0.189        0.042       12.225       12.955        1.123      341.510       16.273      862.618
06/22/2013  07:44:00      -13.261        7.002       44.248       20.019       29.008       19.415      400.741      841.480      376.952        0.190        0.081       14.996       11.525        0.591      341.593       16.414      862.627
06/22/2013  07:45:00        9.099        3.336       56.492       24.727       40.601       22.172      611.424     1648.433      491.613        0.302        0.138        9.691       16.201        2.795      341.569       16.371      862.623
06/22/2013  07:46:00       14.036       73.658       87.126       38.598       41.507       30.442     1489.831     1722.792      926.700        0.868        0.207       74.983       22.812        0.093      341.078       15.542      862.634
06/22/2013  07:47:00       14.532       13.064       33.473       36.183       49.676       28.530     1309.214     2467.669      813.954        0.305        0.230       19.541       24.040        1.513      341.153       15.669      862.641
06/22/2013  07:48:00       14.168      -35.640       14.220       24.176       36.955       22.851      584.498     1365.683      522.175        0.207        0.124       38.353       23.730        0.383      341.429       16.136      862.641
06/22/2013  07:49:00      -17.305       -1.841       19.134       18.975       19.672       17.283      360.033      387.004      298.712        0.086        0.052       17.403       15.389        0.782      341.431       16.140      862.641
06/22/2013  07:50:00       -8.633      -12.458       20.979       26.429       30.930       29.699      698.491      956.675      882.002        0.160        0.127       15.157       23.499        2.404      341.326       15.961      862.633
06/22/2013  07:51:00       22.241      -26.553       21.595       46.010       51.910       42.429     2116.956     2694.614     1800.207        0.414        0.331       34.637       35.156        1.030      341.424       16.129      862.625
06/22/2013  07:52:00       15.333      -54.774        4.275       34.784       47.564       40.351     1209.919     2262.294     1628.175        0.418        0.255       56.880       15.880        0.078      341.323       15.956      862.609
06/22/2013  07:53:00       -0.877      -56.789       -6.087       60.018       45.141       32.480     3602.200     2037.749     1054.933        0.498        0.335       56.796       29.250        0.265      341.170       15.697      862.585
06/22/2013  07:54:00       21.789      -77.087      -11.613       40.133       45.743       23.194     1610.657     2092.438      537.960        0.540        0.212       80.107       24.948        0.097      340.966       15.352      862.579
06/22/2013  07:55:00       -2.276      -21.454       18.709       23.345       33.177       30.160      544.976     1100.737      909.652        0.168        0.128       21.575       17.589        0.665      341.664       16.536      862.561
06/22/2013  07:56:00       19.668       12.263       34.549       33.281       21.260       18.500     1107.643      451.970      342.244        0.182        0.095       23.178       15.594        0.453      341.583       16.398      862.550
06/22/2013  07:57:00        6.509       21.644       38.795       17.616       19.796       20.071      310.340      391.875      402.841        0.156        0.055       22.601       15.358        0.462      341.707       16.607      862.557
06/22/2013  07:58:00       -8.293      -28.008       20.633       22.762       26.722       21.889      518.122      714.059      479.123        0.149        0.086       29.210       19.086        0.427      341.444       16.162      862.555
06/22/2013  07:59:00        5.439      -70.353        0.871       42.640       61.498       34.742     1818.161     3782.014     1206.985        0.589        0.340       70.563       24.764        0.123      341.131       15.630      862.556
06/22/2013  08:00:00       20.213        6.299       56.267       38.950       48.605       22.830     1517.072     2362.448      521.194        0.401        0.220       21.171       14.836        0.491      341.581       16.393      862.560
06/22/2013  08:01:00      -10.929       31.494       56.516       22.592       26.271       25.069      510.382      690.165      628.456        0.307        0.091       33.336       16.927        0.258      341.964       17.041      862.568
06/22/2013  08:02:00       -1.179       -9.857       47.947       26.034       46.157       31.168      677.790     2130.460      971.418        0.309        0.189        9.927       31.168        9.858      341.786       16.742      862.586
06/22/2013  08:03:00       -5.990       -4.140       30.813       23.265       18.282       20.255      541.256      334.232      410.280        0.114        0.064        7.281       15.584        4.581      342.230       17.496      862.604
06/22/2013  08:04:00       67.840       38.453       23.821       61.948       38.052       39.726     3837.559     1447.933     1578.150        0.675        0.343       77.980       33.992        0.190      341.836       16.826      862.620
06/22/2013  08:05:00       54.072       83.291       34.294       44.700       44.977       45.935     1998.098     2022.930     2110.067        0.858        0.307       99.303       24.044        0.059      341.495       16.247      862.646
06/22/2013  08:06:00       44.688       57.641        9.205       73.021       33.167       32.435     5332.137     1100.034     1052.056        0.644        0.374       72.935       22.566        0.096      341.262       15.854      862.656
06/22/2013  08:07:00       40.797      -12.534       27.435       35.001       47.195       33.335     1225.093     2227.359     1111.215        0.357        0.228       42.679       23.764        0.310      341.500       16.255      862.665
06/22/2013  08:08:00       29.250       -0.267       23.422       32.864       27.911       28.752     1080.019      779.032      826.698        0.204        0.134       29.251       18.566        0.403      341.638       16.489      862.668
06/22/2013  08:09:00       37.930       -6.179       27.112       35.677       40.055       28.665     1272.867     1604.422      821.685        0.295        0.185       38.430       26.346        0.470      341.467       16.199      862.668
06/22/2013  08:10:00       20.287       51.827       79.174       42.939       45.571       30.595     1843.786     2076.736      936.072        0.711        0.243       55.656       29.052        0.272      341.742       16.666      862.667
06/22/2013  08:11:00       35.934       76.238      103.247       61.804       76.954       57.435     3819.789     5921.962     3298.776        1.540        0.652       84.282       65.026        0.595      341.561       16.358      862.669
06/22/2013  08:12:00       63.010      -26.629       62.024       49.644       90.117       37.069     2464.531     8121.138     1374.093        1.024        0.598       68.406       43.215        0.399      341.545       16.331      862.684
06/22/2013  08:13:00      104.105       42.619       74.344       70.323       53.444       44.964     4945.315     2856.223     2021.720        1.400        0.491      112.491       40.103        0.127      341.511       16.274      862.687
06/22/2013  08:14:00       98.425       -0.272       56.634       49.628       33.967       35.656     2462.973     1153.764     1271.350        0.889        0.244       98.426       31.691        0.104      341.298       15.913      862.712
06/22/2013  08:15:00       69.633       46.666       64.747       54.413       50.689       29.487     2960.746     2569.337      869.511        0.881        0.320       83.824       30.580        0.133      341.471       16.206      862.714
06/22/2013  08:16:00       36.351      -16.123       38.777       54.341       91.124       66.143     2952.984     8303.656     4374.834        0.936        0.782       39.766       69.195        3.028      341.761       16.698      862.717
06/22/2013  08:17:00       26.485       -4.582       76.531       42.383       47.728       38.657     1796.356     2277.966     1494.358        0.607        0.278       26.878       23.228        0.747      342.129       17.323      862.717
06/22/2013  08:18:00       16.043       19.467       82.471       39.277       54.229       35.223     1542.650     2940.756     1240.675        0.658        0.286       25.226       24.049        0.909      342.052       17.192      862.723
06/22/2013  08:19:00       33.313       56.073       79.123       54.748       60.314       46.513     2997.348     3637.811     2163.439        0.965        0.440       65.222       45.409        0.485      341.662       16.531      862.724
06/22/2013  08:20:00       65.964      -99.551      -16.764       60.454       82.975       42.667     3654.670     6884.872     1820.498        1.345        0.618      119.422       49.124        0.169      341.582       16.395      862.717
06/22/2013  08:21:00       68.611     -112.251      -16.746       44.018       38.991       25.202     1937.601     1520.281      635.120        1.084        0.205      131.559       26.993        0.042      341.358       16.015      862.712
06/22/2013  08:22:00       21.019      -42.018       30.203       33.354       49.396       42.511     1112.508     2440.006     1807.173        0.424        0.268       46.982       36.215        0.594      341.718       16.627      862.709
06/22/2013  08:23:00      -15.341       -5.866       44.778       21.584       36.487       16.747      465.860     1331.320      280.457        0.218        0.104       16.424       15.538        0.895      342.099       17.271      862.699
06/22/2013  08:24:00        6.673      -14.346       45.432       30.238       39.423       24.030      914.312     1554.201      577.443        0.268        0.152       15.822       19.951        1.590      342.093       17.262      862.691
06/22/2013  08:25:00       54.650       38.738       33.196       39.926       32.259       29.540     1594.073     1040.666      872.599        0.455        0.175       66.987       18.965        0.080      341.632       16.480      862.677
06/22/2013  08:26:00       24.047       -3.996       31.346       26.342       40.099       36.135      693.913     1607.938     1305.737        0.259        0.180       24.377       28.157        1.334      341.919       16.967      862.663
06/22/2013  08:27:00       32.517      -53.548       18.302       31.206       74.554       35.372      973.828     5558.361     1251.188        0.602        0.389       62.647       43.586        0.484      341.482       16.227      862.661
06/22/2013  08:28:00       12.991      -47.504       17.463       26.426       44.294       29.071      698.310     1961.957      845.115        0.312        0.175       49.248       23.931        0.236      341.759       16.697      862.653
06/22/2013  08:29:00       -2.712      -10.439       19.669       22.230       22.973       20.152      494.155      527.746      406.103        0.097        0.071       10.785       12.260        1.292      342.203       17.450      862.648
06/22/2013  08:30:00       20.087       17.547       35.323       38.389       29.894       29.255     1473.690      893.674      855.849        0.259        0.161       26.672       25.520        0.915      342.376       17.745      862.646
06/22/2013  08:31:00       42.036       52.641       65.324       48.513       48.583       41.036     2353.541     2360.349     1683.976        0.760        0.320       67.365       37.399        0.308      341.870       16.883      862.646
06/22/2013  08:32:00       39.738       98.680       99.493       49.711       58.400       45.471     2471.177     3410.589     2067.570        1.458        0.397      106.381       27.165        0.065      341.897       16.927      862.635
06/22/2013  08:33:00       90.301       88.376       61.584       56.134       35.105       48.102     3151.037     1232.389     2313.850        1.323        0.335      126.351       28.188        0.050      341.662       16.530      862.632
06/22/2013  08:34:00       24.183       86.897      104.213       63.813       63.008       43.128     4072.043     3970.046     1860.044        1.445        0.495       90.199       43.790        0.236      342.023       17.143      862.614
06/22/2013  08:35:00      119.031      111.105       69.380       39.652       33.157       37.000     1572.319     1099.409     1369.031        1.768        0.202      162.827       24.809        0.023      341.670       16.543      862.614
06/22/2013  08:36:00       50.009       69.193       94.688       47.625       46.759       42.857     2268.106     2186.383     1836.730        1.127        0.315       85.373       15.456        0.033      342.322       17.650      862.606
06/22/2013  08:37:00       68.073       16.734       55.650       71.748       64.417       44.132     5147.738     4149.561     1947.592        0.963        0.562       70.100       36.696        0.274      342.346       17.691      862.600
06/22/2013  08:38:00      103.002      103.176       78.829       72.668       44.172       48.998     5280.670     1951.179     2400.844        1.855        0.482      145.790       43.854        0.090      342.028       17.150      862.603
06/22/2013  08:39:00       71.058       75.732       56.740       46.582       34.155       39.964     2169.878     1166.566     1597.126        0.947        0.247      103.849       16.852        0.026      341.682       16.564      862.604
06/22/2013  08:40:00      174.334      118.634       79.078       97.269       74.500       59.399     9461.261     5550.196     3528.254        3.463        0.927      210.871       46.559        0.049      341.642       16.493      862.599
06/22/2013  08:41:00      177.106      131.165       79.832       97.297       74.398       77.852     9466.782     5535.069     6060.878        3.800        1.053      220.388       56.042        0.065      341.712       16.612      862.586
06/22/2013  08:42:00      134.059      136.135      106.046       87.320       99.739       83.445     7624.744     9947.795     6963.151        3.614        1.227      191.062       75.392        0.156      341.810       16.778      862.595
06/22/2013  08:43:00      101.855      111.268       85.636      107.323       68.540       51.047    11518.265     4697.682     2605.776        2.445        0.941      150.848       22.443        0.022      341.820       16.797      862.586
06/22/2013  08:44:00       48.475       62.363       25.640       46.255       47.440       41.602     2139.547     2250.593     1730.744        0.651        0.306       78.987       21.309        0.073      342.133       17.330      862.602
06/22/2013  08:45:00      111.410       69.605       28.355       93.533       45.611       40.664     8748.504     2080.346     1653.555        1.527        0.624      131.366       38.010        0.084      342.218       17.473      862.607
06/22/2013  08:46:00      154.125      114.918       42.461       91.512       61.988       45.888     8374.459     3842.459     2105.674        2.654        0.716      192.252       49.384        0.066      341.908       16.945      862.617
06/22/2013  08:47:00       74.016       74.843       -0.083       46.904       39.590       42.764     2199.969     1567.367     1828.751        0.834        0.280      105.261       23.480        0.050      341.836       16.825      862.614
06/22/2013  08:48:00       20.464       -2.712       15.505       37.034       46.893       35.168     1371.545     2198.907     1236.771        0.274        0.240       20.643       18.902        0.838      342.152       17.362      862.611
06/22/2013  08:49:00      153.024      108.382       40.913       73.226       42.402       46.880     5361.975     1797.920     2197.780        2.310        0.468      187.518       40.814        0.047      341.970       17.050      862.616
06/22/2013  08:50:00      104.926       84.608       22.476       68.872       46.068       43.784     4743.322     2122.266     1917.002        1.373        0.439      134.789       31.490        0.055      342.248       17.523      862.623
06/22/2013  08:51:00      173.738      137.265       18.597       84.006       57.958       50.967     7056.940     3359.133     2597.684        3.119        0.651      221.419       38.897        0.031      342.090       17.252      862.626
06/22/2013  08:52:00      109.821       93.559       79.642       88.342       91.707       43.186     7804.239     8410.168     1865.036        2.261        0.904      144.271       31.027        0.046      342.101       17.272      862.621
06/22/2013  08:53:00      122.690       94.210       21.907       93.486       75.092       62.876     8739.572     5638.808     3953.349        2.137        0.917      154.687       17.040        0.012      342.163       17.379      862.612
06/22/2013  08:54:00      195.649      131.014       55.359       83.338       53.124       53.915     6945.220     2822.142     2906.812        3.559        0.634      235.463       43.973        0.035      341.996       17.092      862.609
06/22/2013  08:55:00       65.535       53.656       79.602       87.770       71.557       49.943     7703.616     5120.427     2494.276        1.441        0.766       84.698       46.499        0.301      342.417       17.812      862.596
06/22/2013  08:56:00       76.506       97.328       95.216       74.825       73.205       53.916     5598.837     5358.969     2906.935        1.913        0.693      123.798       38.008        0.094      342.039       17.169      862.585
06/22/2013  08:57:00       68.871      -20.554       45.303       80.094      124.892       57.396     6415.063    15598.047     3294.259        1.626        1.265       71.873       59.486        0.685      342.203       17.448      862.579
06/22/2013  08:58:00       93.502      -46.054       30.415       70.796       77.943       56.567     5012.103     6075.080     3199.864        1.304        0.714      104.229       47.294        0.206      342.277       17.574      862.571
06/22/2013  08:59:00       39.159       73.229       96.125       70.165       66.886       49.499     4923.061     4473.771     2450.124        1.399        0.592       83.042       42.445        0.261      342.283       17.583      862.569
06/22/2013  09:00:00      112.592      109.824       46.698       57.726       50.737       51.064     3332.340     2574.220     2607.516        1.771        0.426      157.284       26.896        0.029      342.024       17.143      862.579
06/22/2013  09:01:00      105.913       75.826       15.189       87.471       49.898       49.274     7651.157     2489.854     2427.911        1.488        0.628      130.258       48.004        0.136      342.432       17.834      862.573
06/22/2013  09:02:00      159.180      106.517       17.273       82.183       44.831       51.294     6754.034     2009.848     2631.068        2.419        0.570      191.531       36.176        0.036      342.044       17.177      862.579
06/22/2013  09:03:00      201.758       96.887       24.482       68.446       51.726       49.144     4684.891     2675.540     2415.158        3.023        0.489      223.815       22.665        0.010      342.345       17.686      862.566
06/22/2013  09:04:00       97.371       86.410       43.539       74.232       81.202       50.177     5510.406     6593.699     2517.707        1.673        0.731      130.184       40.258        0.096      342.117       17.301      862.561
06/22/2013  09:05:00       46.876      -74.553       21.916       51.982       66.932       45.233     2702.138     4479.915     2046.011        0.873        0.461       88.065       31.548        0.128      342.401       17.786      862.560
06/22/2013  09:06:00       29.334      -12.383       16.558       29.320       50.679       38.083      859.667     2568.349     1450.319        0.308        0.244       31.840       20.629        0.420      342.550       18.038      862.558
06/22/2013  09:07:00       33.539      -45.629       12.419       46.266       45.624       31.840     2140.571     2081.568     1013.786        0.430        0.262       56.630       25.717        0.206      342.249       17.528      862.557
06/22/2013  09:08:00        5.141      -40.763       28.011       22.441       57.492       32.768      503.589     3305.330     1073.733        0.368        0.244       41.086       16.834        0.168      342.540       18.020      862.548
06/22/2013  09:09:00       89.401       69.200       22.654       44.109       31.306       29.592     1945.595      980.058      875.688        0.855        0.190      113.054       14.022        0.015      342.245       17.520      862.557
06/22/2013  09:10:00       23.296       58.548       80.727       43.107       74.295       53.011     1858.176     5519.728     2810.188        1.034        0.509       63.013       52.554        0.696      342.376       17.742      862.544
06/22/2013  09:11:00       79.658      101.406       90.634       97.507       88.551       66.180     9507.704     7841.353     4379.744        2.328        1.086      128.952       63.252        0.241      342.145       17.348      862.544
06/22/2013  09:12:00      111.483       57.095       51.950      106.703      110.135       60.181    11385.455    12129.771     3621.758        2.276        1.357      125.253       52.924        0.179      342.141       17.341      862.542
06/22/2013  09:13:00       95.528       61.698       51.595       55.838       77.673       38.858     3117.910     6033.166     1509.934        1.313        0.533      113.720       18.254        0.026      342.249       17.527      862.535
06/22/2013  09:14:00      200.596       82.611       38.680      121.603       67.640       58.640    14787.210     4575.141     3438.626        3.568        1.140      216.941       19.806        0.008      342.219       17.475      862.521
06/22/2013  09:15:00       54.369       55.133       76.570       65.519       66.605       38.888     4292.698     4436.203     1512.280        1.105        0.512       77.431       26.673        0.119      342.354       17.705      862.521
06/22/2013  09:16:00      212.448      130.284       45.859       78.991       47.085       52.906     6239.522     2216.995     2799.038        3.773        0.563      249.214       37.821        0.023      342.088       17.250      862.512
06/22/2013  09:17:00      170.974       67.468       52.744       97.581       82.278       75.275     9522.035     6769.691     5666.261        2.926        1.098      183.805       36.409        0.039      342.461       17.884      862.495
06/22/2013  09:18:00      193.280      143.065       39.090       76.481       50.621       43.376     5849.275     2562.499     1881.444        3.482        0.515      240.467       42.802        0.032      342.220       17.473      862.506
06/22/2013  09:19:00      139.362      102.161        9.337       45.894       25.527       25.307     2106.244      651.646      640.419        1.667        0.170      172.797       17.409        0.010      341.917       16.962      862.517
06/22/2013  09:20:00       35.848       86.447       -2.591       39.968       57.402       28.778     1597.422     3295.003      828.147        0.724        0.286       93.585       30.581        0.107      342.257       17.542      862.507
06/22/2013  09:21:00      133.010       95.497       63.968       65.432       47.659       47.533     4281.396     2271.339     2259.375        1.986        0.441      163.741       33.596        0.042      342.171       17.392      862.497
06/22/2013  09:22:00       95.156        6.622       34.266       77.456      106.913       49.516     5999.380    11430.435     2451.860        1.507        0.994       95.386       47.725        0.250      342.177       17.402      862.485
06/22/2013  09:23:00       49.395     -154.209        6.447       44.356       68.967       35.476     1967.489     4756.432     1258.562        1.712        0.399      161.927       22.662        0.020      342.099       17.270      862.465
06/22/2013  09:24:00       30.707       26.736       28.430       57.122       44.014       31.694     3262.930     1937.250     1004.531        0.433        0.310       40.715       29.283        0.517      342.987       18.782      862.447
06/22/2013  09:25:00      113.815       58.537       23.734       75.336       61.166       42.299     5675.501     3741.313     1789.194        1.407        0.560      127.986       31.183        0.059      343.052       18.891      862.445
06/22/2013  09:26:00      155.922      107.017       28.812       80.915       52.242       54.594     6547.236     2729.235     2980.505        2.442        0.613      189.114       49.450        0.068      342.419       17.812      862.444
06/22/2013  09:27:00       54.771       -6.353       31.801       55.027       61.423       41.801     3027.979     3772.741     1747.323        0.630        0.427       55.138       35.164        0.407      342.588       18.103      862.439
06/22/2013  09:28:00       50.605       76.664       88.759       89.802       74.387       46.044     8064.371     5533.498     2120.090        1.601        0.786       91.860       44.536        0.235      342.788       18.442      862.419
06/22/2013  09:29:00       68.758       37.260       59.710       83.087       78.765       51.587     6903.516     6203.857     2661.256        1.272        0.788       78.205       47.898        0.375      342.585       18.097      862.413
06/22/2013  09:30:00       98.034      -71.004       -1.796       47.685       43.468       36.141     2273.889     1889.487     1306.171        1.006        0.273      121.046       19.298        0.025      342.008       17.117      862.407
06/22/2013  09:31:00       74.009      -45.191       12.387       56.241       82.599       52.134     3163.041     6822.525     2717.980        1.019        0.635       86.715       42.428        0.239      342.444       17.859      862.373
06/22/2013  09:32:00       23.574      -68.917       10.225       57.010       66.921       44.136     3250.129     4478.474     1947.981        0.754        0.484       72.838       49.183        0.456      342.912       18.654      862.362
06/22/2013  09:33:00       15.123      -85.111       13.250       44.969       44.912       41.188     2022.238     2017.080     1696.430        0.669        0.287       86.445       27.353        0.100      342.640       18.191      862.348
06/22/2013  09:34:00       30.472      -28.273       19.509       34.078       37.798       37.325     1161.294     1428.702     1393.131        0.305        0.199       41.567       28.462        0.469      342.809       18.481      862.350
06/22/2013  09:35:00       10.298       37.245       26.360       66.566       36.844       41.192     4431.036     1357.462     1696.807        0.484        0.374       38.643       22.501        0.339      342.469       17.901      862.342
06/22/2013  09:36:00      -31.709       34.293        8.910       45.508       22.097       28.254     2071.011      488.271      798.282        0.281        0.168       46.706       23.329        0.249      342.655       18.217      862.338
06/22/2013  09:37:00       52.550       76.491        7.545       44.026       29.842       31.895     1938.269      890.524     1017.313        0.626        0.192       92.803       19.962        0.046      342.978       18.765      862.341
06/22/2013  09:38:00       70.431       45.382       11.333       49.044       56.152       37.836     2405.281     3152.998     1431.557        0.707        0.349       83.786       27.022        0.104      342.824       18.504      862.364
06/22/2013  09:39:00       66.983       34.514       18.639       59.611       56.260       28.197     3553.483     3165.241      795.081        0.677        0.376       75.352       20.319        0.073      342.664       18.232      862.352
06/22/2013  09:40:00      153.023      115.121       36.741       81.673       48.969       52.312     6670.402     2397.966     2736.597        2.491        0.590      191.491       46.821        0.060      342.443       17.854      862.348
06/22/2013  09:41:00      122.173       86.860       56.136       59.322       72.193       50.589     3519.156     5211.849     2559.208        1.845        0.565      149.903       29.214        0.038      342.551       18.038      862.335
06/22/2013  09:42:00       41.002       25.044       10.903       40.710       29.801       30.782     1657.265      888.075      947.560        0.296        0.175       48.045       21.712        0.204      342.740       18.361      862.341
06/22/2013  09:43:00       53.320       49.151       13.962       30.146       22.815       30.637      908.760      520.527      938.612        0.391        0.118       72.518       15.233        0.044      342.539       18.019      862.325
06/22/2013  09:44:00       20.123        4.098        4.723       31.215       39.076       21.748      974.407     1526.898      472.995        0.171        0.149       20.536       20.017        0.950      342.784       18.435      862.319
06/22/2013  09:45:00       43.781       30.107       30.229       64.989       46.552       35.990     4223.567     2167.123     1295.314        0.571        0.384       53.134       18.277        0.118      343.390       19.468      862.314
06/22/2013  09:46:00       87.442       16.574       42.128       77.321       76.032       51.919     5978.597     5780.810     2695.624        1.207        0.723       88.999       40.561        0.208      342.751       18.381      862.305
06/22/2013  09:47:00       27.411        0.798       20.152       36.973       54.437       34.205     1366.988     2963.432     1170.000        0.333        0.275       27.423       12.690        0.214      343.105       18.983      862.307
06/22/2013  09:48:00       23.185       22.381       41.365       37.635       62.637       49.061     1416.423     3923.381     2407.019        0.525        0.387       32.225       36.700        1.297      343.445       19.563      862.319
06/22/2013  09:49:00       36.287      -39.431       33.590       54.938       69.183       42.697     3018.227     4786.318     1823.065        0.681        0.481       53.587       33.546        0.392      342.919       18.666      862.307
06/22/2013  09:50:00       36.603      -45.269       20.140       42.980       81.750       46.328     1847.304     6683.050     2146.317        0.723        0.534       58.216       54.871        0.888      343.450       19.571      862.307
06/22/2013  09:51:00       92.726       64.864       32.792       75.614       41.796       49.495     5717.545     1746.919     2449.754        1.190        0.496      113.161       43.826        0.150      342.909       18.649      862.310
06/22/2013  09:52:00      229.988      146.018       33.691       78.144       73.919       59.196     6106.464     5463.974     3504.212        4.521        0.754      272.425       24.700        0.008      342.798       18.454      862.309
06/22/2013  09:53:00      182.429      134.654       25.117       70.433       44.226       49.252     4960.868     1955.949     2425.757        3.069        0.467      226.743       43.537        0.037      342.541       18.020      862.307
06/22/2013  09:54:00      139.584       87.873       23.089       58.235       40.548       48.370     3391.337     1644.111     2339.663        1.756        0.369      164.941       26.413        0.026      342.770       18.411      862.310
06/22/2013  09:55:00       95.091      113.313        6.927       75.468       85.610       52.937     5695.452     7329.090     2802.311        1.888        0.791      147.926       43.970        0.088      343.100       18.973      862.286
06/22/2013  09:56:00       84.790       83.160        0.040       78.204       63.934       51.745     6115.823     4087.501     2677.543        1.349        0.644      118.764       29.255        0.061      342.917       18.662      862.283
06/22/2013  09:57:00       76.215       43.446       15.432       68.074       43.072       37.651     4634.036     1855.192     1417.579        0.792        0.395       87.729       21.820        0.062      342.861       18.567      862.292
06/22/2013  09:58:00       31.349       41.958       14.358       29.011       34.209       27.931      841.661     1170.273      780.145        0.287        0.140       52.376       21.801        0.173      343.021       18.840      862.286
06/22/2013  09:59:00       38.212        1.989       12.686       38.501       67.407       26.271     1482.331     4543.668      690.160        0.417        0.336       38.264       23.185        0.367      342.900       18.635      862.272
06/22/2013  10:00:00       32.256      -66.905       -6.132       50.876       50.713       32.648     2588.397     2571.813     1065.881        0.589        0.311       74.274       22.658        0.093      342.790       18.446      862.257
06/22/2013  10:01:00       96.801      -42.099       23.912       94.431       75.096       68.316     8917.272     5639.426     4667.058        1.547        0.961      105.559       75.577        0.513      343.284       19.288      862.228
06/22/2013  10:02:00       13.576      -43.290       23.232       57.079       79.538       51.668     3258.051     6326.227     2669.624        0.742        0.613       45.369       53.930        1.413      343.350       19.402      862.227
06/22/2013  10:03:00      -54.625      -53.673       16.753       38.401       45.274       37.899     1474.636     2049.730     1436.322        0.555        0.248       76.582       36.330        0.225      343.109       18.991      862.212
06/22/2013  10:04:00      -26.537        3.411       25.581       26.547       29.555       31.712      704.752      873.473     1005.644        0.198        0.129       26.756       26.704        0.996      343.560       19.758      862.201
06/22/2013  10:05:00        9.697       26.695       18.684       40.536       30.152       30.894     1643.148      909.152      954.437        0.233        0.175       28.402       21.468        0.571      343.935       20.398      862.185
06/22/2013  10:06:00       79.818       61.108       17.743      103.573       71.531       45.517    10727.455     5116.648     2071.787        1.416        0.896      100.524       28.954        0.083      343.651       19.913      862.180
06/22/2013  10:07:00       60.411       62.621       10.749       69.707       47.232       36.375     4859.070     2230.836     1323.148        0.805        0.421       87.011       36.601        0.177      343.488       19.634      862.164
06/22/2013  10:08:00       83.854       68.748       29.661       47.805       39.450       42.862     2285.277     1556.283     1837.136        0.916        0.284      108.433       10.355        0.009      343.161       19.078      862.157
06/22/2013  10:09:00       26.884       39.374       28.264       40.741       56.782       52.053     1659.809     3224.184     2709.530        0.533        0.380       47.677       39.551        0.688      343.163       19.083      862.145
06/22/2013  10:10:00       16.824      -16.437       24.285       29.510       29.390       33.566      870.868      863.780     1126.695        0.200        0.143       23.521       22.381        0.905      343.434       19.543      862.141
06/22/2013  10:11:00      107.218       81.205       51.049       86.660       48.363       52.389     7510.007     2338.994     2744.631        1.664        0.630      134.499       35.936        0.071      343.329       19.364      862.134
06/22/2013  10:12:00      100.394       98.721       69.431      127.054       62.841       49.257    16142.645     3949.002     2426.216        2.358        1.126      140.801       48.708        0.120      343.252       19.228      862.126
06/22/2013  10:13:00      103.803       12.179       41.767      111.204       96.208       61.291    12366.417     9255.993     3756.605        1.902        1.269      104.515       54.096        0.268      343.538       19.720      862.113
06/22/2013  10:14:00      113.040     -140.421        6.487       63.555       91.449       51.681     4039.235     8362.918     2670.896        2.380        0.754      180.267       48.078        0.071      343.187       19.120      862.126
06/22/2013  10:15:00       64.487      -83.360       22.538       40.425       68.462       34.567     1634.176     4687.016     1194.909        0.956        0.376      105.392       42.358        0.162      343.317       19.346      862.118
06/22/2013  10:16:00       15.173       17.319       21.819       28.299       40.709       23.137      800.808     1657.236      535.342        0.200        0.150       23.026       16.056        0.486      343.327       19.362      862.096
06/22/2013  10:17:00      147.876       89.063       41.212       59.447       42.511       44.677     3533.984     1807.170     1996.035        1.942        0.367      172.626       33.007        0.037      342.960       18.734      862.086
06/22/2013  10:18:00       54.248       43.332        5.824       53.672       37.405       36.764     2880.669     1399.142     1351.563        0.524        0.282       69.430       13.826        0.040      343.389       19.466      862.073
06/22/2013  10:19:00       49.377       33.354       21.815       57.254       29.422       26.958     3277.983      865.659      726.752        0.445        0.244       59.587       14.276        0.057      343.786       20.144      862.056
06/22/2013  10:20:00        0.356       44.994       18.219       32.125       49.977       35.876     1031.997     2497.744     1287.093        0.359        0.241       44.996       30.448        0.458      343.962       20.444      862.042
06/22/2013  10:21:00      -42.490       34.004       11.159       35.443       32.208       29.805     1256.211     1037.334      888.317        0.313        0.159       54.421       26.807        0.243      343.617       19.856      862.034
06/22/2013  10:22:00      -39.431       13.738        1.199       30.535       45.525       33.202      932.403     2072.483     1102.347        0.293        0.205       41.756       21.297        0.260      343.336       19.377      862.026
06/22/2013  10:23:00      -49.649      -43.398        5.171       57.698       41.523       33.565     3329.091     1724.133     1126.632        0.528        0.309       65.942       29.331        0.198      343.302       19.319      861.999
06/22/2013  10:24:00      -17.302       -1.262       13.673       43.881       33.598       22.888     1925.555     1128.809      523.870        0.203        0.179       17.348       16.369        0.890      343.740       20.066      861.984
06/22/2013  10:25:00      -32.989      -20.188        9.694       33.011       26.166       21.801     1089.720      684.638      475.290        0.192        0.112       38.676       22.357        0.334      343.604       19.834      861.966
06/22/2013  10:26:00        6.460        1.111       19.049       48.650       30.314       33.469     2366.825      918.960     1120.145        0.241        0.220        6.555       24.520       13.993      343.917       20.368      861.962
06/22/2013  10:27:00       84.738      -49.327       32.277       83.811       87.602       53.179     7024.281     7674.129     2827.966        1.409        0.876       98.049       48.001        0.240      343.536       19.716      861.932
06/22/2013  10:28:00       72.740       12.535       51.675       69.617       86.614       59.764     4846.494     7501.969     3571.717        1.202        0.796       73.812       33.692        0.208      343.849       20.252      861.913
06/22/2013  10:29:00      216.131      129.866       89.462      131.391       90.430       77.809    17263.546     8177.600     6054.175        5.153        1.575      252.146       70.623        0.078      343.526       19.697      861.922
06/22/2013  10:30:00      173.548      100.286       16.318       65.245       52.100       57.259     4256.903     2714.435     3278.601        2.534        0.512      200.440       38.499        0.037      343.348       19.396      861.922
06/22/2013  10:31:00       99.477       82.793       10.648       58.072       44.486       43.698     3372.336     1979.043     1909.536        1.206        0.363      129.424       26.671        0.042      343.305       19.324      861.912
06/22/2013  10:32:00       51.877       83.687       61.389       50.585       47.867       47.042     2558.825     2291.220     2212.920        1.026        0.353       98.462       33.858        0.118      343.662       19.932      861.912
06/22/2013  10:33:00       31.637       79.119       99.124       56.039       57.931       37.080     3140.324     3355.965     1374.905        1.248        0.394       85.210       23.713        0.077      343.915       20.362      861.902
06/22/2013  10:34:00       58.587      -12.790       38.086       79.761       72.230       49.776     6361.758     5217.206     2477.695        0.955        0.703       59.966       36.223        0.365      343.785       20.142      861.904
06/22/2013  10:35:00      160.262       78.610       89.539      125.272      137.117       78.981    15693.193    18801.038     6237.922        4.030        2.037      178.503       76.144        0.182      343.640       19.891      861.892
06/22/2013  10:36:00      116.484       73.165       47.626       93.543       99.070       55.608     8750.233     9814.959     3092.231        2.142        1.083      137.556       43.338        0.099      343.656       19.919      861.894
06/22/2013  10:37:00       61.179      110.284      112.158       77.465       83.464       78.567     6000.757     6966.307     6172.805        2.381        0.957      126.117       60.109        0.227      344.007       20.520      861.908
06/22/2013  10:38:00      110.620       72.743       61.975      126.057      124.381       72.331    15890.450    15470.568     5231.751        2.897        1.830      132.394       66.425        0.252      343.551       19.741      861.920
06/22/2013  10:39:00       56.820      -74.234       15.545       55.960       87.490       49.499     3131.550     7654.577     2450.199        1.111        0.662       93.484       30.976        0.110      343.918       20.367      861.929
06/22/2013  10:40:00       64.048        4.406       53.932      109.667       72.647       52.640    12026.846     5277.588     2770.969        1.355        1.004       64.199       48.368        0.568      344.073       20.633      861.922
06/22/2013  10:41:00       47.857      -64.375       28.159       67.257       79.884       51.559     4523.496     6381.375     2658.344        1.039        0.678       80.215       47.885        0.356      343.607       19.838      861.920
06/22/2013  10:42:00       43.512     -118.938      -27.130       37.338       59.572       29.105     1394.122     3548.857      847.085        1.128        0.290      126.647       17.918        0.020      343.491       19.641      861.923
06/22/2013  10:43:00        0.185       -3.380       30.546       13.456       28.177       20.381      181.071      793.956      415.365        0.117        0.070        3.385       18.911       31.209      344.284       20.994      861.899
06/22/2013  10:44:00        5.643      -35.738       21.161       34.468       51.875       29.218     1188.037     2691.055      853.669        0.324        0.237       36.181       27.160        0.563      343.707       20.009      861.882
06/22/2013  10:45:00       28.339      -11.765       45.613       41.240       67.528       34.862     1700.738     4559.982     1215.376        0.525        0.374       30.684       16.778        0.299      344.079       20.643      861.888
06/22/2013  10:46:00       57.356      -52.370        4.873       39.244       42.646       44.807     1540.111     1818.682     2007.687        0.571        0.268       77.668       26.149        0.113      343.447       19.567      861.892
06/22/2013  10:47:00        4.730       -0.319       40.517       48.840       75.326       53.018     2385.368     5674.081     2810.934        0.627        0.544        4.741       57.189      145.508      344.146       20.758      861.900
06/22/2013  10:48:00       34.070       -5.886       29.396       86.700      104.911       55.927     7516.845    11006.307     3127.839        1.185        1.083       34.575       63.776        3.403      343.598       19.822      861.906
06/22/2013  10:49:00      -74.335      -47.462       19.260       48.649       99.052       39.650     2366.731     9811.324     1572.110        1.095        0.688       88.195       53.189        0.364      343.785       20.142      861.912
06/22/2013  10:50:00      134.118       93.345       48.695       96.650       48.452       55.258     9341.146     2347.578     3053.465        2.190        0.737      163.404       55.314        0.115      343.657       19.922      861.903
06/22/2013  10:51:00      146.840       92.542       79.865      108.212       82.651       63.666    11709.889     6831.152     4053.410        2.955        1.130      173.569       48.393        0.078      343.613       19.846      861.881
06/22/2013  10:52:00      161.046      106.976       20.317       80.612       53.225       53.375     6498.227     2832.899     2848.893        2.498        0.609      193.338       19.529        0.010      343.630       19.875      861.899
06/22/2013  10:53:00      145.192       98.246       23.409       64.956       51.897       55.903     4219.323     2693.342     3125.127        2.066        0.502      175.309       31.480        0.032      343.798       20.161      861.894
06/22/2013  10:54:00      127.225      100.984       15.009       60.577       48.096       40.974     3669.601     2313.179     1678.895        1.713        0.383      162.431       14.598        0.008      343.916       20.364      861.886
06/22/2013  10:55:00      187.587       92.303        7.300       84.012       56.871       51.102     7057.936     3234.257     2611.415        2.833        0.645      209.066       25.054        0.014      343.785       20.139      861.881
06/22/2013  10:56:00      209.920      105.991       26.309       98.466       77.482       57.555     9695.625     6003.448     3312.533        3.750        0.951      235.160       34.710        0.022      343.740       20.060      861.855
06/22/2013  10:57:00       84.734       86.772       98.565      103.747       74.111       64.687    10763.425     5492.417     4184.451        2.243        1.022      121.282       56.693        0.219      344.190       20.832      861.842
06/22/2013  10:58:00      135.000      151.382      129.768      126.360      103.230       78.647    15966.734    10656.341     6185.372        4.539        1.640      202.834       63.656        0.098      343.808       20.178      861.824
06/22/2013  10:59:00       68.190      -11.939       46.987       79.953       89.385       54.783     6392.510     7989.637     3001.150        1.219        0.869       69.228       50.431        0.531      343.765       20.108      861.851
06/22/2013  11:00:00       62.503      -41.360       36.108       63.575      114.653       68.133     4041.793    13145.344     4642.140        1.437        1.091       74.948       64.007        0.729      344.294       21.010      861.872
06/22/2013  11:01:00       32.764       -4.834       39.480       66.289       52.870       49.108     4394.252     2795.223     2411.567        0.613        0.480       33.119       46.104        1.938      344.672       21.658      861.871
06/22/2013  11:02:00      177.809     -124.250        6.684      145.130      105.144       57.801    21062.749    11055.303     3340.966        4.127        1.773      216.920       72.754        0.112      344.019       20.540      861.850
06/22/2013  11:03:00      101.854      -44.671        9.844      115.556       97.648       50.111    13353.193     9535.070     2511.063        1.893        1.270      111.219       47.429        0.182      344.280       20.986      861.849
06/22/2013  11:04:00       50.569       12.043       65.749       76.530       67.051       49.329     5856.870     4495.827     2433.373        0.990        0.639       51.983       42.906        0.681      344.475       21.319      861.862
06/22/2013  11:05:00       70.603      -48.082       45.142       70.065       72.358       50.629     4909.046     5235.745     2563.289        1.102        0.635       85.420       50.931        0.356      344.159       20.781      861.848
06/22/2013  11:06:00       45.290      -19.297       28.646       71.476       75.288       33.542     5108.809     5668.284     1125.087        0.757        0.595       49.229       14.934        0.092      344.334       21.078      861.850
06/22/2013  11:07:00      138.706      148.427      107.027       94.817       93.419      112.897     8990.341     8727.107    12745.645        4.159        1.523      203.150       94.256        0.215      343.987       20.482      861.838
06/22/2013  11:08:00      143.989       83.467       70.792       92.412       74.884       66.302     8539.964     5607.636     4396.017        2.562        0.927      166.432       45.388        0.074      343.902       20.340      861.835
06/22/2013  11:09:00       97.824     -216.886      -17.175       85.583       95.978       50.858     7324.411     9211.824     2586.583        3.801        0.956      237.927       46.533        0.038      344.011       20.525      861.809
06/22/2013  11:10:00        4.998      -71.056       31.740       48.547       86.893       62.707     2356.767     7550.346     3932.216        0.996        0.692       71.231       42.922        0.363      344.600       21.534      861.788
06/22/2013  11:11:00       10.031      -54.154       12.718       35.291       48.414       38.224     1245.430     2343.947     1461.049        0.412        0.253       55.075       28.908        0.275      344.751       21.792      861.791
06/22/2013  11:12:00       99.664       28.945       62.512       75.427      110.914       55.958     5689.244    12301.890     3131.276        1.790        1.056      103.782       49.337        0.226      344.592       21.518      861.768
06/22/2013  11:13:00       75.469       37.432      106.849      109.003       93.412       69.843    11881.583     8725.752     4878.088        2.199        1.274       84.242       70.754        0.705      344.682       21.674      861.772
06/22/2013  11:14:00      172.790      140.100      130.372      112.223       88.724       90.447    12593.981     7872.008     8180.585        4.756        1.432      222.451       70.067        0.099      344.211       20.865      861.754
06/22/2013  11:15:00      115.396       95.089       86.168       85.631       85.079       51.425     7332.698     7238.450     2644.567        2.350        0.861      149.526       36.091        0.058      344.447       21.272      861.756
06/22/2013  11:16:00       66.338       51.019      124.584       99.265      124.485       82.603     9853.593    15496.616     6823.306        2.734        1.609       83.688       90.608        1.172      344.289       21.000      861.778
06/22/2013  11:17:00       98.276     -122.270        6.280       65.840      109.055       56.316     4334.970    11892.962     3171.503        2.202        0.970      156.870       50.921        0.105      343.998       20.504      861.760
06/22/2013  11:18:00       43.300      -11.312       41.702       69.100       75.901       54.554     4774.857     5760.951     2976.111        0.862        0.676       44.753       39.921        0.796      344.410       21.209      861.734
06/22/2013  11:19:00       72.770       63.438       64.979       56.322       48.992       40.382     3172.190     2400.245     1630.700        1.037        0.360       96.539       24.053        0.062      344.421       21.228      861.744
06/22/2013  11:20:00       45.721       10.110       35.673       36.246       65.011       76.671     1313.799     4226.438     5878.380        0.744        0.571       46.826       58.218        1.546      344.250       20.937      861.727
06/22/2013  11:21:00      -19.589        6.305       15.715       45.487       36.886       37.742     2069.047     1360.567     1424.430        0.276        0.243       20.578       26.228        1.624      344.332       21.076      861.694
06/22/2013  11:22:00       67.753      -97.894       -5.501       36.952       64.068       28.396     1365.486     4104.764      806.358        1.024        0.314      119.053       25.761        0.047      343.905       20.346      861.668
06/22/2013  11:23:00       28.714        5.804       12.616       35.563       27.555       34.038     1264.700      759.298     1158.574        0.210        0.159       29.295        8.618        0.087      344.291       21.007      861.645
06/22/2013  11:24:00       68.772       52.127        7.055       53.226       43.200       32.906     2832.988     1866.211     1082.804        0.664        0.289       86.295       20.176        0.055      344.033       20.565      861.628
06/22/2013  11:25:00      166.871       88.297       58.612      151.673       89.974       50.561    23004.650     8095.348     2556.437        3.636        1.683      188.792       30.635        0.026      344.409       21.206      861.620
06/22/2013  11:26:00      191.771      113.861       66.065      118.495      100.517       95.753    14041.159    10103.668     9168.568        4.370        1.666      223.026       76.939        0.119      344.084       20.649      861.597
06/22/2013  11:27:00      133.191       95.243        0.814       73.473       60.385       47.580     5398.285     3646.373     2263.859        1.906        0.565      163.741       32.745        0.040      343.821       20.201      861.595
06/22/2013  11:28:00       66.315       63.062       22.871       52.337       50.554       45.079     2739.201     2555.670     2032.147        0.811        0.366       91.512       27.988        0.094      344.051       20.596      861.572
06/22/2013  11:29:00       57.097       54.953       20.712       58.457       49.861       43.327     3417.242     2486.152     1877.226        0.724        0.389       79.246       31.059        0.154      344.608       21.549      861.564
06/22/2013  11:30:00      109.969       67.857       19.834       63.487       55.804       40.001     4030.547     3114.094     1600.111        1.292        0.437      129.220       24.774        0.037      344.349       21.104      861.557
06/22/2013  11:31:00      152.401       15.639       26.684       96.561       94.418       52.569     9324.013     8914.671     2763.487        2.259        1.050      153.201       50.430        0.108      344.287       20.998      861.553
06/22/2013  11:32:00       76.124       44.780       70.785       99.726       98.849       58.505     9945.261     9771.100     3422.861        1.797        1.157       88.318       48.343        0.300      344.700       21.703      861.520
06/22/2013  11:33:00      163.728       89.665       27.552      120.824       83.548       51.170    14598.439     6980.223     2618.406        2.990        1.210      186.672       35.083        0.035      344.800       21.873      861.507
06/22/2013  11:34:00      136.250       67.967       35.109       95.178       74.650       56.358     9058.888     5572.570     3176.204        2.111        0.890      152.261       48.080        0.100      344.763       21.809      861.511
06/22/2013  11:35:00       49.510       83.910       78.859       79.020      125.255       93.705     6244.120    15688.787     8780.606        2.321        1.536       97.428       91.044        0.873      344.883       22.019      861.503
06/22/2013  11:36:00       64.279       23.765      122.898      110.758      127.729       88.613    12267.401    16314.618     7852.246        2.811        1.822       68.531       89.452        1.704      344.718       21.734      861.478
06/22/2013  11:37:00      126.723       42.763       98.702      109.369      104.669       64.616    11961.624    10955.647     4175.240        2.736        1.355      133.744       54.385        0.165      344.697       21.699      861.485
06/22/2013  11:38:00      122.388      128.785      125.985      113.166       96.263       76.120    12806.496     9266.619     5794.249        3.765        1.393      177.663       76.500        0.185      344.192       20.834      861.490
06/22/2013  11:39:00      257.455      173.170       87.560      137.146       83.151       90.034    18809.155     6914.067     8106.159        6.888        1.691      310.276       69.034        0.050      344.497       21.353      861.491
06/22/2013  11:40:00      114.519       96.040       74.914      117.556       82.056       72.296    13819.326     6733.242     5226.759        2.686        1.289      149.460       68.243        0.208      344.412       21.210      861.523
06/22/2013  11:41:00       25.948       31.692       49.347       47.462       56.062       48.812     2252.628     3142.903     2382.592        0.594        0.389       40.959       36.488        0.794      344.405       21.200      861.519
06/22/2013  11:42:00       66.753       -1.672       32.370       53.093       81.662       30.977     2818.916     6668.753      959.602        0.797        0.522       66.773       35.014        0.275      344.178       20.812      861.501
06/22/2013  11:43:00       23.932       -6.417       29.205       28.976       55.806       32.484      839.612     3114.317     1055.230        0.324        0.250       24.777       34.499        1.939      344.751       21.793      861.495
06/22/2013  11:44:00       46.560       22.165       21.065       55.278       67.572       42.127     3055.664     4565.930     1774.644        0.625        0.470       51.567        9.103        0.031      344.655       21.628      861.478
06/22/2013  11:45:00       56.139       63.399       -2.083       55.581       59.733       36.922     3089.245     3568.013     1363.211        0.760        0.401       84.682       29.532        0.122      344.393       21.180      861.461
06/22/2013  11:46:00      192.044      122.416       47.527      118.617       85.362       93.954    14070.103     7286.727     8827.280        4.215        1.509      227.743       62.402        0.075      344.412       21.208      861.443
06/22/2013  11:47:00      118.323       82.755       87.755       96.954      105.589       73.291     9399.987    11149.140     5371.540        2.723        1.296      144.391       67.060        0.216      344.845       21.952      861.436
06/22/2013  11:48:00      131.486      -18.740       83.071      133.957      108.075       76.991    17944.351    11680.099     5927.596        3.004        1.778      132.815       62.828        0.224      344.804       21.880      861.426
06/22/2013  11:49:00      109.974       42.191       45.781       86.062       98.538       57.919     7406.745     9709.816     3354.647        1.822        1.024      117.790       41.076        0.122      344.846       21.954      861.450
06/22/2013  11:50:00      216.585      150.354        7.405       94.360       68.567       65.711     8903.839     4701.465     4317.903        4.374        0.896      263.658       46.051        0.031      344.421       21.224      861.435
06/22/2013  11:51:00      114.693       82.997       71.676      135.659       70.618       84.747    18403.339     4986.893     7181.988        2.787        1.529      141.573       88.077        0.387      344.534       21.419      861.395
06/22/2013  11:52:00      114.341       88.578       20.833       65.426       62.632       45.496     4280.591     3922.741     2069.844        1.581        0.514      144.637       39.498        0.075      344.825       21.918      861.403
06/22/2013  11:53:00       61.504      -31.123        0.732      135.026      117.875       59.469    18232.104    13894.438     3536.599        2.020        1.783       68.930       57.879        0.705      345.095       22.379      861.381
06/22/2013  11:54:00       92.582       66.824       75.788      103.759       98.530       54.218    10766.024     9708.071     2939.570        2.109        1.171      114.179       33.543        0.086      345.161       22.492      861.351
06/22/2013  11:55:00      132.000       90.123       82.929       74.458       80.470       62.653     5543.999     6475.417     3925.400        2.418        0.797      159.831       45.582        0.081      344.591       21.518      861.383
06/22/2013  11:56:00      121.243       66.973       42.380      127.010       81.794       58.902    16131.651     6690.203     3469.445        2.363        1.315      138.511       49.161        0.126      344.429       21.242      861.379
06/22/2013  11:57:00      135.842      100.999       58.508       72.166       63.722       61.642     5208.000     4060.445     3799.796        2.257        0.653      169.274       37.560        0.049      344.880       22.009      861.365
06/22/2013  11:58:00      161.294      136.690       35.411      101.593       88.762       71.410    10321.154     7878.641     5099.320        3.462        1.165      211.424       59.249        0.079      344.806       21.884      861.346
06/22/2013  11:59:00       91.176       71.154       21.592      100.616       60.694       42.781    10123.643     3683.760     1830.222        1.474        0.782      115.654       17.205        0.022      345.105       22.399      861.324
06/22/2013  12:00:00      171.614      133.938       17.314       95.429       77.789       59.455     9106.694     6051.128     3534.924        3.319        0.935      217.694       41.500        0.036      345.048       22.298      861.328
06/22/2013  12:01:00      127.186      140.316       23.792      116.966       87.841       62.239    13681.105     7716.011     3873.707        3.085        1.264      189.381       54.437        0.083      344.670       21.651      861.327
06/22/2013  12:02:00      -23.122      195.527       -1.641       55.301      124.604       47.267     3058.217    15526.231     2234.186        2.979        1.041      196.889       56.296        0.082      344.930       22.096      861.283
06/22/2013  12:03:00      112.070       68.373       13.735       40.217       42.129       44.750     1617.412     1774.883     2002.570        1.141        0.270      131.280       27.707        0.045      344.617       21.563      861.260
06/22/2013  12:04:00      103.006      100.453       51.256       84.136       60.658       63.347     7078.927     3679.383     4012.824        1.905        0.739      143.879       52.276        0.132      344.580       21.499      861.258
06/22/2013  12:05:00       83.843       68.524       52.450       85.459       67.162       45.289     7303.320     4510.682     2051.084        1.417        0.693      108.283       33.675        0.097      344.836       21.937      861.235
06/22/2013  12:06:00      133.010       87.459       79.906      113.802       60.179       53.890    12950.956     3621.460     2904.101        2.560        0.974      159.187       49.161        0.095      344.938       22.111      861.222
06/22/2013  12:07:00      172.192      128.743       39.470       89.712       56.736       51.684     8048.301     3218.988     2671.196        3.086        0.697      215.000       47.365        0.049      344.664       21.642      861.218
06/22/2013  12:08:00      145.264     -126.704       21.749      108.722      145.400       96.152    11820.454    21141.196     9245.235        3.991        2.110      192.758      101.557        0.278      345.008       22.231      861.198
06/22/2013  12:09:00      164.881      -81.304       20.209      110.293      194.258      112.375    12164.505    37736.268    12628.150        4.835        3.126      183.836      135.510        0.543      344.862       21.980      861.194
06/22/2013  12:10:00       86.448       -2.182       39.812       70.129       81.041       50.924     4918.029     6567.677     2593.285        1.157        0.704       86.475       58.861        0.463      344.564       21.473      861.215
06/22/2013  12:11:00       21.025       13.416       44.723       54.313       85.005       46.656     2949.854     7225.908     2176.800        0.748        0.618       24.941       45.502        3.328      344.721       21.740      861.211
06/22/2013  12:12:00       68.251     -117.480       13.060      115.937      134.983       83.776    13441.405    18220.317     7018.399        2.865        1.934      135.867       90.431        0.443      345.292       22.716      861.176
06/22/2013  12:13:00      152.385     -176.331      -27.061       99.678      118.571       63.735     9935.633    14059.124     4062.098        4.155        1.403      233.053       73.660        0.100      344.775       21.832      861.174
06/22/2013  12:14:00       16.537        0.983       20.940       67.791       80.928       62.058     4595.595     6549.346     3851.246        0.785        0.750       16.566       60.710       13.431      344.767       21.820      861.177
06/22/2013  12:15:00       98.467       73.752       50.600       73.494       46.014       47.120     5401.345     2117.304     2220.335        1.372        0.487      123.025       26.085        0.045      344.827       21.922      861.148
06/22/2013  12:16:00      169.516      134.598       80.629      115.362       77.127       80.080    13308.489     5948.586     6412.770        3.951        1.283      216.454       74.060        0.117      344.947       22.124      861.139
06/22/2013  12:17:00       72.347      143.555      120.353       87.598       64.224       53.322     7673.386     4124.708     2843.237        2.748        0.732      160.755       27.540        0.029      344.700       21.702      861.148
06/22/2013  12:18:00      149.765      117.349       38.359       36.618       25.172       35.471     1340.892      633.612     1258.199        2.045        0.162      190.264       25.421        0.018      344.405       21.199      861.156
06/22/2013  12:19:00       17.791       85.523        6.711       51.645       64.937       40.666     2667.197     4216.863     1653.687        0.811        0.427       87.354       35.665        0.167      345.081       22.357      861.137
06/22/2013  12:20:00       -4.915       43.588       22.193       42.649       51.241       37.459     1818.948     2625.644     1403.197        0.413        0.292       43.865       25.893        0.348      345.541       23.145      861.126
06/22/2013  12:21:00       -8.960       49.498       16.275       38.169       32.697       34.396     1456.889     1069.084     1183.103        0.325        0.185       50.303       25.786        0.263      345.548       23.159      861.121
06/22/2013  12:22:00       21.170       45.587       38.305       30.279       35.415       33.229      916.827     1254.223     1104.194        0.363        0.164       50.263       22.743        0.205      345.798       23.587      861.116
06/22/2013  12:23:00       41.210       38.724       15.718       62.026       50.459       35.162     3847.223     2546.138     1236.343        0.554        0.381       56.549        8.660        0.023      345.429       22.954      861.101
06/22/2013  12:24:00       81.026       30.399      -16.374       32.532       34.698       34.661     1058.344     1203.920     1201.365        0.561        0.173       86.541       20.487        0.056      344.942       22.119      861.093
06/22/2013  12:25:00       65.442     -117.720       -2.134       78.821      110.168       56.385     6212.707    12136.980     3179.252        1.983        1.076      134.687       54.291        0.162      345.144       22.463      861.087
06/22/2013  12:26:00        4.194      -85.898       19.705       67.296       77.648       58.362     4528.691     6029.170     3406.084        1.087        0.698       86.000       41.012        0.227      345.174       22.517      861.065
06/22/2013  12:27:00        1.987        9.914       40.127       45.353       56.699       50.442     2056.861     3214.758     2544.390        0.476        0.391       10.111       43.821       18.781      345.384       22.878      861.069
06/22/2013  12:28:00       33.989        3.240       41.161       81.819       62.440       44.007     6694.383     3898.790     1936.641        0.769        0.626       34.143       43.265        1.606      345.164       22.499      861.067
06/22/2013  12:29:00       -0.144      -33.997       28.075       35.381       46.366       29.616     1251.827     2149.799      877.130        0.311        0.214       33.998       22.968        0.456      345.696       23.411      861.036
06/22/2013  12:30:00      -47.397       -5.171       18.043       43.458       37.615       23.254     1888.557     1414.908      540.752        0.322        0.192       47.679       17.830        0.140      345.687       23.394      861.025
06/22/2013  12:31:00      -52.127      -41.581        1.091       57.810       33.267       18.664     3341.973     1106.720      348.341        0.462        0.240       66.680       21.681        0.106      345.280       22.697      861.012
06/22/2013  12:32:00      -29.263      -16.086       13.048       34.357       45.383       27.096     1180.384     2059.631      734.166        0.263        0.199       33.393       29.765        0.794      346.148       24.189      860.995
06/22/2013  12:33:00      -74.430       -6.382        3.689       60.927       46.062       34.491     3712.129     2121.741     1189.611        0.631        0.351       74.703       26.661        0.127      345.570       23.196      860.990
06/22/2013  12:34:00      -52.667       -8.223        6.394       54.040       42.107       28.711     2920.299     1772.996      824.302        0.420        0.276       53.305       21.856        0.168      345.984       23.905      860.981
06/22/2013  12:35:00      -14.974       11.535       10.210       35.016       33.609       32.024     1226.139     1129.570     1025.567        0.192        0.169       18.902       20.881        1.220      346.257       24.376      860.961
06/22/2013  12:36:00      -13.657      -23.472       22.753       27.492       38.362       28.334      755.837     1471.610      802.820        0.214        0.152       27.156       22.022        0.658      346.077       24.065      860.947
06/22/2013  12:37:00       -3.427      -81.902       -5.102       80.015       73.562       35.918     6402.361     5411.429     1290.100        0.992        0.655       81.973       41.096        0.251      345.742       23.489      860.913
06/22/2013  12:38:00       61.062     -115.919       14.841       71.304      102.689       63.992     5084.295    10545.061     4095.031        1.855        0.986      131.018       53.847        0.169      345.696       23.410      860.911
06/22/2013  12:39:00      186.480     -156.732       15.425      115.508      158.386      102.568    13342.132    25086.099    10520.174        5.425        2.447      243.597      109.942        0.204      345.331       22.782      860.877
06/22/2013  12:40:00      137.750     -147.004       -6.018      117.882      164.530       57.803    13896.141    27070.213     3341.161        4.246        2.215      201.457       95.928        0.227      345.157       22.486      860.911
06/22/2013  12:41:00       48.376      -77.963       44.138       59.505       91.955       54.790     3540.794     8455.781     3001.930        1.268        0.750       91.752       58.979        0.413      345.530       23.125      860.901
06/22/2013  12:42:00       99.286       14.170       92.987      149.658      135.608       87.299    22397.446    18389.528     7621.084        3.355        2.420      100.292      102.853        1.052      345.315       22.756      860.902
06/22/2013  12:43:00       61.790      -90.494       18.919       66.029       93.986       57.239     4359.850     8833.296     3276.292        1.441        0.823      109.578       50.271        0.210      345.332       22.786      860.896
06/22/2013  12:44:00       97.479      -57.887       71.491      109.004      169.799       97.609    11881.904    28831.689     9527.440        3.409        2.512      113.371      122.862        1.174      345.324       22.771      860.866
06/22/2013  12:45:00       33.512       48.468       92.637       76.371       64.378       50.634     5832.596     4144.509     2563.811        1.229        0.627       58.926       32.987        0.313      345.579       23.211      860.872
06/22/2013  12:46:00      -20.143       12.663       26.196       59.326       47.112       37.281     3519.517     2219.526     1389.869        0.419        0.356       23.792       23.086        0.942      345.371       22.854      860.861
06/22/2013  12:47:00      -65.283       68.880       -1.640       29.542       31.905       31.288      872.738     1017.927      978.948        0.594        0.143       94.902       23.816        0.063      345.416       22.933      860.817
06/22/2013  12:48:00       -4.008       25.537       15.582       51.661       21.727       21.392     2668.849      472.056      457.636        0.225        0.180       25.850       18.045        0.487      345.863       23.698      860.807
06/22/2013  12:49:00        8.224       -5.533       40.036       15.710       30.485       12.775      246.810      929.355      163.195        0.152        0.067        9.912       10.561        1.135      346.223       24.318      860.795
06/22/2013  12:50:00       40.230       22.633       40.939       39.073       42.865       31.398     1526.676     1837.373      985.811        0.408        0.217       46.159       23.081        0.250      345.344       22.806      860.776
06/22/2013  12:51:00      206.770       85.568       13.874      117.307       75.857       57.179    13760.996     5754.264     3269.488        3.652        1.139      223.776       36.449        0.027      345.310       22.747      860.741
06/22/2013  12:52:00      135.489       94.806       23.816       76.936       53.505       49.382     5919.094     2862.736     2438.628        1.956        0.561      165.365       33.270        0.040      345.361       22.834      860.738
06/22/2013  12:53:00       22.107        3.774       26.783       59.620       92.783       41.952     3554.529     8608.717     1759.986        0.757        0.696       22.427       26.568        1.403      345.910       23.778      860.726
06/22/2013  12:54:00       57.592      -13.895       52.457       73.726      130.410       51.033     5435.524    17006.864     2604.365        1.565        1.252       59.245       55.833        0.888      345.819       23.621      860.713
06/22/2013  12:55:00       87.292      -73.792       17.017       79.434      114.968       71.612     6309.821    13217.677     5128.219        1.900        1.233      114.303       74.190        0.421      345.526       23.119      860.726
06/22/2013  12:56:00      106.957     -145.156       -3.400       84.547       96.993       49.620     7148.138     9407.617     2462.154        2.577        0.951      180.305       39.791        0.049      345.231       22.612      860.714
06/22/2013  12:57:00       82.546     -126.765        1.103       53.535       54.926       27.219     2865.947     3016.871      740.853        1.475        0.331      151.272       27.545        0.033      345.097       22.384      860.715
06/22/2013  12:58:00       39.312     -127.214      -10.261       34.812       77.311       27.261     1211.856     5976.920      743.184        1.288        0.397      133.150       34.885        0.069      345.068       22.335      860.695
06/22/2013  12:59:00      -80.886       -4.547        5.110       40.956       40.116       22.335     1677.371     1609.291      498.852        0.519        0.189       81.014       17.148        0.045      345.537       23.139      860.673
06/22/2013  13:00:00       88.333       92.770       64.803       73.995       53.046       49.691     5475.237     2813.917     2469.223        1.568        0.538      128.097       38.709        0.091      345.346       22.809      860.692
06/22/2013  13:01:00       56.451       56.222       64.125       54.274       55.305       41.730     2945.677     3058.607     1741.422        0.910        0.387       79.672       15.687        0.039      345.399       22.902      860.676
06/22/2013  13:02:00       63.862      -40.627        1.852       69.469      100.961       41.626     4825.981    10193.203     1732.730        1.124        0.838       75.689       33.057        0.191      345.661       23.351      860.673
06/22/2013  13:03:00       13.392       59.629       22.433       41.982       40.737       38.379     1762.502     1659.479     1472.925        0.457        0.245       61.114       17.170        0.079      345.791       23.574      860.655
06/22/2013  13:04:00      121.875       76.956       16.796       57.955       40.580       35.210     3358.761     1646.763     1239.725        1.365        0.312      144.138       18.617        0.017      345.496       23.066      860.624
06/22/2013  13:05:00      118.022       68.167        4.230       69.069       47.178       31.358     4770.460     2225.785      983.308        1.329        0.399      136.293       27.663        0.041      345.243       22.634      860.618
06/22/2013  13:06:00       26.050       42.172       33.766       46.688       45.891       30.742     2179.780     2106.010      945.089        0.441        0.262       49.569       20.917        0.178      345.435       22.964      860.604
06/22/2013  13:07:00        8.434      -41.085       -0.131       34.112       28.621       25.001     1163.630      819.141      625.036        0.218        0.130       41.942       15.970        0.145      345.134       22.449      860.600
06/22/2013  13:08:00        4.838       -6.897       22.384       25.476       23.287       26.895      649.047      542.279      723.332        0.124        0.096        8.425       21.627        6.590      345.546       23.155      860.596
06/22/2013  13:09:00        8.833       23.979       19.490       27.860       38.099       28.210      776.188     1451.570      795.831        0.203        0.151       25.554       17.736        0.482      345.352       22.822      860.575
06/22/2013  13:10:00       58.492       28.967       36.116       52.860       70.821       39.685     2794.164     5015.645     1574.865        0.747        0.469       65.272       35.408        0.294      345.274       22.687      860.564
06/22/2013  13:11:00      100.256       67.104       79.302      103.874      110.608       63.528    10789.802    12234.226     4035.766        2.395        1.353      120.641       49.786        0.170      345.312       22.751      860.535
06/22/2013  13:12:00      149.032       95.157       62.971       76.725       56.647       54.165     5886.731     3208.891     2933.857        2.363        0.601      176.820       25.432        0.021      345.431       22.955      860.503
06/22/2013  13:13:00       83.616      113.184       81.067      106.168       85.627       82.543    11271.717     7331.997     6813.393        2.589        1.271      140.721       67.625        0.231      345.715       23.441      860.495
06/22/2013  13:14:00       95.774      128.282      -16.812       69.511       71.243       57.542     4831.723     5075.606     3311.096        1.956        0.661      160.091       37.807        0.056      345.504       23.081      860.490
06/22/2013  13:15:00      -65.343        8.596      -31.222       55.843       29.449       23.906     3118.468      867.259      571.487        0.494        0.228       65.906       21.713        0.109      345.428       22.953      860.460
06/22/2013  13:16:00      -52.661       21.490       21.133       80.059       35.881       36.084     6409.376     1287.450     1302.033        0.634        0.450       56.877       39.121        0.473      346.175       24.233      860.415
06/22/2013  13:17:00      -16.259      140.669       -6.285       46.055       75.641       38.744     2121.107     5721.500     1501.136        1.472        0.467      141.606       37.082        0.069      345.882       23.728      860.378
06/22/2013  13:18:00      -71.207       76.236        4.348       49.034       48.521       44.778     2404.313     2354.290     2005.041        0.883        0.338      104.318       31.107        0.089      346.007       23.946      860.359
06/22/2013  13:19:00       -3.807       33.474       14.025       42.726       42.026       34.492     1825.520     1766.174     1189.677        0.306        0.239       33.690       25.252        0.562      346.152       24.196      860.329
06/22/2013  13:20:00        5.551       85.114        3.102       51.440       54.615       33.238     2646.099     2982.748     1104.768        0.701        0.337       85.295       27.844        0.107      346.053       24.025      860.290
06/22/2013  13:21:00       -8.767      188.407        6.014       88.599      165.560       79.864     7849.802    27410.092     6378.204        3.862        2.082      188.611       88.745        0.221      346.341       24.518      860.252
06/22/2013  13:22:00       56.447      154.254      157.682      171.262      156.234      114.674    29330.557    24409.077    13150.111        5.935        3.344      164.257       48.853        0.088      346.463       24.725      860.133
06/22/2013  13:23:00      150.991      145.423       77.841      123.946      100.043       97.461    15362.631    10008.663     9498.692        4.243        1.743      209.633       83.103        0.157      346.307       24.458      860.274
06/22/2013  13:24:00      108.445       52.398       33.422       96.337       76.304       56.642     9280.882     5822.309     3208.267        1.696        0.916      120.440       38.562        0.103      346.260       24.379      860.286
06/22/2013  13:25:00      160.586      142.507      115.309      110.277       84.498       71.585    12161.037     7139.984     5124.411        4.190        1.221      214.700       66.123        0.095      345.620       23.278      860.304
06/22/2013  13:26:00      273.703      163.998       44.625      119.156       81.564       87.672    14198.115     6652.682     7686.460        6.616        1.427      319.075       55.836        0.031      345.885       23.733      860.278
06/22/2013  13:27:00      186.387      123.858        3.669       75.264       83.394       56.611     5664.720     6954.567     3204.814        3.296        0.791      223.788       31.194        0.019      345.789       23.567      860.268
06/22/2013  13:28:00      162.929       58.036       32.641       75.838       65.916       58.147     5751.344     4344.856     3381.094        2.223        0.674      172.957       30.050        0.030      345.857       23.687      860.272
06/22/2013  13:29:00       72.121      -20.596        6.921       67.911       72.395       36.903     4611.941     5241.053     1361.855        0.844        0.561       75.004       33.966        0.205      345.585       23.222      860.297
06/22/2013  13:30:00       83.104      -98.140       23.999       70.400       72.405       57.583     4956.105     5242.461     3315.771        1.531        0.676      128.599       53.466        0.173      346.226       24.320      860.294
06/22/2013  13:31:00       70.579     -145.287      -16.955       65.237       84.137       45.109     4255.809     7079.000     2034.777        1.987        0.668      161.523       34.827        0.046      345.867       23.702      860.297
06/22/2013  13:32:00       50.945      -53.277       34.855       66.163       59.610       41.103     4377.527     3553.382     1689.498        0.813        0.481       73.715       35.957        0.238      346.102       24.108      860.285
06/22/2013  13:33:00      -12.092       18.598       47.790       50.656       45.379       28.805     2565.999     2059.268      829.714        0.411        0.273       22.183       19.577        0.779      346.740       25.205      860.269
06/22/2013  13:34:00     -103.695      -49.377        7.181       66.228       58.827       42.026     4386.193     3460.559     1766.151        1.143        0.481      114.851       31.645        0.076      346.017       23.962      860.250
06/22/2013  13:35:00      -94.242      -36.692        6.435       41.347       55.913       30.380     1709.552     3126.248      922.964        0.801        0.288      101.133       24.375        0.058      345.933       23.819      860.224
06/22/2013  13:36:00      -60.126      -26.366       -2.693       75.762       50.995       31.210     5739.894     2600.478      974.079        0.681        0.466       65.653       34.876        0.282      346.180       24.241      860.227
06/22/2013  13:37:00     -116.908      -47.633       -8.737       55.308       38.361       30.796     3058.928     1471.604      948.379        1.074        0.274      126.239       31.969        0.064      345.856       23.685      860.219
06/22/2013  13:38:00     -173.665      -17.249       -5.620       54.776       66.146       32.038     3000.368     4375.271     1026.425        1.944        0.420      174.520       27.362        0.025      346.103       24.110      860.184
06/22/2013  13:39:00     -152.105      -58.912        7.705       83.187       67.849       43.311     6920.047     4603.456     1875.811        2.003        0.670      163.115       48.836        0.090      346.147       24.184      860.180
06/22/2013  13:40:00     -105.115      -33.877       -9.744       30.915       35.175       21.142      955.725     1237.257      446.986        0.747        0.132      110.439       11.711        0.011      345.884       23.733      860.193
06/22/2013  13:41:00       15.798       13.537       10.643       37.124       28.383       39.376     1378.154      805.607     1550.499        0.214        0.187       20.804       26.309        1.599      346.431       24.675      860.190
06/22/2013  13:42:00      161.447       78.421       27.668       89.998       58.181       67.912     8099.674     3385.051     4612.089        2.454        0.805      179.485       29.384        0.027      346.267       24.390      860.182
06/22/2013  13:43:00      147.483       77.788       80.962      124.846       97.336       81.663    15586.419     9474.339     6668.856        3.304        1.586      166.740       84.121        0.255      346.083       24.073      860.168
06/22/2013  13:44:00       18.615      -17.228       31.819       40.238       87.161       46.485     1619.077     7597.042     2160.850        0.651        0.569       25.364       52.332        4.257      346.567       24.906      860.152
06/22/2013  13:45:00       -6.600       36.463       63.487       24.620       39.600       38.902      606.166     1568.173     1513.358        0.455        0.184       37.055       35.362        0.911      346.580       24.932      860.134
06/22/2013  13:46:00       38.947      -23.873       46.933       55.175       72.084       61.773     3044.241     5196.129     3815.868        0.817        0.603       45.681       41.716        0.834      346.827       25.356      860.130
06/22/2013  13:47:00       34.155      -30.160       50.171       62.923      102.184       62.826     3959.329    10441.669     3947.070        1.147        0.917       45.566       53.894        1.399      346.849       25.393      860.117
06/22/2013  13:48:00      136.285       52.585       35.335       99.710       66.336       45.903     9942.000     4400.437     2107.056        1.952        0.822      146.078       28.591        0.038      346.327       24.494      860.098
06/22/2013  13:49:00      105.829       25.294       60.111      137.147      137.234       88.358    18809.366    18833.271     7807.160        3.044        2.272      108.809       87.016        0.640      346.873       25.432      860.069
06/22/2013  13:50:00       91.385     -168.643        3.286       86.745       89.759       53.955     7524.748     8056.592     2911.140        2.764        0.925      191.811       40.414        0.044      346.459       24.719      860.070
06/22/2013  13:51:00       35.906      -37.292       45.159       48.272       84.362       48.949     2330.182     7116.953     2395.982        0.828        0.592       51.768       53.310        1.060      347.300       26.169      860.074
06/22/2013  13:52:00       45.269       77.893       69.641       56.004       65.632       49.987     3136.441     4307.619     2498.741        1.145        0.497       90.092       26.938        0.089      347.247       26.076      860.062
06/22/2013  13:53:00      142.710       94.909       27.876      104.379       68.778       66.334    10894.976     4730.374     4400.220        2.508        1.001      171.388       49.951        0.085      346.762       25.241      860.054
06/22/2013  13:54:00      174.794      120.715       33.581      111.389       82.084       65.319    12407.468     6737.783     4266.580        3.483        1.171      212.427       53.011        0.062      346.318       24.477      860.060
06/22/2013  13:55:00      252.531      146.472       33.216       98.595       73.996       59.951     9720.942     5475.438     3594.087        5.256        0.940      291.935       29.019        0.010      345.889       23.738      860.035
06/22/2013  13:56:00       21.772       15.235       99.194       53.247       84.754       50.784     2835.240     7183.200     2578.970        1.157        0.630       26.573       46.248        3.029      346.491       24.775      860.020
06/22/2013  13:57:00      126.475       52.294       28.513      126.896       64.225       47.592    16102.677     4124.829     2265.035        2.101        1.125      136.860       23.796        0.030      346.083       24.074      860.016
06/22/2013  13:58:00       42.371       25.480       16.709       65.904       56.911       51.698     4343.382     3238.866     2672.700        0.649        0.513       49.442       43.463        0.773      346.602       24.967      859.999
06/22/2013  13:59:00       59.337       50.189       11.904       76.644       49.120       46.063     5874.238     2412.773     2121.781        0.829        0.520       77.716       34.273        0.194      346.426       24.666      859.993
06/22/2013  14:00:00       75.230       41.663        6.089       69.489       74.015       46.544     4828.676     5478.187     2166.327        0.995        0.624       85.996       34.096        0.157      346.439       24.686      859.961
06/22/2013  14:01:00      -79.205      161.056      -31.776       77.912      169.459       55.225     6070.332    28716.438     3049.808        3.552        1.892      179.478       48.374        0.073      346.129       24.152      859.947
06/22/2013  14:02:00      -66.469      -44.800       17.327       84.258       67.191       56.262     7099.427     4514.652     3165.456        1.075        0.739       80.157       51.842        0.418      346.542       24.865      859.937
06/22/2013  14:03:00     -168.848      -60.842        1.386      122.672       80.964       37.917    15048.344     6555.226     1437.712        2.762        1.152      179.476       40.520        0.051      346.499       24.790      859.935
06/22/2013  14:04:00     -352.209      -67.358      -39.329       30.541       57.404       28.039      932.737     3295.228      786.191        6.757        0.251      358.592       17.682        0.002      345.636       23.304      859.922
06/22/2013  14:05:00     -175.680      -68.365      -19.789       91.162       46.699       29.603     8310.442     2180.791      876.322        2.365        0.568      188.513       39.549        0.044      345.776       23.545      859.921
06/22/2013  14:06:00      -99.443       80.903      -16.723       61.674       71.325       49.468     3803.739     5087.206     2447.048        1.402        0.567      128.196       38.458        0.090      346.104       24.111      859.922
06/22/2013  14:07:00      -65.142      152.192      -11.022       46.148       57.661       41.057     2129.659     3324.776     1685.663        1.733        0.357      165.547       31.746        0.037      346.240       24.344      859.914
06/22/2013  14:08:00      -47.536       96.668        5.000       48.433       68.755       36.650     2345.732     4727.264     1343.205        1.002        0.421      107.724       30.096        0.078      346.689       25.118      859.886
06/22/2013  14:09:00     -122.418      125.952      -28.243       82.836       86.529       44.068     6861.745     7487.209     1942.019        2.397        0.815      175.642       55.944        0.101      346.409       24.632      859.878
06/22/2013  14:10:00      -25.888      101.318       14.705       43.316       79.373       41.113     1876.288     6300.004     1690.308        1.051        0.493      104.573       42.854        0.168      346.478       24.754      859.894
06/22/2013  14:11:00      -59.628      107.592        1.011       42.979       49.146       39.978     1847.232     2415.363     1598.237        1.050        0.293      123.010       32.996        0.072      346.520       24.827      859.881
06/22/2013  14:12:00      -77.243       90.370       -5.571       48.541       49.110       31.561     2356.201     2411.822      996.102        0.996        0.288      118.884       24.413        0.042      346.312       24.468      859.866
06/22/2013  14:13:00      -62.761       72.298        1.494       34.339       57.901       33.436     1179.161     3352.484     1117.934        0.741        0.282       95.739       34.241        0.128      346.328       24.496      859.856
06/22/2013  14:14:00     -109.719       27.812      -19.365       20.082       29.033       24.591      403.269      842.887      604.727        0.752        0.093      113.189       14.032        0.015      345.999       23.931      859.837
06/22/2013  14:15:00      -98.986       99.179      -15.422       42.104       46.345       30.759     1772.781     2147.893      946.097        1.237        0.243      140.124       25.201        0.032      346.349       24.534      859.804
06/22/2013  14:16:00      -88.346       71.388       -1.653       57.850       51.201       39.564     3346.574     2621.559     1565.273        1.022        0.377      113.584       37.001        0.106      346.447       24.701      859.783
06/22/2013  14:17:00      -82.504      125.571       -8.160       59.419       60.358       45.353     3530.567     3643.058     2056.873        1.593        0.462      150.250       45.261        0.091      346.494       24.780      859.763
06/22/2013  14:18:00      -29.444      167.663      -14.900       48.655       72.199       38.605     2367.265     5212.685     1490.376        1.913        0.454      170.229       43.196        0.064      346.432       24.673      859.736
06/22/2013  14:19:00      -34.472       90.887       -5.726       57.774       67.021       45.224     3337.886     4491.771     2045.165        0.968        0.494       97.205       36.742        0.143      346.736       25.197      859.716
06/22/2013  14:20:00      -39.059       31.529       -1.597       36.396       63.515       27.925     1324.690     4034.100      779.821        0.433        0.307       50.196       20.694        0.170      346.769       25.255      859.710
06/22/2013  14:21:00      -94.899       86.547       -8.388       53.922       59.019       35.030     2907.581     3483.208     1227.096        1.209        0.381      128.438       13.916        0.012      346.691       25.120      859.700
06/22/2013  14:22:00      -58.094       83.319       14.466       72.449       65.293       41.777     5248.819     4263.136     1745.347        1.089        0.563      101.572       37.082        0.133      346.759       25.239      859.693
06/22/2013  14:23:00       -3.171        9.078       40.336       48.573       29.805       28.312     2359.328      888.336      801.594        0.288        0.202        9.616       26.545        7.620      347.464       26.452      859.683
06/22/2013  14:24:00      -21.252        2.377       18.762       51.072       49.316       29.353     2608.318     2432.035      861.598        0.335        0.295       21.385       31.071        2.111      347.303       26.175      859.655
06/22/2013  14:25:00       29.866      -15.110       38.446       42.618       54.235       27.282     1816.296     2941.487      744.286        0.405        0.275       33.470       23.248        0.482      347.067       25.768      859.649
06/22/2013  14:26:00       -0.125      -29.851        2.330       58.195       58.029       42.511     3386.655     3367.328     1807.218        0.473        0.428       29.851       45.838        2.358      346.767       25.252      859.632
06/22/2013  14:27:00      117.598      108.239      123.536      101.524       84.682       68.159    10307.200     7170.964     4645.699        3.146        1.106      159.828       57.223        0.128      346.609       24.978      859.610
06/22/2013  14:28:00       97.428       80.687       85.667       87.338       61.923       62.953     7627.976     3834.468     3963.079        1.938        0.771      126.502       59.274        0.220      346.340       24.516      859.595
06/22/2013  14:29:00       71.171       66.392      109.092       69.774      103.381       75.177     4868.465    10687.544     5651.633        2.129        1.060       97.330       86.674        0.793      346.265       24.387      859.588
06/22/2013  14:30:00        6.530        9.210        1.184       60.618       25.546       25.955     3674.590      652.604      673.645        0.256        0.250       11.291        8.964        0.630      346.521       24.829      859.590
06/22/2013  14:31:00      -76.509       19.486      -10.235       86.063       37.171       23.788     7406.782     1381.677      565.876        0.784        0.468       78.951       26.379        0.112      346.650       25.050      859.547
06/22/2013  14:32:00      -64.783      -75.682        1.532       83.689       60.503       43.311     7003.799     3660.563     1875.854        1.123        0.627       99.623       34.954        0.123      346.704       25.142      859.525
06/22/2013  14:33:00      -49.358      -57.885       12.471       91.704       56.903       48.700     8409.661     3237.932     2371.691        0.998        0.701       76.072       51.684        0.462      346.500       24.792      859.495
06/22/2013  14:34:00      -81.004      -82.200        1.102       60.992       43.164       35.203     3720.060     1863.145     1239.259        1.007        0.341      115.406       35.485        0.095      346.462       24.727      859.469
06/22/2013  14:35:00       -7.210       -9.226       26.803       17.572       20.141       10.431      308.778      405.658      108.804        0.084        0.041       11.709        4.612        0.155      347.117       25.855      859.464
06/22/2013  14:36:00       98.445       29.897       51.254       59.031       60.376       45.875     3484.658     3645.306     2104.484        1.122        0.462      102.884       27.895        0.074      346.707       25.148      859.448
06/22/2013  14:37:00      151.730       54.870       61.781       82.075       79.654       65.105     6736.357     6344.832     4238.598        2.358        0.866      161.347       53.144        0.108      346.552       24.882      859.419
06/22/2013  14:38:00      185.857      137.813       86.648       84.215       72.233       61.428     7092.226     5217.644     3773.453        3.856        0.804      231.377       48.066        0.043      346.346       24.523      859.405
06/22/2013  14:39:00       97.298        0.147       58.068       71.064       49.967       44.627     5050.157     2496.679     1991.578        1.119        0.477       97.298       34.887        0.129      346.434       24.678      859.415
06/22/2013  14:40:00      115.467       66.040       19.466       84.322       55.441       49.630     7110.280     3073.748     2463.156        1.536        0.632      133.018       21.155        0.025      346.593       24.949      859.402
06/22/2013  14:41:00      149.244       95.833       34.851       58.915       45.498       41.744     3470.931     2070.036     1742.574        1.998        0.364      177.363       22.123        0.016      346.309       24.464      859.390
06/22/2013  14:42:00       95.715       85.877       -0.244       52.561       55.517       47.760     2762.656     3082.102     2281.026        1.233        0.406      128.593       22.037        0.029      346.558       24.892      859.370
06/22/2013  14:43:00        4.993       14.846       51.797       40.568       63.563       47.720     1645.758     4040.292     2277.155        0.544        0.398       15.663       34.911        4.968      347.027       25.700      859.365
06/22/2013  14:44:00      -26.720        4.106       41.245       57.111       51.515       33.150     3261.624     2653.810     1098.937        0.472        0.351       27.034       31.780        1.382      347.026       25.698      859.334
06/22/2013  14:45:00     -134.880      -69.346        0.995       86.014       56.418       33.523     7398.362     3183.013     1123.779        1.735        0.585      151.663       44.192        0.085      346.359       24.548      859.315
06/22/2013  14:46:00       16.692      -79.216      -11.962       46.990       52.511       35.557     2208.101     2757.416     1264.300        0.646        0.311       80.955       36.045        0.198      346.897       25.475      859.306
06/22/2013  14:47:00      -36.725      -65.075       -9.742       67.655       58.608       35.605     4577.163     3434.940     1267.693        0.748        0.464       74.723       37.657        0.254      346.622       25.002      859.300
06/22/2013  14:48:00      -12.829        4.883       51.239       56.936       58.155       42.449     3241.704     3382.044     1801.880        0.562        0.421       13.727       45.372       10.925      346.962       25.588      859.282
06/22/2013  14:49:00       58.529       17.893       40.839       63.358       49.281       34.648     4014.276     2428.584     1200.474        0.653        0.382       61.203       34.348        0.315      346.565       24.905      859.270
06/22/2013  14:50:00       63.867      -36.256       51.281       42.152       46.827       39.167     1776.749     2192.748     1534.090        0.676        0.275       73.441       34.273        0.218      346.543       24.867      859.245
06/22/2013  14:51:00       41.420      -30.517       14.509       69.027       92.956       36.644     4764.693     8640.900     1342.798        0.880        0.737       51.448       38.391        0.557      346.662       25.070      859.226
06/22/2013  14:52:00      136.304       85.693       75.827       91.182       78.498       77.204     8314.097     6161.941     5960.497        2.605        1.022      161.004       50.408        0.098      346.763       25.241      859.222
06/22/2013  14:53:00       83.843       14.292       62.528       87.527       98.478       57.633     7660.994     9697.885     3321.542        1.591        1.034       85.052       43.462        0.261      347.063       25.760      859.205
06/22/2013  14:54:00      180.003       94.208       51.162       99.610       87.021       59.822     9922.091     7572.720     3578.691        3.248        1.054      203.165       35.484        0.031      347.058       25.752      859.189
06/22/2013  14:55:00       96.858       53.198       86.879       90.051      113.354       56.367     8109.239    12849.066     3177.229        2.194        1.207      110.506       52.171        0.223      347.174       25.951      859.187
06/22/2013  14:56:00       23.425       68.357      132.165       81.756      106.143       96.969     6684.023    11266.310     9402.936        2.502        1.368       72.259       80.587        1.244      347.295       26.160      859.172
06/22/2013  14:57:00      126.577     -141.400        5.949      118.941      151.602       85.776    14146.851    22983.164     7357.519        4.026        2.224      189.778      106.014        0.312      346.963       25.587      859.148
06/22/2013  14:58:00      101.271     -127.012       28.422      116.045      188.924       95.467    13466.454    35692.332     9113.935        4.272        2.914      162.444      122.000        0.564      347.083       25.793      859.136
06/22/2013  14:59:00       75.084      -25.726       47.423       65.345      136.573       72.155     4270.027    18652.071     5206.409        1.833        1.406       79.369       84.427        1.132      347.013       25.674      859.150
06/22/2013  15:00:00       93.552     -102.939       50.349      109.895      160.326       99.937    12076.817    25704.465     9987.400        3.482        2.388      139.098      117.334        0.712      347.105       25.831      859.124
06/22/2013  15:01:00      145.114     -145.002       14.792       71.677      128.138       69.896     5137.639    16419.234     4885.391        3.437        1.322      205.143       67.786        0.109      346.804       25.312      859.118
06/22/2013  15:02:00       90.682     -171.941      -26.967       93.030       94.489       58.493     8654.618     8928.240     3421.412        2.976        1.050      194.388       51.812        0.071      346.952       25.568      859.110
06/22/2013  15:03:00       22.011      -82.901       38.922       63.957      135.598       81.332     4090.537    18386.774     6614.949        1.898        1.455       85.773       77.640        0.819      347.226       26.041      859.086
06/22/2013  15:04:00       14.958       98.400      130.392       63.963       82.441       76.178     4091.237     6796.522     5803.152        2.180        0.835       99.530       62.914        0.400      347.161       25.928      859.083
06/22/2013  15:05:00       44.289       76.132      104.038       69.833       67.605       57.834     4876.601     4570.502     3344.731        1.568        0.640       88.077       45.844        0.271      347.051       25.740      859.078
06/22/2013  15:06:00       60.179     -145.852      -20.679       54.705       80.032       37.775     2992.618     6405.114     1426.925        1.807        0.541      157.780       33.473        0.045      346.777       25.268      859.103
06/22/2013  15:07:00      -71.373      -76.644       -2.229       42.688       66.621       27.079     1822.264     4438.383      733.291        0.898        0.350      104.730       28.785        0.076      347.086       25.800      859.080
06/22/2013  15:08:00      -80.495       12.404        9.947       64.642       63.620       38.042     4178.600     4047.508     1447.206        0.820        0.484       81.445       27.103        0.111      346.882       25.450      859.054
06/22/2013  15:09:00        7.782       68.964      -16.980       15.424       54.544       26.223      237.889     2975.084      687.633        0.450        0.195       69.402        6.543        0.009      346.608       24.978      859.034
06/22/2013  15:10:00       -1.946       58.083      -10.678       20.300       61.144       19.056      412.079     3738.597      363.147        0.400        0.226       58.116       24.019        0.171      346.753       25.228      858.995
06/22/2013  15:11:00       44.940       90.428       28.931       47.960       82.017       45.985     2300.207     6726.782     2114.609        1.109        0.557      100.979       56.965        0.318      346.681       25.104      858.971
06/22/2013  15:12:00       27.768        7.896       18.662       25.854       18.951       19.644      668.453      359.137      385.882        0.130        0.071       28.869       16.313        0.319      346.834       25.367      858.978
06/22/2013  15:13:00       19.075      -23.389        6.263       31.942       37.468       28.916     1020.287     1403.884      836.138        0.210        0.163       30.181       26.823        0.790      346.904       25.486      858.985
06/22/2013  15:14:00       45.052      -43.107       36.826       64.103       53.709       33.874     4109.190     2884.613     1147.446        0.669        0.407       62.353       26.326        0.178      347.343       26.243      858.968
06/22/2013  15:15:00       36.194      -44.917       14.399       91.827       98.096       57.918     8432.256     9622.892     3354.528        1.247        1.070       57.685       33.909        0.346      347.335       26.229      858.945
06/22/2013  15:16:00      134.426       67.298       94.141       76.502       94.883       56.518     5852.631     9002.821     3194.250        2.475        0.902      150.331       54.602        0.132      347.066       25.765      858.920
06/22/2013  15:17:00      143.742       64.979       82.343       82.227      106.881       69.570     6761.226    11423.477     4840.032        2.734        1.151      157.747       70.970        0.202      346.846       25.385      858.902
06/22/2013  15:18:00       55.903       37.564       83.764       87.763       92.113       58.409     7702.343     8484.791     3411.616        1.557        0.980       67.351       64.066        0.905      347.104       25.831      858.882
06/22/2013  15:19:00       96.017       40.569       76.016       81.882       91.105       58.610     6704.645     8300.043     3435.103        1.754        0.922      104.236       54.418        0.273      347.283       26.140      858.878
06/22/2013  15:20:00      109.967        3.702        5.142       48.958       49.101       42.444     2396.902     2410.915     1801.476        0.937        0.330      110.029       29.427        0.072      346.711       25.155      858.898
06/22/2013  15:21:00       20.014       12.229       11.590       38.836       40.646       36.725     1508.216     1652.067     1348.732        0.260        0.225       23.455       21.227        0.819      347.080       25.791      858.856
06/22/2013  15:22:00       77.806      110.793       69.291       84.565       63.426       62.263     7151.195     4022.855     3876.650        1.909        0.753      135.384       29.082        0.046      347.212       26.015      858.820
06/22/2013  15:23:00      122.416       94.358       94.204      103.212       88.799       64.396    10652.729     7885.279     4146.889        2.772        1.134      154.562       52.494        0.115      347.194       25.984      858.810
06/22/2013  15:24:00       59.453      -18.042       38.917       73.223      139.685       53.716     5361.586    19511.927     2885.429        1.656        1.388       62.130       69.677        1.258      347.148       25.906      858.795
06/22/2013  15:25:00       40.949       74.822      110.495       70.596      105.885       81.250     4983.807    11211.605     6601.625        2.114        1.140       85.294       81.370        0.910      347.178       25.957      858.794
06/22/2013  15:26:00      123.536       76.309       14.102      102.805       68.307       53.407    10568.963     4665.908     2852.258        1.968        0.904      145.204       35.859        0.061      347.016       25.679      858.783
06/22/2013  15:27:00       71.847       69.612       88.166       71.921       84.379       73.173     5172.574     7119.876     5354.329        1.771        0.882      100.039       66.914        0.447      347.118       25.854      858.770
06/22/2013  15:28:00       44.756       13.971       43.580       65.499       65.796       47.930     4290.122     4329.114     2297.257        0.750        0.546       46.886       29.155        0.387      346.907       25.492      858.785
06/22/2013  15:29:00       18.737       73.460        5.055       29.739       63.966       34.708      884.437     4091.635     1204.611        0.598        0.309       75.812       36.742        0.235      346.979       25.615      858.776
06/22/2013  15:30:00       83.020       75.375       11.416       77.567       48.596       44.246     6016.694     2361.589     1957.720        1.152        0.517      112.132       35.229        0.099      347.072       25.776      858.764
06/22/2013  15:31:00      179.049      103.822       49.932       80.188       70.124       56.146     6430.116     4917.306     3152.330        2.991        0.725      206.972       33.078        0.026      347.046       25.727      858.746
06/22/2013  15:32:00      171.288       79.168       23.773       85.644       85.510       50.033     7334.920     7311.995     2503.342        2.666        0.858      188.698       31.737        0.028      346.976       25.609      858.730
06/22/2013  15:33:00      178.129      137.881        4.782       93.328       57.808       42.026     8710.074     3341.743     1766.192        3.229        0.691      225.258        7.257        0.001      346.759       25.234      858.738
06/22/2013  15:34:00       77.334      132.697       -9.628       77.296       73.848       49.573     5974.744     5453.594     2457.518        1.878        0.694      153.587       46.854        0.093      346.899       25.479      858.736
06/22/2013  15:35:00        3.542      105.291      -10.961       42.467       59.257       30.726     1803.462     3511.391      944.099        0.874        0.313      105.350       25.427        0.058      346.830       25.359      858.723
06/22/2013  15:36:00       -5.594      109.616       -4.487       44.393       66.005       40.443     1970.730     4356.632     1635.639        1.001        0.398      109.759       33.942        0.096      347.027       25.699      858.690
06/22/2013  15:37:00        6.765      116.780        2.610       40.095       86.681       45.642     1607.589     7513.576     2083.197        1.245        0.560      116.976       45.607        0.152      347.264       26.106      858.656
06/22/2013  15:38:00      153.292      127.319       11.815       92.163       69.857       62.222     8494.105     4879.995     3871.553        2.854        0.862      199.271       41.750        0.044      347.073       25.776      858.628
06/22/2013  15:39:00      198.439      112.893       15.714       85.511       53.996       54.588     7312.087     2915.562     2979.892        3.279        0.660      228.305       39.391        0.030      346.839       25.373      858.605
06/22/2013  15:40:00      159.808      136.381       45.800      112.430       64.483       73.474    12640.544     4158.104     5398.457        3.421        1.110      210.091       71.804        0.117      346.952       25.568      858.600
06/22/2013  15:41:00      127.404       91.480       59.811       72.567       66.603       64.476     5265.960     4435.902     4157.154        2.102        0.693      156.845       45.833        0.085      346.761       25.238      858.590
06/22/2013  15:42:00      222.704      113.176       37.612      101.450       77.175       76.326    10292.126     5955.939     5825.607        4.294        1.104      249.811       52.574        0.044      346.813       25.327      858.553
06/22/2013  15:43:00      200.860      174.340       -2.844       99.821       68.326       53.211     9964.214     4668.441     2831.449        4.410        0.873      265.969       36.150        0.018      346.820       25.339      858.553
06/22/2013  15:44:00       92.249       92.727       -2.903       55.860       53.047       38.150     3120.366     2813.979     1455.408        1.225        0.369      130.798       27.391        0.044      346.810       25.325      858.552
06/22/2013  15:45:00       82.453       -5.686       -2.179       46.003       64.939       26.066     2116.252     4217.027      679.411        0.692        0.351       82.649       18.548        0.050      346.768       25.252      858.551
06/22/2013  15:46:00       -9.351       45.043        4.361       19.138       32.087       27.364      366.266     1029.556      748.813        0.214        0.107       46.004       22.495        0.239      346.987       25.631      858.530
06/22/2013  15:47:00      -19.005       20.505       17.790       30.061       42.972       30.698      903.652     1846.572      942.337        0.239        0.185       27.958       23.918        0.732      347.177       25.958      858.501
06/22/2013  15:48:00      -57.287      -25.886       -0.389       58.946       49.709       28.121     3474.686     2470.996      790.796        0.534        0.337       62.864       18.299        0.085      347.225       26.040      858.477
06/22/2013  15:49:00       45.480       18.324       25.398       28.771       20.783       25.858      827.761      431.953      668.659        0.249        0.096       49.032       12.343        0.063      347.279       26.134      858.470
06/22/2013  15:50:00      108.186       57.307       10.556       39.789       36.759       29.520     1583.141     1351.226      871.458        0.945        0.190      122.427       16.221        0.018      346.948       25.561      858.470
06/22/2013  15:51:00       95.217       42.022       13.736       58.623       31.866       29.270     3436.616     1015.419      856.717        0.816        0.265      104.078        9.310        0.008      347.123       25.864      858.447
06/22/2013  15:52:00       54.783      -11.889       26.640       42.943       45.682       31.971     1844.095     2086.886     1022.153        0.440        0.248       56.059       25.463        0.206      347.035       25.713      858.408
06/22/2013  15:53:00       78.603       68.237       18.603       90.929       55.280       41.814     8268.058     3055.911     1748.447        1.212        0.654      104.090       33.150        0.101      347.310       26.185      858.389
06/22/2013  15:54:00       70.169       78.075       -0.574       96.593       75.071       51.145     9330.128     5635.591     2615.804        1.430        0.879      104.974       49.369        0.221      347.537       26.578      858.388
06/22/2013  15:55:00       65.257       87.660       26.928       84.146       82.052       59.373     7080.598     6732.450     3525.181        1.500        0.867      109.283       50.433        0.213      347.434       26.399      858.398
06/22/2013  15:56:00       64.987      107.669       11.539       65.696       63.166       50.432     4315.952     3989.952     2543.382        1.340        0.542      125.762       40.033        0.101      347.220       26.031      858.384
06/22/2013  15:57:00      -21.752      274.820      -32.901       59.747       79.538       37.791     3569.722     6326.265     1428.150        4.420        0.566      275.679       25.937        0.009      347.126       25.866      858.358
06/22/2013  15:58:00       -5.341      208.520       -8.430       78.386      131.943       61.954     6144.424    17409.087     3838.357        3.548        1.370      208.589       73.464        0.124      347.189       25.977      858.356
06/22/2013  15:59:00       32.448      135.816      -10.246       50.689       86.210       48.298     2569.409     7432.118     2332.699        1.597        0.617      139.638       50.326        0.130      347.252       26.086      858.352
06/22/2013  16:00:00       59.877       70.860       14.544       83.515       65.374       51.475     6974.750     4273.754     2649.716        1.136        0.695       92.770       33.924        0.134      347.443       26.416      858.346
06/22/2013  16:01:00       85.561      131.446       -9.076       73.577       94.781       54.655     5413.631     8983.461     2987.137        2.103        0.869      156.840       51.406        0.107      347.256       26.093      858.328
06/22/2013  16:02:00      126.546      106.355        6.435      101.326       61.894       51.909    10266.953     3830.815     2694.497        2.208        0.840      165.303       35.351        0.046      347.355       26.263      858.325
06/22/2013  16:03:00       61.525       40.493        0.353       49.564       44.590       35.111     2456.564     1988.295     1232.807        0.555        0.284       73.655       22.355        0.092      347.585       26.661      858.329
06/22/2013  16:04:00       81.594      138.594        7.362       77.020      100.211       62.420     5932.073    10042.344     3896.199        2.289        0.994      160.829       62.780        0.152      347.329       26.218      858.323
06/22/2013  16:05:00      205.849      153.899       66.875       96.009       69.477       72.665     9217.777     4827.000     5280.176        4.492        0.966      257.019       63.097        0.060      347.276       26.126      858.325
06/22/2013  16:06:00      218.082       94.372       29.782       73.072       65.867       53.438     5339.526     4338.471     2855.588        3.494        0.627      237.625       35.094        0.022      347.173       25.947      858.329
06/22/2013  16:07:00       70.482       80.583      -10.177       65.017       41.219       34.341     4227.170     1698.986     1179.270        0.933        0.355      107.057       28.945        0.073      347.351       26.259      858.332
06/22/2013  16:08:00       57.704        4.421       31.795       38.069       36.368       30.932     1449.240     1322.665      956.773        0.404        0.186       57.873       19.458        0.113      347.502       26.517      858.326
06/22/2013  16:09:00       47.603       35.707       19.683       31.751       30.936       26.583     1008.138      957.057      706.668        0.330        0.134       59.507       15.096        0.064      347.498       26.512      858.310
06/22/2013  16:10:00       33.673       10.742       14.839       49.232       37.100       33.077     2423.821     1376.382     1094.067        0.318        0.245       35.345       26.455        0.560      347.768       26.975      858.296
06/22/2013  16:11:00       50.413      -33.978       55.356       57.998       97.978       53.236     3363.760     9599.662     2834.062        1.128        0.790       60.795       30.108        0.245      347.951       27.292      858.267
06/22/2013  16:12:00        5.769       41.420      122.025       57.338      110.880       73.860     3287.671    12294.464     5455.328        1.883        1.052       41.819       76.179        3.318      347.820       27.065      858.258
06/22/2013  16:13:00       60.465      -76.707       48.765       76.909      131.531       78.332     5915.016    17300.426     6135.842        2.063        1.468       97.673       76.050        0.606      347.660       26.789      858.281
06/22/2013  16:14:00       49.546       50.061       95.177       67.283      107.944       63.256     4527.044    11651.962     4001.292        1.710        1.009       70.433       60.477        0.737      347.378       26.303      858.295
06/22/2013  16:15:00       65.653      -42.168       34.785       46.912       63.770       38.304     2200.759     4066.617     1467.190        0.751        0.387       78.028       38.904        0.249      347.244       26.074      858.300
06/22/2013  16:16:00       57.366      -11.137        8.913       66.931       49.356       30.899     4479.720     2436.019      954.729        0.568        0.394       58.437       33.402        0.327      347.265       26.108      858.270
06/22/2013  16:17:00      -67.220      -27.692        3.367       62.931       37.871       23.154     3960.294     1434.176      536.105        0.561        0.297       72.701        7.011        0.009      347.828       27.080      858.214
06/22/2013  16:18:00      -31.425       -6.628       10.859       34.959       16.985       22.649     1222.118      288.481      512.966        0.159        0.101       32.117       22.843        0.506      347.708       26.873      858.176
06/22/2013  16:19:00      -60.719       -5.054      -16.673       52.532       28.173       30.705     2759.563      793.711      942.770        0.424        0.225       60.929       23.767        0.152      347.722       26.899      858.157
06/22/2013  16:20:00      -55.177       23.846        2.599       60.134       72.589       51.776     3616.145     5269.150     2680.784        0.759        0.578       60.109       36.743        0.374      347.829       27.082      858.130
06/22/2013  16:21:00       -4.564       65.383       -9.795       48.335       70.635       31.595     2336.286     4989.324      998.250        0.636        0.416       65.542       25.091        0.147      347.518       26.545      858.131
06/22/2013  16:22:00      -25.210       -5.551       -2.016       42.472       33.783       30.862     1803.904     1141.302      952.481        0.228        0.195       25.814       15.627        0.366      347.635       26.748      858.118
06/22/2013  16:23:00       10.915      -14.018       23.130       38.063       58.679       28.844     1448.798     3443.207      831.964        0.329        0.286       17.767       22.744        1.639      348.063       27.486      858.094
06/22/2013  16:24:00       70.011      -26.181       28.235       47.495       66.418       44.967     2255.798     4411.288     2022.041        0.753        0.434       74.746       47.949        0.412      347.855       27.126      858.081
06/22/2013  16:25:00      105.409       71.180       72.398      115.089       77.572       54.555    13245.439     6017.477     2976.194        2.182        1.112      127.191       57.528        0.205      347.576       26.644      858.067
06/22/2013  16:26:00      154.451       44.228       59.069       87.783      110.531       58.380     7705.858    12217.043     3408.179        2.631        1.167      160.659       57.129        0.126      347.604       26.692      858.054
06/22/2013  16:27:00       66.752      -19.731       47.048       78.433      118.919       83.805     6151.776    14141.826     7023.243        1.718        1.366       69.607       87.353        1.575      347.884       27.176      858.044
06/22/2013  16:28:00      142.557     -137.158       10.654       99.852      124.862       65.442     9970.366    15590.448     4282.694        3.454        1.492      197.826       79.574        0.162      347.787       27.007      858.027
06/22/2013  16:29:00       80.609      -99.296      -18.643       83.089      103.841       58.363     6903.836    10782.997     3406.296        1.889        1.055      127.896       64.007        0.250      348.079       27.513      858.036
06/22/2013  16:30:00       -8.747     -141.624      -12.290      110.007       61.083       40.593    12101.596     3731.147     1647.819        1.888        0.874      141.894       33.916        0.057      347.698       26.854      858.043
06/22/2013  16:31:00      -20.218      -28.085       15.927       43.628       47.676       34.644     1903.428     2272.968     1200.212        0.341        0.269       34.605       31.966        0.853      347.941       27.274      858.012
06/22/2013  16:32:00       30.604       -2.712       31.097       26.624       28.225       23.506      708.840      796.653      552.536        0.198        0.103       30.724       18.386        0.358      347.899       27.201      858.005
06/22/2013  16:33:00       24.159      -13.208       34.974       42.934       63.120       43.078     1843.371     3984.092     1855.708        0.483        0.384       27.534       49.974        3.294      347.657       26.785      858.000
06/22/2013  16:34:00      -39.688      -64.258        0.414       60.072       55.588       37.122     3608.630     3090.037     1378.010        0.689        0.404       75.526       17.574        0.054      347.732       26.914      858.005
06/22/2013  16:35:00       -7.316       36.332       28.338       37.709       38.698       26.411     1421.962     1497.508      697.548        0.290        0.181       37.062       20.708        0.312      347.867       27.148      857.995
06/22/2013  16:36:00      -34.807       -8.624       16.149       47.628       33.132       20.555     2268.442     1097.754      422.496        0.267        0.189       35.860       23.699        0.437      348.234       27.782      857.996
06/22/2013  16:37:00      -98.281      -69.347        6.349      114.112       90.335       41.350    13021.511     8160.339     1709.836        1.870        1.145      120.283       48.454        0.162      348.213       27.747      857.997
06/22/2013  16:38:00     -298.514      -26.009       -5.328      106.892       82.760       51.835    11426.000     6849.229     2686.853        5.538        1.048      299.645       53.552        0.032      347.712       26.877      857.976
06/22/2013  16:39:00     -261.282      -18.814      -18.042      124.091       93.245       55.246    15398.700     8694.664     3052.106        4.804        1.357      261.958       60.311        0.053      347.953       27.293      857.952
06/22/2013  16:40:00     -281.284       48.880      -23.020      129.432       85.320       53.568    16752.723     7279.584     2869.528        5.447        1.345      285.499       58.994        0.043      347.655       26.778      857.920
06/22/2013  16:41:00     -425.041       -5.422      -56.660      102.131       99.943       51.756    10430.840     9988.661     2678.673       10.349        1.155      425.076       53.525        0.016      347.444       26.414      857.917
06/22/2013  16:42:00     -269.694      -87.766      -17.205      100.592       83.582       44.109    10118.717     6986.008     1945.579        4.989        0.953      283.615       34.124        0.014      347.639       26.752      857.935
06/22/2013  16:43:00     -253.588      -17.693      -14.996      113.340       84.915       50.041    12845.940     7210.574     2504.149        4.370        1.128      254.204       49.481        0.038      347.772       26.980      857.898
06/22/2013  16:44:00     -292.380      -78.380        0.470      127.030      111.532       60.447    16136.571    12439.337     3653.873        6.192        1.611      302.703       63.279        0.044      347.673       26.810      857.858
06/22/2013  16:45:00     -257.908      -83.454      -13.371       98.851       91.569       47.934     9771.432     8384.816     2297.703        4.705        1.023      271.074       46.159        0.029      347.639       26.750      857.856
06/22/2013  16:46:00     -221.499      -78.980       -3.627       98.131      113.550       61.952     9629.637    12893.627     3837.994        4.083        1.318      235.159       54.676        0.054      347.698       26.852      857.817
06/22/2013  16:47:00     -152.506      -32.706       16.681      124.816      109.522       60.800    15578.958    11994.994     3696.667        2.793        1.564      155.973       65.341        0.175      347.791       27.015      857.826
06/22/2013  16:48:00     -146.610      -47.732        0.924      137.230       69.132       36.736    18831.973     4779.244     1349.525        2.436        1.248      154.184       41.194        0.071      347.720       26.891      857.842
06/22/2013  16:49:00     -112.493      -19.710       -2.202       58.558       56.301       33.358     3429.086     3169.778     1112.771        1.038        0.386      114.207       21.978        0.037      347.768       26.976      857.846
06/22/2013  16:50:00     -114.303      -91.902        2.981       86.007       58.767       36.140     7397.180     3453.512     1306.070        1.684        0.608      146.667       35.594        0.059      347.636       26.747      857.842
06/22/2013  16:51:00      -78.935      -78.760       -4.546       59.997       58.389       37.807     3599.699     3409.244     1429.343        1.044        0.422      111.507       22.977        0.042      347.594       26.676      857.836
06/22/2013  16:52:00      -50.825       26.156       -5.132       69.355       68.012       37.301     4810.059     4625.619     1391.383        0.706        0.541       57.160       39.160        0.469      347.452       26.432      857.830
06/22/2013  16:53:00      -12.624        0.291       -4.488       46.374       31.866       26.961     2150.540     1015.458      726.911        0.204        0.195       12.627       23.911        3.586      347.389       26.322      857.817
06/22/2013  16:54:00     -119.262       33.897       -1.482       62.573       46.876       36.475     3915.399     2197.332     1330.436        1.141        0.372      123.986       31.787        0.066      347.518       26.545      857.799
06/22/2013  16:55:00      -87.221       28.852       -5.096       50.117       58.802       31.838     2511.740     3457.665     1013.671        0.772        0.349       91.869       26.401        0.083      347.633       26.743      857.791
06/22/2013  16:56:00     -110.339     -121.723        7.347       73.425       65.636       39.086     5391.171     4308.097     1527.682        1.913        0.561      164.290       32.577        0.039      347.613       26.708      857.790
06/22/2013  16:57:00      -96.257     -100.796       10.113       89.030       94.257       43.368     7926.406     8884.353     1880.818        1.911        0.935      139.374       52.842        0.144      347.631       26.738      857.798
06/22/2013  16:58:00     -169.824     -161.181       -1.202       94.115       70.572       45.923     8857.647     4980.398     2108.958        3.538        0.797      234.135       43.396        0.034      347.445       26.418      857.801
06/22/2013  16:59:00     -181.099     -217.177       -8.400       98.666       74.002       51.918     9735.065     5476.302     2695.466        4.897        0.895      282.777       45.192        0.026      347.304       26.171      857.809
06/22/2013  17:00:00      -84.353     -116.147       -3.486       54.439      100.561       34.933     2963.590    10112.576     1220.318        1.745        0.715      143.546       36.088        0.063      347.481       26.479      857.810
06/22/2013  17:01:00      -46.556      -40.991       18.168       62.017       38.606       27.670     3846.102     1490.458      765.627        0.514        0.305       62.030       27.266        0.193      347.625       26.730      857.799
06/22/2013  17:02:00      -15.884        7.255       13.419       37.924       48.359       24.308     1438.212     2338.639      590.887        0.243        0.218       17.463       20.660        1.400      347.551       26.602      857.782
06/22/2013  17:03:00      -16.555       24.406       62.072       17.282       35.206       27.969      298.654     1239.436      782.265        0.352        0.116       29.491       19.297        0.428      347.580       26.653      857.752
06/22/2013  17:04:00       -1.724       -0.173       20.745       20.504       37.494       23.028      420.418     1405.771      530.292        0.139        0.118        1.733       17.701      104.328      347.575       26.643      857.747
06/22/2013  17:05:00       16.618      -35.446       16.763       43.724       49.820       35.421     1911.773     2482.010     1254.622        0.373        0.282       39.148       38.517        0.968      347.633       26.742      857.742
06/22/2013  17:06:00       65.362      -82.713       -9.521       43.191       54.458       33.922     1865.461     2965.676     1150.724        0.859        0.299      105.421       25.375        0.058      347.445       26.419      857.733
06/22/2013  17:07:00       34.419     -126.012      -28.975       36.363       58.065       37.626     1322.300     3371.522     1415.701        1.201        0.305      130.629       32.091        0.060      347.542       26.587      857.726
06/22/2013  17:08:00       11.715     -101.831      -15.404       56.935       28.737       26.737     3241.609      825.795      714.872        0.776        0.239      102.502       13.103        0.016      347.721       26.895      857.734
06/22/2013  17:09:00       42.921      -77.546      -10.345       32.460       25.320       18.261     1053.639      641.110      333.455        0.499        0.101       88.632       10.464        0.014      347.412       26.364      857.746
06/22/2013  17:10:00       38.840      -65.307      -14.717       21.436       19.229       16.386      459.505      369.772      268.507        0.354        0.055       75.984        9.682        0.016      347.586       26.662      857.732
06/22/2013  17:11:00       18.754        4.722       29.635       30.466       36.598       21.691      928.175     1339.403      470.501        0.199        0.137       19.339       28.200        2.126      347.740       26.929      857.716
06/22/2013  17:12:00      -10.864        2.051       23.716       20.334       33.808       14.134      413.461     1142.994      199.778        0.122        0.088       11.056       11.453        1.073      347.795       27.022      857.716
06/22/2013  17:13:00      -48.149      -20.851       14.045       29.021       35.093       21.248      842.194     1231.509      451.466        0.274        0.126       52.470       13.747        0.069      347.694       26.850      857.715
06/22/2013  17:14:00        4.334       19.389       21.866       22.780       12.756        7.955      518.946      162.718       63.280        0.081        0.037       19.868        9.180        0.213      347.792       27.019      857.692
06/22/2013  17:15:00       20.189      -69.142       -4.608       24.432       57.136       24.409      596.931     3264.505      595.818        0.483        0.223       72.030       32.756        0.207      348.018       27.409      857.674
06/22/2013  17:16:00       61.356     -169.732      -10.310       43.433       36.464       28.315     1886.460     1329.604      801.738        1.835        0.201      180.481       21.109        0.014      347.668       26.802      857.660
06/22/2013  17:17:00       61.349     -115.860      -15.607       31.972       73.724       33.441     1022.205     5435.230     1118.275        1.250        0.379      131.100       15.399        0.014      347.705       26.867      857.654
06/22/2013  17:18:00       25.535      -20.439       30.466       60.761       50.837       37.518     3691.934     2584.355     1407.630        0.484        0.384       32.708       35.446        1.174      347.976       27.336      857.627
06/22/2013  17:19:00        9.209       34.473       50.696       41.372       40.181       31.106     1711.637     1614.496      967.568        0.407        0.215       35.682       29.506        0.684      347.963       27.313      857.615
06/22/2013  17:20:00      -31.543      -27.032       19.338       43.340       52.059       24.234     1878.327     2710.122      587.271        0.364        0.259       41.541       20.350        0.240      348.116       27.578      857.616
06/22/2013  17:21:00       39.690      -29.004       24.781       82.303       71.486       50.217     6773.767     5110.283     2521.785        0.872        0.720       49.158       34.755        0.500      347.797       27.027      857.600
06/22/2013  17:22:00      -41.035     -113.695       -3.468       79.912       67.402       43.547     6385.961     4543.040     1896.321        1.372        0.641      120.874       37.469        0.096      348.020       27.412      857.595
06/22/2013  17:23:00     -167.769      -64.183      -10.412       59.736       58.131       29.222     3568.408     3379.164      853.898        2.009        0.390      179.627       19.438        0.012      347.781       26.997      857.584
06/22/2013  17:24:00     -157.470      -91.199        1.674       87.410       64.770       32.213     7640.500     4195.188     1037.662        2.299        0.644      181.973       34.900        0.037      347.857       27.128      857.577
06/22/2013  17:25:00     -257.872     -107.163        0.912      119.344       85.604       56.183    14243.090     7328.044     3156.562        5.135        1.236      279.253       62.412        0.050      347.830       27.079      857.566
06/22/2013  17:26:00     -186.425      -29.413        2.643       85.091       65.863       38.012     7240.435     4337.953     1444.939        2.432        0.651      188.731       40.205        0.045      347.861       27.135      857.567
06/22/2013  17:27:00     -206.997     -109.862       -1.293      101.003       97.929       44.410    10201.705     9590.147     1972.287        3.834        1.088      234.345       52.641        0.050      347.519       26.543      857.548
06/22/2013  17:28:00     -130.574      -57.306        4.153      104.057       51.174       36.895    10827.850     2618.754     1361.208        1.758        0.740      142.596       39.523        0.077      347.590       26.669      857.529
06/22/2013  17:29:00      -93.881      -63.312       13.969       87.231       89.245       40.175     7609.313     7964.622     1614.063        1.510        0.859      113.235       43.493        0.148      347.680       26.823      857.511
06/22/2013  17:30:00     -238.854     -153.966        6.489      171.155      130.616       65.920    29294.032    17060.564     4345.484        6.574        2.535      284.177       70.655        0.062      347.557       26.609      857.457
06/22/2013  17:31:00     -206.179       34.168      -10.267       90.954       76.892       53.190     8272.573     5912.362     2829.145        3.039        0.851      208.991       48.143        0.053      347.535       26.572      857.471
06/22/2013  17:32:00      -56.435      -80.248       20.420      132.108       85.144       51.164    17452.479     7249.487     2617.801        1.868        1.366       98.106       40.916        0.174      347.644       26.760      857.426
06/22/2013  17:33:00     -192.421     -123.513       -2.509      185.296      251.651       74.348    34334.531    63328.384     5527.551        7.772        5.160      228.651       78.651        0.118      347.614       26.707      857.369
06/22/2013  17:34:00     -136.630       55.496       -2.172      115.679      109.259       55.420    13381.627    11937.514     3071.324        2.507        1.420      147.470       52.343        0.126      347.614       26.708      857.464
06/22/2013  17:35:00     -153.223      125.223      -29.237       81.833      111.916       45.581     6696.611    12525.226     2077.589        3.065        1.065      197.884       36.870        0.035      347.494       26.501      857.483
06/22/2013  17:36:00     -206.496       63.007      -20.950      117.567      106.564       59.424    13821.903    11355.923     3531.230        3.787        1.435      215.895       62.234        0.083      347.467       26.453      857.479
06/22/2013  17:37:00     -164.733       42.583      -16.802      101.832       83.895       42.626    10369.803     7038.425     1816.997        2.423        0.961      170.147       43.785        0.066      347.497       26.506      857.470
06/22/2013  17:38:00     -164.554      140.271      -33.635       69.945       93.431       39.110     4892.330     8729.289     1529.624        3.152        0.758      216.227       43.620        0.041      347.447       26.419      857.460
06/22/2013  17:39:00     -183.604      119.262      -39.397       56.323       85.837       32.607     3172.312     7367.912     1063.218        3.054        0.580      218.938       37.078        0.029      347.453       26.430      857.459
06/22/2013  17:40:00     -210.665      -95.536       -6.490       92.219       87.995       43.013     8504.431     7743.180     1850.106        3.582        0.905      231.315       29.274        0.016      347.681       26.822      857.464
06/22/2013  17:41:00     -150.650      -13.166       -2.747      125.141       69.975       51.691    15660.338     4896.491     2671.986        2.305        1.161      151.225       59.821        0.156      347.771       26.979      857.480
06/22/2013  17:42:00     -231.685     -103.394      -12.244       91.185       76.733       43.644     8314.624     5887.906     1904.777        4.031        0.805      253.709       45.566        0.032      347.712       26.877      857.473
06/22/2013  17:43:00     -243.957      -53.587      -16.891       84.205       79.228       40.996     7090.466     6277.069     1680.673        3.886        0.752      249.773       20.639        0.007      347.867       27.144      857.467
06/22/2013  17:44:00     -140.642      -53.313        6.601       70.134       72.812       38.207     4918.842     5301.621     1459.742        1.717        0.584      150.407       33.756        0.050      347.721       26.894      857.456
06/22/2013  17:45:00     -175.360        9.353      -11.053       82.062       54.096       31.583     6734.141     2926.420      997.514        2.081        0.533      175.609       24.848        0.020      347.743       26.931      857.427
06/22/2013  17:46:00     -200.937     -127.704      -22.363       98.095       77.573       43.824     9622.606     6017.532     1920.570        3.737        0.878      238.084       44.183        0.034      347.639       26.750      857.424
06/22/2013  17:47:00     -229.530     -104.357      -16.526       98.791       97.928       52.947     9759.628     9589.876     2803.350        4.300        1.108      252.140       49.912        0.039      347.648       26.766      857.398
06/22/2013  17:48:00     -136.435      -66.538       14.984      131.306       92.313       54.408    17241.222     8521.630     2960.273        2.599        1.436      151.795       59.198        0.152      347.774       26.984      857.378
06/22/2013  17:49:00      -83.111      -85.420       26.844       93.839       67.765       44.856     8805.753     4592.078     2012.082        1.516        0.770      119.180       42.015        0.124      347.769       26.977      857.350
06/22/2013  17:50:00     -173.196      -74.692       -5.201      111.077       87.412       47.648    12338.039     7640.940     2270.342        2.892        1.112      188.615       46.444        0.061      347.796       27.022      857.340
06/22/2013  17:51:00     -224.245      -34.973       -4.644      141.500       93.735       56.699    20022.312     8786.219     3214.803        4.177        1.601      226.956       69.616        0.094      347.700       26.857      857.340
06/22/2013  17:52:00     -171.386     -178.881       17.465      147.174      121.996       77.658    21660.277    14882.931     6030.767        5.212        2.129      247.733       90.548        0.134      347.774       26.984      857.326
06/22/2013  17:53:00     -138.638      -66.628        0.512      105.632       82.759       53.856    11158.114     6849.025     2900.488        2.228        1.045      153.817       53.859        0.123      347.938       27.268      857.334
06/22/2013  17:54:00     -141.831      -89.438        1.745       80.914       61.996       32.957     6547.084     3843.445     1086.171        1.980        0.574      167.676       34.820        0.043      347.844       27.106      857.348
06/22/2013  17:55:00     -156.357     -112.170       -1.670      174.039      113.446       54.646    30289.620    12870.002     2986.235        4.158        2.307      192.431       64.140        0.111      347.943       27.278      857.312
06/22/2013  17:56:00     -192.020      -87.003       -3.964       95.513      101.062       45.849     9122.681    10213.598     2102.171        3.294        1.072      210.811       47.002        0.050      347.750       26.942      857.305
06/22/2013  17:57:00     -133.153      -40.918       11.555      112.413       74.147       52.200    12636.641     5497.845     2724.847        2.019        1.043      139.298       61.499        0.195      347.988       27.354      857.308
06/22/2013  17:58:00     -340.365     -141.072      -19.112      131.657      114.346       60.457    17333.646    13075.012     3655.005        8.508        1.703      368.442       62.253        0.029      347.891       27.184      857.289
06/22/2013  17:59:00     -264.940      -94.445       -6.499      134.608      113.623       60.093    18119.369    12910.086     3611.213        5.689        1.732      281.271       66.784        0.056      347.839       27.095      857.306
06/22/2013  18:00:00     -177.291      -13.966       -1.088      122.773       81.439       45.250    15073.267     6632.273     2047.564        2.769        1.188      177.840       33.051        0.035      347.789       27.010      857.319
06/22/2013  18:01:00     -110.090        6.937       -2.561       87.259       68.025       27.809     7614.104     4627.349      773.363        1.259        0.651      110.308       29.336        0.071      347.816       27.058      857.329
06/22/2013  18:02:00     -146.468       40.923       -8.571       82.885       44.015       34.454     6869.920     1937.277     1187.058        1.660        0.500      152.078       22.560        0.022      347.602       26.689      857.338
06/22/2013  18:03:00     -132.788      -37.971      -15.472       41.203       61.612       32.429     1697.716     3795.979     1051.669        1.293        0.327      138.110       26.650        0.037      347.706       26.870      857.314
06/22/2013  18:04:00      -83.065        2.871       -1.258       45.771       55.486       33.865     2094.958     3078.707     1146.846        0.661        0.316       83.114       27.954        0.113      347.990       27.360      857.315
06/22/2013  18:05:00      -49.304       62.567       -3.317       49.319       43.193       28.423     2432.360     1865.667      807.850        0.573        0.255       79.659       23.944        0.090      347.813       27.056      857.313
06/22/2013  18:06:00      -53.852       71.220       -6.438       32.786       28.245       22.504     1074.907      797.772      506.435        0.520        0.119       89.288       19.945        0.050      347.669       26.806      857.313
06/22/2013  18:07:00      -21.934       51.760        0.179       17.304       30.523       18.369      299.413      931.624      337.402        0.236        0.078       56.216        8.840        0.025      347.597       26.682      857.301
06/22/2013  18:08:00      -41.057       68.578       -9.643       27.764       41.359       17.331      770.831     1710.589      300.368        0.463        0.139       79.929       15.399        0.037      347.717       26.888      857.300
06/22/2013  18:09:00      -55.349       42.743      -11.907       29.984       49.177       14.868      899.070     2418.413      221.056        0.428        0.177       69.932       16.397        0.055      347.643       26.760      857.302
06/22/2013  18:10:00     -163.749      -87.000      -17.856       49.899       49.865       29.357     2489.927     2486.477      861.827        2.027        0.292      185.425       20.862        0.013      347.695       26.849      857.303
06/22/2013  18:11:00     -274.696      -76.368       -7.705       86.535       89.933       46.913     7488.338     8087.959     2200.850        4.956        0.889      285.114       35.988        0.016      347.588       26.662      857.313
06/22/2013  18:12:00     -194.143      -66.272       -0.571       80.363       67.829       41.049     6458.236     4600.734     1685.030        2.741        0.637      205.143       36.988        0.033      347.635       26.746      857.301
06/22/2013  18:13:00     -166.938       13.674      -19.308       66.472       61.127       39.267     4418.547     3736.464     1541.904        1.906        0.485      167.497       34.754        0.043      347.654       26.779      857.299
06/22/2013  18:14:00      -76.542       47.865       -5.666       74.796       43.781       29.972     5594.399     1916.735      898.322        0.829        0.420       90.276       29.673        0.108      347.650       26.773      857.326
06/22/2013  18:15:00     -228.955      -40.030      -10.912       72.401       99.252       43.554     5241.973     9850.895     1896.929        3.556        0.849      232.428       29.741        0.016      347.680       26.822      857.323
06/22/2013  18:16:00     -290.401      -26.528      -14.285       91.204      103.475       50.398     8318.204    10707.062     2539.983        5.340        1.078      291.610       47.846        0.027      347.460       26.441      857.328
06/22/2013  18:17:00     -242.623      -84.207      -19.337       99.965      106.006       44.516     9992.962    11237.243     1981.659        4.477        1.161      256.820       22.562        0.008      347.528       26.560      857.333
06/22/2013  18:18:00     -212.094      -71.212      -12.824      102.236       70.893       48.300    10452.293     5025.819     2332.920        3.401        0.891      223.730       48.565        0.047      347.546       26.590      857.338
06/22/2013  18:19:00     -167.731     -103.815       -1.712       72.293       93.857       44.137     5226.306     8809.210     1948.080        2.745        0.799      197.260       41.197        0.044      347.467       26.455      857.343
06/22/2013  18:20:00     -181.707     -120.119        8.442       89.297       87.837       54.339     7974.004     7715.294     2952.711        3.308        0.932      217.821       48.220        0.049      347.510       26.528      857.354
06/22/2013  18:21:00     -251.436     -129.615      -23.089       99.240       90.316       55.620     9848.551     8156.964     3093.536        5.082        1.055      282.878       45.721        0.026      347.421       26.373      857.342
06/22/2013  18:22:00     -194.723      -63.905       -4.518       85.207       54.450       41.046     7260.268     2964.762     1684.812        2.696        0.595      204.941       43.862        0.046      347.463       26.447      857.333
06/22/2013  18:23:00     -220.672      -80.292       -1.813      123.722       94.873       39.066    15307.051     9000.817     1526.187        4.049        1.292      234.825       46.964        0.040      347.524       26.552      857.340
06/22/2013  18:24:00     -186.296      -60.809        3.460       79.169       69.600       42.096     6267.751     4844.144     1772.087        2.565        0.644      195.969       36.379        0.034      347.497       26.507      857.321
06/22/2013  18:25:00     -246.495      -53.437       -8.036      161.267       86.420       52.830    26006.931     7468.337     2791.061        4.997        1.813      252.221       50.653        0.040      347.531       26.565      857.316
06/22/2013  18:26:00     -267.690      -84.574       -5.505      109.919      100.248       51.474    12082.227    10049.652     2649.608        5.181        1.239      280.732       58.364        0.043      347.481       26.477      857.315
06/22/2013  18:27:00     -188.659      -21.647        5.283      144.914      102.844       45.636    21000.022    10576.908     2082.655        3.487        1.683      189.897       48.944        0.066      347.491       26.495      857.312
06/22/2013  18:28:00     -135.798      -56.547        7.531       79.650       78.373       38.926     6344.133     6142.289     1515.248        1.785        0.700      147.101       36.289        0.061      347.587       26.663      857.307
06/22/2013  18:29:00     -142.776     -109.095       -3.631      113.009      102.984       54.019    12771.003    10605.715     2918.054        2.929        1.315      179.685       64.890        0.130      347.494       26.502      857.302
06/22/2013  18:30:00     -308.325      -81.593      -12.209      109.375       89.428       55.051    11962.972     7997.322     3030.625        6.243        1.150      318.939       58.215        0.033      347.467       26.453      857.314
06/22/2013  18:31:00     -281.533      -22.741       -7.935      111.728       78.281       58.049    12483.083     6127.978     3369.651        5.091        1.099      282.449       63.318        0.050      347.502       26.513      857.317
06/22/2013  18:32:00     -204.177      -81.528        1.680      151.851       91.985       61.182    23058.611     8461.310     3743.240        4.179        1.763      219.852       65.908        0.090      347.487       26.487      857.310
06/22/2013  18:33:00     -141.947      -46.832       10.462      151.584       83.325       56.522    22977.715     6943.009     3194.691        2.778        1.656      149.473       78.781        0.278      347.488       26.491      857.334
06/22/2013  18:34:00     -173.270       22.933      -17.986       74.508       80.053       46.191     5551.466     6408.416     2133.604        2.248        0.705      174.781       39.550        0.051      347.437       26.403      857.351
06/22/2013  18:35:00     -195.225      -44.235      -16.296       94.850       67.491       35.670     8996.531     4555.087     1272.327        2.758        0.741      200.173       32.669        0.027      347.427       26.386      857.343
06/22/2013  18:36:00     -140.538      -62.663       -5.382       88.608       53.696       37.124     7851.348     2883.227     1378.190        1.791        0.606      153.875       40.878        0.071      347.410       26.357      857.342
06/22/2013  18:37:00     -195.549      -27.054       -9.331       46.045       61.697       31.975     2120.166     3806.528     1022.414        2.300        0.347      197.411       28.804        0.021      347.426       26.385      857.343
06/22/2013  18:38:00     -143.901      -21.365       -6.662       55.012       62.202       27.294     3026.363     3869.074      744.944        1.442        0.382      145.479       22.891        0.025      347.482       26.482      857.358
06/22/2013  18:39:00      -80.861       -4.781       -9.898       89.666       67.810       38.553     8039.992     4598.208     1486.317        1.039        0.706       81.002       26.467        0.107      347.437       26.403      857.364
06/22/2013  18:40:00     -207.929      -29.261      -24.961       96.976       68.474       46.186     9404.421     4688.672     2133.154        3.047        0.811      209.978       45.027        0.046      347.390       26.323      857.373
06/22/2013  18:41:00     -116.219      -44.948        6.813       92.594       62.279       43.475     8573.713     3878.669     1890.045        1.496        0.717      124.609       51.524        0.171      347.411       26.359      857.383
06/22/2013  18:42:00     -155.995      -56.042      -13.885       79.269       54.475       35.612     6283.548     2967.510     1268.247        1.909        0.526      165.756       38.621        0.054      347.403       26.344      857.392
06/22/2013  18:43:00     -174.876      -52.618      -17.478       62.452       50.095       32.642     3900.215     2509.544     1065.532        2.056        0.374      182.620       19.179        0.011      347.404       26.346      857.403
06/22/2013  18:44:00     -198.076      -29.510      -19.521       63.885       44.829       29.672     4081.353     2009.609      880.404        2.373        0.349      200.262       16.005        0.006      347.460       26.443      857.420
06/22/2013  18:45:00     -217.012      -74.174      -16.710       77.819       57.068       28.428     6055.827     3256.728      808.144        3.150        0.506      229.338       27.727        0.015      347.447       26.420      857.422
06/22/2013  18:46:00      -69.884      -60.376       13.998       73.636       41.610       35.549     5422.202     1731.405     1263.757        0.857        0.421       92.353       40.317        0.191      347.467       26.457      857.432
06/22/2013  18:47:00     -129.453      -88.816       -6.406       58.749       56.879       34.881     3451.420     3235.241     1216.710        1.629        0.395      156.992       33.630        0.046      347.432       26.395      857.435
06/22/2013  18:48:00     -106.575      -83.259       -3.448       72.394       61.762       35.628     5240.881     3814.575     1269.380        1.431        0.516      135.241       39.509        0.085      347.458       26.440      857.424
06/22/2013  18:49:00      -91.770      -55.588       13.431       92.781       52.100       38.299     8608.252     2714.376     1466.779        1.224        0.639      107.293       37.493        0.122      347.479       26.477      857.431
06/22/2013  18:50:00     -110.543     -107.593        4.244       67.839       63.211       38.013     4602.156     3995.645     1444.951        1.693        0.502      154.260       36.169        0.055      347.404       26.346      857.428
06/22/2013  18:51:00     -166.512      -54.820       -7.951       68.765       43.934       33.286     4728.605     1930.214     1107.972        1.928        0.388      175.304       35.730        0.042      347.417       26.369      857.432
06/22/2013  18:52:00     -161.776      -56.118       -7.917       45.114       42.191       24.322     2035.257     1780.094      591.551        1.689        0.220      171.233       20.494        0.014      347.408       26.355      857.433
06/22/2013  18:53:00     -175.986       76.504      -12.592       91.254       54.134       42.779     8327.289     2930.497     1830.034        2.503        0.654      191.896       41.291        0.046      347.421       26.375      857.428
06/22/2013  18:54:00     -236.970       19.110      -14.770      101.395       84.451       36.398    10280.967     7131.896     1324.848        3.773        0.937      237.740       34.359        0.021      347.465       26.449      857.404
06/22/2013  18:55:00     -261.287     -144.518      -16.228      147.185      101.507       59.150    21663.311    10303.698     3498.747        6.244        1.773      298.591       60.421        0.041      347.522       26.550      857.414
06/22/2013  18:56:00     -455.363      -71.833      -17.395      205.243      175.007       61.977    42124.677    30627.285     3841.096       14.469        3.830      460.994       90.413        0.038      347.501       26.512      857.427
06/22/2013  18:57:00     -443.099      -85.713      -29.123      152.685      161.757       71.241    23312.658    26165.271     5075.274       12.953        2.728      451.313       61.913        0.019      347.490       26.494      857.452
06/22/2013  18:58:00     -380.947      -76.458      -16.308      191.700      118.677       76.668    36748.830    14084.191     5877.950       10.396        2.836      388.544       88.964        0.052      347.479       26.474      857.468
06/22/2013  18:59:00     -419.294     -112.463      -11.158      200.380      175.563       78.187    40151.946    30822.257     6113.256       13.282        3.854      434.115       80.436        0.034      347.404       26.344      857.471
06/22/2013  19:00:00     -367.917      -47.118       -7.028      173.899      130.281       75.231    30240.916    16973.120     5659.723        9.524        2.644      370.922       74.779        0.041      347.404       26.344      857.468
06/22/2013  19:01:00     -178.085      -70.008       13.737      137.075      110.306       65.032    18789.616    12167.357     4229.218        3.599        1.759      191.351       57.330        0.090      347.510       26.530      857.478
06/22/2013  19:02:00     -210.097     -108.608       20.879      169.603      124.006       65.562    28765.190    15377.406     4298.342        5.240        2.422      236.509       77.694        0.108      347.518       26.542      857.491
06/22/2013  19:03:00     -304.175     -237.196      -13.823      185.511      157.917       81.804    34414.173    24937.667     6691.927       10.750        3.302      385.726      100.801        0.068      347.444       26.414      857.490
06/22/2013  19:04:00     -231.623     -215.319       -9.617      191.210      147.719       86.375    36561.234    21821.002     7460.604        8.296        3.292      316.246      100.509        0.101      347.481       26.478      857.515
06/22/2013  19:05:00     -367.855        2.046      -11.191      150.334      128.872       68.391    22600.426    16608.111     4677.283        8.966        2.194      367.860       63.387        0.030      347.454       26.430      857.519
06/22/2013  19:06:00     -292.293     -193.675       -5.825      208.739      123.601       78.734    43572.148    15277.183     6199.083        9.400        3.252      350.635      110.196        0.099      347.453       26.428      857.529
06/22/2013  19:07:00     -260.354     -114.790       -3.547      122.007       98.856       58.392    14885.587     9772.438     3409.625        5.452        1.403      284.537       61.986        0.047      347.527       26.558      857.537
06/22/2013  19:08:00     -250.705      -52.934        1.682      135.371      131.756       62.774    18325.198    17359.695     3940.573        5.263        1.981      256.233       58.311        0.052      347.579       26.647      857.538
06/22/2013  19:09:00     -261.842     -196.703       -0.519      187.538      127.920       91.990    35170.315    16363.446     8462.075        8.361        3.000      327.496       96.830        0.087      347.455       26.433      857.541
06/22/2013  19:10:00     -277.187     -119.339       11.949      218.340      169.121       88.913    47672.470    28601.920     7905.491        8.768        4.209      301.786      105.389        0.122      347.366       26.279      857.548
06/22/2013  19:11:00     -398.592      -75.664       -6.771      175.427      136.380       89.557    30774.800    18599.548     8020.545       11.101        2.870      405.710       92.472        0.052      347.334       26.224      857.580
06/22/2013  19:12:00     -351.126     -119.062      -21.423      190.132      149.803       72.363    36150.070    22440.884     5236.425       10.086        3.191      370.763       79.762        0.046      347.320       26.200      857.588
06/22/2013  19:13:00     -385.666     -196.650      -14.985      185.265      186.919       93.584    34323.086    34938.895     8758.009       13.281        3.901      432.909      102.167        0.056      347.243       26.067      857.580
06/22/2013  19:14:00     -231.933     -124.344        6.311      207.676      166.660       93.279    43129.224    27775.632     8700.992        7.443        3.980      263.162      116.890        0.197      347.275       26.124      857.577
06/22/2013  19:15:00     -303.545       21.089      -25.548      188.615      115.079       74.191    35575.757    13243.085     5504.240        7.377        2.716      304.276       78.008        0.066      347.272       26.117      857.609
06/22/2013  19:16:00     -248.466      -24.492        3.593      153.039      121.262       67.107    23421.058    14704.431     4503.416        5.248        2.131      249.670       80.429        0.104      347.309       26.182      857.614
06/22/2013  19:17:00     -389.096      -20.619      -18.552      221.856      146.588       69.716    49220.130    21488.001     4860.354       11.385        3.778      389.642       83.857        0.046      347.220       26.028      857.607
06/22/2013  19:18:00     -253.649      -79.363       -3.362      219.529      142.241       76.298    48192.778    20232.580     5821.421        7.243        3.712      265.775      106.595        0.161      347.234       26.055      857.595
06/22/2013  19:19:00     -289.652      -30.900      -19.595      133.618      116.364       62.152    17853.777    13540.681     3862.814        6.024        1.763      291.296       44.764        0.024      347.266       26.108      857.584
06/22/2013  19:20:00     -410.169      -40.812      -19.579      207.775      140.535       90.476    43170.606    19750.213     8185.978       12.068        3.555      412.195       96.930        0.055      347.171       25.942      857.607
06/22/2013  19:21:00     -263.322      -94.752        4.692      141.156      140.301       67.772    19924.979    19684.261     4593.104        6.126        2.210      279.851       67.108        0.058      347.159       25.923      857.618
06/22/2013  19:22:00     -258.292     -141.796        9.322      158.177      113.138       76.413    25020.102    12800.205     5838.884        6.528        2.183      294.654       78.829        0.072      347.137       25.886      857.614
06/22/2013  19:23:00     -485.333     -162.174      -31.941      215.208      121.777       75.098    46314.419    14829.714     5639.737       16.481        3.339      511.711       85.110        0.028      347.082       25.789      857.604
06/22/2013  19:24:00     -365.687     -175.569      -12.226      174.094      181.394       78.630    30308.713    32903.639     6182.669       11.703        3.470      405.650       93.601        0.053      347.081       25.787      857.598
06/22/2013  19:25:00     -344.014     -159.622       -4.464      233.708      181.089      100.953    54619.225    32793.311    10191.521       12.071        4.880      379.242       97.512        0.066      347.077       25.782      857.585
06/22/2013  19:26:00     -307.678      -79.696      -15.631      148.362      165.880       69.039    22011.136    27516.332     4766.353        7.777        2.715      317.832       58.060        0.033      347.076       25.780      857.606
06/22/2013  19:27:00     -333.014     -165.218       -5.617      228.705      161.599       83.486    52305.768    26114.228     6969.935       11.179        4.269      371.746       93.010        0.063      347.068       25.766      857.617
06/22/2013  19:28:00     -310.625     -148.933      -15.562      195.904      184.922       69.510    38378.238    34196.182     4831.579        9.814        3.870      344.484       80.207        0.054      347.053       25.742      857.618
06/22/2013  19:29:00     -315.411     -151.571      -12.584      208.696      123.804       79.720    43553.881    15327.368     6355.200        9.391        3.262      349.939       87.781        0.063      347.024       25.691      857.618
06/22/2013  19:30:00     -379.961     -182.433      -16.046      195.272      145.373       82.713    38131.129    21133.185     6841.387       12.199        3.305      421.488       96.665        0.053      346.989       25.630      857.612
06/22/2013  19:31:00     -380.443     -115.903       11.361      236.550      153.132       92.127    55955.866    23449.556     8487.416       12.308        4.395      397.707      113.564        0.082      346.936       25.540      857.596
06/22/2013  19:32:00     -499.153     -240.343      -25.373      230.711      169.993       88.548    53227.355    28897.554     7840.764       19.875        4.498      554.003      108.588        0.038      346.911       25.495      857.598
06/22/2013  19:33:00     -329.495     -198.021       -4.025      194.188      168.156       87.777    37708.823    28276.302     7704.800       11.073        3.684      384.420      100.606        0.068      346.915       25.503      857.599
06/22/2013  19:34:00     -336.264     -145.284      -14.507      202.455      169.590       76.149    40987.983    28760.821     5798.666       10.495        3.777      366.307       87.990        0.058      346.944       25.554      857.602
06/22/2013  19:35:00     -320.341     -140.267        8.948      184.160      143.726       85.338    33914.781    20657.290     7282.549        9.210        3.093      349.704       83.249        0.057      346.903       25.482      857.595
06/22/2013  19:36:00     -375.395     -173.426      -21.359      135.153      173.938       66.517    18266.321    30254.562     4424.468       11.219        2.647      413.519       67.876        0.027      346.878       25.440      857.618
06/22/2013  19:37:00     -264.618     -124.021        5.069      161.637      106.736       71.780    26126.657    11392.651     5152.317        6.404        2.134      292.239       80.482        0.076      346.897       25.470      857.619
06/22/2013  19:38:00     -230.125     -160.513      -12.366      155.399      121.467       67.796    24148.998    14754.324     4596.364        6.118        2.175      280.574       70.493        0.063      346.896       25.469      857.631
06/22/2013  19:39:00     -187.153     -115.128        9.095      193.779      145.157       82.438    37550.416    21070.495     6796.016        5.688        3.271      219.729      102.604        0.218      346.903       25.483      857.630
06/22/2013  19:40:00     -269.492     -139.912       -0.744      169.478      138.679       77.942    28722.794    19231.920     6075.008        7.311        2.701      303.647       87.613        0.083      346.858       25.406      857.639
06/22/2013  19:41:00     -179.398     -134.609       -2.259      221.963      129.430      101.260    49267.601    16752.054    10253.609        6.328        3.814      224.284      113.799        0.257      346.858       25.405      857.633
06/22/2013  19:42:00     -277.300      -82.209      -12.653      160.473      124.695       76.216    25751.696    15548.805     5808.952        6.545        2.355      289.230       72.828        0.063      346.840       25.373      857.650
06/22/2013  19:43:00     -348.748      -77.181       -8.653      193.422      163.388       93.677    37412.148    26695.751     8775.340       10.026        3.644      357.187      104.053        0.085      346.828       25.352      857.652
06/22/2013  19:44:00     -242.455     -114.570       17.942      195.864      151.469       77.927    38362.654    22942.839     6072.691        6.979        3.369      268.161       99.151        0.137      346.803       25.311      857.657
06/22/2013  19:45:00     -144.079      -31.803       14.815      128.131      108.335       83.126    16417.478    11736.445     6909.850        2.852        1.753      147.547       75.537        0.262      346.849       25.391      857.647
06/22/2013  19:46:00     -439.719      -67.979      -12.166      144.980      179.598       77.729    21019.297    32255.587     6041.851       12.871        2.966      444.943       72.999        0.027      346.752       25.221      857.654
06/22/2013  19:47:00     -187.365     -169.041       13.705      166.600      164.999       84.169    27755.723    27224.659     7084.469        6.295        3.103      252.350       74.204        0.086      346.751       25.220      857.675
06/22/2013  19:48:00     -437.920      -49.809       -7.175      255.919      188.582       77.863    65494.774    35563.186     6062.606       15.069        5.356      440.744      105.295        0.057      346.737       25.197      857.680
06/22/2013  19:49:00     -309.651     -146.461        0.320      199.200      170.697       84.705    39680.612    29137.371     7174.877        9.665        3.800      342.542       92.049        0.072      346.718       25.162      857.684
06/22/2013  19:50:00     -359.992      -38.746       -7.972      196.382      185.382       73.493    38565.795    34366.620     5401.190       10.473        3.917      362.071       84.981        0.055      346.710       25.150      857.693
06/22/2013  19:51:00     -203.882      -31.060       22.013      151.003       90.320       66.704    22801.863     8157.767     4449.407        3.921        1.770      206.235       73.622        0.127      346.698       25.131      857.717
06/22/2013  19:52:00     -282.713     -112.460      -13.633      106.385      104.916       50.870    11317.765    11007.328     2587.757        5.883        1.246      304.260       51.822        0.029      346.678       25.094      857.741
06/22/2013  19:53:00     -208.542     -104.339       -9.520      242.861      129.303       97.852    58981.632    16719.232     9575.041        6.986        4.264      233.188      106.829        0.210      346.668       25.079      857.743
06/22/2013  19:54:00     -349.424     -115.563       -9.407      208.560      137.562       81.529    43497.472    18923.298     6646.937       10.229        3.453      368.038       79.503        0.047      346.601       24.962      857.750
06/22/2013  19:55:00     -502.584     -183.101      -40.283      251.210      129.754       97.245    63106.591    16836.107     9456.616       18.855        4.470      534.898       97.180        0.033      346.576       24.919      857.730
06/22/2013  19:56:00     -322.435      -65.592       -3.359      193.271      111.392       70.171    37353.775    12408.276     4923.991        8.147        2.734      329.039       85.465        0.067      346.568       24.905      857.743
06/22/2013  19:57:00     -302.658     -173.826      -13.958      179.436      138.946       82.455    32197.386    19305.994     6798.876        9.015        2.915      349.023       74.868        0.046      346.544       24.863      857.750
06/22/2013  19:58:00     -172.383      -64.753       11.046      149.380       94.390       61.505    22314.484     8909.561     3782.840        3.451        1.750      184.143       64.900        0.124      346.538       24.857      857.750
06/22/2013  19:59:00     -367.319      -97.769      -21.448      229.936      133.930       72.541    52870.626    17937.339     5262.224       11.049        3.804      380.108       83.211        0.048      346.506       24.801      857.770
06/22/2013  20:00:00     -314.401      -93.016      -21.466      151.915      101.203       68.419    23078.166    10242.084     4681.101        7.297        1.900      327.872       47.188        0.021      346.496       24.784      857.757
06/22/2013  20:01:00     -349.880      -47.071      -13.503      242.989      131.675       71.281    59043.539    17338.409     5081.009       10.312        4.073      353.032       96.516        0.075      346.458       24.717      857.737
06/22/2013  20:02:00     -329.794     -143.208       -6.521      225.785      181.764       86.352    50978.683    33038.087     7456.585       11.038        4.574      359.545      108.076        0.090      346.431       24.671      857.740
06/22/2013  20:03:00     -212.563      -70.369        4.883      143.467      105.669       65.009    20582.909    11166.022     4226.163        4.306        1.799      223.908       62.939        0.079      346.427       24.664      857.754
06/22/2013  20:04:00     -468.330      -64.299      -17.558      240.100      155.148       82.763    57647.861    24071.021     6849.668       15.615        4.428      472.723      111.347        0.055      346.404       24.625      857.764
06/22/2013  20:05:00     -444.200     -104.734      -11.966      189.946      180.583       67.527    36079.360    32610.169     4559.957       14.082        3.662      456.380       76.526        0.028      346.391       24.601      857.760
06/22/2013  20:06:00     -384.843      -53.791       -3.301      175.455      174.025       82.586    30784.579    30284.839     6820.399       10.944        3.394      388.584       94.562        0.059      346.377       24.578      857.765
06/22/2013  20:07:00     -263.567       15.799        1.905      174.626      121.782       61.705    30494.131    14830.805     3807.450        5.942        2.457      264.040       68.411        0.067      346.365       24.557      857.768
06/22/2013  20:08:00     -315.916      -72.473      -14.640      130.882      110.096       62.147    17130.018    12121.207     3862.230        6.919        1.656      324.122       59.255        0.033      346.353       24.536      857.788
06/22/2013  20:09:00     -343.657      -83.029       -7.519      131.351      110.370       57.072    17253.212    12181.620     3257.236        7.887        1.635      353.545       59.764        0.029      346.318       24.477      857.790
06/22/2013  20:10:00     -275.543      -46.950      -14.187      145.723      109.858       61.215    21235.158    12068.732     3747.281        5.768        1.853      279.514       69.543        0.062      346.313       24.467      857.796
06/22/2013  20:11:00     -300.998     -105.919      -22.950      150.027      132.870       65.643    22508.006    17654.448     4309.051        7.340        2.224      319.090       73.741        0.053      346.289       24.426      857.786
06/22/2013  20:12:00     -293.890      -78.602      -17.050       91.233      120.521       49.471     8323.542    14525.430     2447.381        5.906        1.265      304.220       44.062        0.021      346.278       24.406      857.805
06/22/2013  20:13:00     -222.625      -43.436      -14.945       88.518       95.846       42.892     7835.431     9186.485     1839.687        3.526        0.943      226.822       29.525        0.017      346.241       24.343      857.814
06/22/2013  20:14:00     -214.966      -88.865       -3.899      137.510       94.376       59.596    18909.093     8906.791     3551.708        4.274        1.568      232.610       56.211        0.058      346.251       24.361      857.815
06/22/2013  20:15:00     -233.158      -47.500      -14.339      154.570       77.635       70.079    23891.973     6027.229     4911.117        4.582        1.742      237.948       83.459        0.123      346.221       24.308      857.831
06/22/2013  20:16:00     -234.006      -94.655        5.122      145.718      123.854       64.467    21233.704    15339.691     4156.052        5.223        2.036      252.425       67.947        0.072      346.177       24.233      857.832
06/22/2013  20:17:00     -311.608      -95.300      -13.141      105.540       96.441       53.921    11138.777     9300.892     2907.426        6.485        1.167      325.856       54.005        0.027      346.191       24.257      857.853
06/22/2013  20:18:00     -201.960      -21.814       -7.498       94.584       71.021       45.682     8946.048     5043.912     2086.884        2.870        0.804      203.135       38.679        0.036      346.160       24.203      857.869
06/22/2013  20:19:00     -160.291      -38.842        7.733       93.882       93.522       44.991     8813.838     8746.320     2024.147        2.342        0.979      164.930       50.038        0.092      346.115       24.128      857.863
06/22/2013  20:20:00     -197.988        2.323       -4.817      165.425       85.195       60.803    27365.271     7258.179     3696.952        3.877        1.916      198.001       69.183        0.122      346.132       24.157      857.867
06/22/2013  20:21:00     -232.211      -21.858       -6.396      138.138      104.924       59.027    19082.194    11008.992     3484.193        4.400        1.679      233.237       67.562        0.084      346.101       24.104      857.864
06/22/2013  20:22:00     -204.824     -104.704        9.302      105.493      110.546       55.878    11128.671    12220.526     3122.323        3.973        1.324      230.035       45.373        0.039      346.075       24.058      857.868
06/22/2013  20:23:00     -219.370     -105.853        0.382      110.305       84.532       54.920    12167.248     7145.575     3016.214        4.082        1.116      243.573       56.488        0.054      346.050       24.014      857.871
06/22/2013  20:24:00     -298.904      -87.098      -17.731      115.593       78.847       46.110    13361.694     6216.843     2126.136        5.947        1.085      311.336       58.759        0.036      346.056       24.023      857.871
06/22/2013  20:25:00     -223.621       17.291       -0.958       98.577       82.900       46.022     9717.329     6872.469     2118.042        3.450        0.935      224.289       43.964        0.038      346.009       23.945      857.860
06/22/2013  20:26:00     -238.293      -17.002      -10.608      102.584       84.206       53.111    10523.482     7090.662     2820.733        3.881        1.022      238.898       55.720        0.054      345.984       23.903      857.850
06/22/2013  20:27:00     -421.879     -104.244      -21.692      114.087      123.586       64.994    13015.852    15273.556     4224.167       11.091        1.626      434.567       55.256        0.016      345.974       23.886      857.846
06/22/2013  20:28:00     -289.593      -35.870       -5.798      125.307      105.903       58.741    15701.912    11215.493     3450.526        5.777        1.518      291.806       56.018        0.037      345.973       23.885      857.856
06/22/2013  20:29:00     -235.203      -93.757      -15.454      116.000      113.084       49.751    13456.011    12787.918     2475.159        4.653        1.436      253.201       47.442        0.035      345.940       23.828      857.849
06/22/2013  20:30:00     -205.346      -74.934        9.223      195.644      134.709       69.895    38276.740    18146.544     4885.302        5.458        3.065      218.591       69.756        0.102      345.910       23.774      857.840
06/22/2013  20:31:00     -364.063      -92.338       -0.196      130.809      121.806       65.598    17110.920    14836.751     4303.121        8.865        1.813      375.591       60.135        0.026      345.921       23.792      857.846
06/22/2013  20:32:00     -363.608     -125.306      -26.824      129.080      121.938       64.438    16661.571    14868.977     4152.281        9.215        1.784      384.594       54.295        0.020      345.918       23.789      857.847
06/22/2013  20:33:00     -210.798      -56.378        4.351      112.663      105.586       54.076    12692.986    11148.345     2924.224        3.719        1.338      218.207       48.393        0.049      345.873       23.713      857.831
06/22/2013  20:34:00     -226.002      -65.746        8.507      139.357       92.489       58.913    19420.259     8554.296     3470.699        4.345        1.572      235.371       63.777        0.073      345.848       23.671      857.842
06/22/2013  20:35:00     -265.374       25.229      -12.016      126.347      104.951       60.007    15963.628    11014.773     3600.853        5.089        1.529      266.571       52.875        0.039      345.859       23.687      857.834
06/22/2013  20:36:00     -324.490      -53.937      -18.707      150.376      108.148       63.418    22613.062    11695.977     4021.780        7.343        1.917      328.942       74.396        0.051      345.834       23.645      857.844
06/22/2013  20:37:00     -280.880     -101.912      -13.228      130.704      136.365       75.549    17083.663    18595.315     5707.598        6.541        2.069      298.797       67.948        0.052      345.837       23.650      857.827
06/22/2013  20:38:00     -165.885      -65.181       -8.684      102.411       99.763       64.330    10488.055     9952.657     4138.296        2.821        1.229      178.232       57.658        0.105      345.833       23.644      857.812
06/22/2013  20:39:00     -315.969      -73.445       -9.073      140.788       75.728       52.766    19821.327     5734.755     2784.255        6.682        1.417      324.393       53.331        0.027      345.805       23.596      857.826
06/22/2013  20:40:00     -204.277      -56.079       16.383      150.701      131.709       70.625    22710.705    17347.323     4987.832        4.509        2.252      211.835       82.985        0.153      345.754       23.508      857.820
06/22/2013  20:41:00     -387.012     -125.696      -14.203      170.553      133.878       69.391    29088.368    17923.297     4815.159       10.879        2.591      406.912       66.455        0.027      345.790       23.569      857.825
06/22/2013  20:42:00     -305.875      -68.693      -31.097      125.076      115.071       60.169    15644.005    13241.333     3620.331        6.587        1.625      313.494       39.372        0.016      345.758       23.514      857.839
06/22/2013  20:43:00     -340.149     -101.184      -18.100      159.443      145.140       68.048    25422.220    21065.528     4630.523        8.868        2.556      354.879       57.730        0.026      345.763       23.524      857.850
06/22/2013  20:44:00     -380.045      -82.099        1.655      174.127      119.070       72.921    30320.225    14177.732     5317.413       10.049        2.491      388.812       82.273        0.045      345.753       23.507      857.861
06/22/2013  20:45:00     -348.670      -63.139      -19.703      135.239      129.448       69.017    18289.652    16756.741     4763.354        8.287        1.990      354.341       67.516        0.036      345.736       23.477      857.874
06/22/2013  20:46:00     -353.771        4.958      -16.612      142.152      125.786       57.411    20207.086    15822.145     3296.056        8.238        1.966      353.806       58.193        0.027      345.729       23.467      857.854
06/22/2013  20:47:00     -297.543      -44.268       -9.726      165.982      125.331       64.086    27550.175    15707.871     4106.983        6.897        2.368      300.818       83.840        0.078      345.724       23.457      857.857
06/22/2013  20:48:00     -369.596     -114.729      -17.513      188.283      140.187       82.656    35450.502    19652.427     6831.950       10.599        3.097      386.994       96.364        0.062      345.701       23.419      857.855
06/22/2013  20:49:00     -380.745     -109.764      -13.415      173.003      135.022       69.059    29930.072    18230.923     4769.185       10.505        2.647      396.251       70.409        0.032      345.683       23.386      857.869
06/22/2013  20:50:00     -255.710       -6.150       -9.980      119.841       99.125       53.838    14361.884     9825.759     2898.482        4.630        1.354      255.783       52.479        0.042      345.674       23.368      857.885
06/22/2013  20:51:00     -236.799      -53.715       -4.560      136.766       81.807       56.659    18704.813     6692.354     3210.217        4.379        1.430      242.815       65.519        0.073      345.627       23.288      857.904
06/22/2013  20:52:00     -343.015      -52.978      -31.392      168.065      121.349       69.756    28245.753    14725.684     4865.888        8.464        2.392      347.082       74.209        0.046      345.642       23.313      857.919
06/22/2013  20:53:00     -364.535      -36.862      -18.056      148.539      135.268       78.989    22063.708    18297.511     6239.235        9.058        2.330      366.394       76.932        0.044      345.624       23.282      857.919
06/22/2013  20:54:00     -319.752      -29.117      -14.468      187.194      128.939       69.759    35041.583    16625.204     4866.275        7.990        2.827      321.075       82.020        0.065      345.594       23.232      857.945
06/22/2013  20:55:00     -383.649     -162.354      -19.550      131.397      119.506       68.148    17265.137    14281.671     4644.177       10.505        1.810      416.588       58.524        0.020      345.609       23.258      857.953
06/22/2013  20:56:00     -393.525      -37.205      -29.673      116.702      119.134       49.266    13619.302    14192.811     2427.141        9.368        1.512      395.280       42.938        0.012      345.597       23.235      857.991
06/22/2013  20:57:00     -299.669      -29.182      -31.501      121.286      131.787       54.970    14710.217    17367.911     3021.652        6.337        1.755      301.087       42.717        0.020      345.588       23.222      858.013
06/22/2013  20:58:00     -340.883      -10.494      -22.195      115.122      105.663       50.320    13253.009    11164.626     2532.088        7.187        1.347      341.045       53.274        0.024      345.569       23.188      858.023
06/22/2013  20:59:00     -167.146      -53.430       17.528      146.290      103.959       56.837    21400.860    10807.568     3230.485        3.326        1.772      175.478       78.145        0.198      345.486       23.049      858.033
06/22/2013  21:00:00     -322.924      -47.382      -13.361       95.895       92.179       55.586     9195.759     8497.057     3089.781        6.374        1.039      326.382       48.225        0.022      345.523       23.111      858.045
06/22/2013  21:01:00     -619.293      -18.857      -33.736      171.723      171.302       76.254    29488.889    29344.311     5814.664       22.482        3.232      619.580       85.637        0.019      345.527       23.117      858.033
06/22/2013  21:02:00     -249.976     -111.201       -2.255      134.909      123.509       67.648    18200.538    15254.529     4576.185        5.644        1.902      273.594       72.050        0.069      345.518       23.103      858.070
06/22/2013  21:03:00     -254.159      -75.992       -0.629      155.507       92.524       70.585    24182.545     8560.772     4982.193        5.404        1.886      265.276       82.674        0.097      345.479       23.034      858.074
06/22/2013  21:04:00     -227.379      -68.860       -7.976      119.736      126.105       51.738    14336.609    15902.425     2676.808        4.470        1.646      237.577       51.738        0.047      345.457       22.998      858.080
06/22/2013  21:05:00     -342.368      -70.932      -18.148      183.942      114.228       80.442    33834.732    13048.034     6470.935        8.795        2.668      349.639       90.457        0.067      345.454       22.992      858.094
06/22/2013  21:06:00     -310.899      -66.876       -8.457      184.033      119.677       75.788    33868.326    14322.503     5743.819        7.756        2.697      318.011       79.428        0.062      345.455       22.994      858.100
06/22/2013  21:07:00     -260.887     -100.786       -1.875      167.139      145.471       75.804    27935.448    21161.899     5746.268        6.652        2.742      279.678       95.044        0.115      345.448       22.981      858.101
06/22/2013  21:08:00     -262.087     -114.386       -6.141      176.411      126.323       66.238    31120.760    15957.590     4387.527        6.663        2.573      285.961       70.696        0.061      345.437       22.964      858.124
06/22/2013  21:09:00     -415.289      -57.204       -9.902      164.143      145.570       75.827    26943.017    21190.481     5749.765       11.485        2.694      419.210       83.055        0.039      345.423       22.939      858.128
06/22/2013  21:10:00     -306.244      -96.639        3.939      200.357      175.402       73.712    40143.068    30765.864     5433.431        8.973        3.817      321.130       88.534        0.076      345.467       23.014      858.125
06/22/2013  21:11:00     -458.212     -186.482      -27.854      172.524      144.144       79.001    29764.601    20777.630     6241.147       15.114        2.839      494.706       72.913        0.022      345.476       23.029      858.116
06/22/2013  21:12:00     -202.853      -50.430       -2.131      100.795       94.154       64.243    10159.609     8864.922     4127.187        3.342        1.158      209.028       62.270        0.089      345.419       22.931      858.147
06/22/2013  21:13:00     -467.636      -84.249      -12.172      165.739      161.522       82.482    27469.379    26089.439     6803.286       14.313        3.018      475.165       83.648        0.031      345.400       22.901      858.135
06/22/2013  21:14:00     -405.173       17.519      -19.205      169.901      149.068       71.406    28866.401    22221.139     5098.750       11.050        2.809      405.552       77.694        0.037      345.387       22.876      858.144
06/22/2013  21:15:00     -314.799      -48.782      -13.878      105.375      101.937       64.272    11103.883    10391.107     4130.937        6.364        1.281      318.556       55.938        0.031      345.360       22.832      858.142
06/22/2013  21:16:00     -342.864     -126.889       -1.251      174.123      132.871       78.592    30318.818    17654.786     6176.718        9.389        2.708      365.591       83.855        0.053      345.307       22.739      858.148
06/22/2013  21:17:00     -275.827      -31.607      -13.644      133.019      108.953       54.653    17694.085    11870.684     2986.942        5.490        1.628      277.632       54.452        0.038      345.291       22.712      858.163
06/22/2013  21:18:00     -305.160      -54.772       -6.253      135.378       87.460       67.279    18327.234     7649.203     4526.512        6.333        1.525      310.036       72.984        0.055      345.276       22.685      858.175
06/22/2013  21:19:00     -255.106      -69.366        2.163      121.076      111.770       68.230    14659.339    12492.536     4655.268        5.085        1.590      264.369       66.686        0.064      345.248       22.641      858.192
06/22/2013  21:20:00     -325.862      -95.268        5.495      191.235      163.437       79.238    36570.704    26711.652     6278.670        9.241        3.478      339.503       87.554        0.067      345.296       22.721      858.214
06/22/2013  21:21:00     -369.902     -136.540       -0.997      205.939      142.433       86.330    42411.006    20287.138     7452.928       11.280        3.508      394.298       89.520        0.052      345.316       22.756      858.224
06/22/2013  21:22:00     -352.686     -107.943      -16.249      214.804      123.413       80.579    46140.911    15230.767     6493.036       10.207        3.393      368.835       83.041        0.051      345.323       22.767      858.233
06/22/2013  21:23:00     -210.362      -37.380        1.821      140.356      125.237       54.593    19699.701    15684.296     2980.432        4.200        1.918      213.657       40.978        0.037      345.297       22.724      858.245
06/22/2013  21:24:00     -424.912      -26.466      -37.566      111.631      142.778       67.532    12461.410    20385.588     4560.567       11.003        1.870      425.735       53.956        0.016      345.268       22.673      858.290
06/22/2013  21:25:00     -321.955     -108.936      -28.142      202.761      149.863       71.394    41111.837    22458.780     5097.147        9.248        3.433      339.885       85.246        0.063      345.276       22.687      858.273
06/22/2013  21:26:00     -526.275     -136.158      -31.976      233.947      176.973       78.739    54731.057    31319.302     6199.884       19.437        4.613      543.603       78.271        0.021      345.234       22.615      858.267
06/22/2013  21:27:00     -377.902      -54.387      -20.210      162.786      121.314       76.958    26499.148    14716.971     5922.524        9.665        2.357      381.795       86.816        0.052      345.194       22.546      858.309
06/22/2013  21:28:00     -335.735     -188.291      -33.474      160.805      107.846       69.725    25858.158    11630.678     4861.529        9.581        2.118      384.931       64.934        0.028      345.171       22.508      858.323
06/22/2013  21:29:00     -329.055     -101.284       -5.457      139.608      104.647       60.910    19490.425    10951.002     3709.970        7.635        1.708      344.290       65.887        0.037      345.159       22.487      858.339
06/22/2013  21:30:00     -240.873      -44.366       -5.766      133.855      108.709       63.354    17917.090    11817.638     4013.715        4.688        1.687      244.925       62.917        0.066      345.136       22.448      858.323
06/22/2013  21:31:00     -425.717       -4.125      -20.126      182.112      138.981       74.571    33164.714    19315.834     5560.829       11.984        2.902      425.737       77.402        0.033      345.152       22.473      858.313
06/22/2013  21:32:00     -332.487       45.760      -16.684      167.491      116.398       65.991    28053.149    13548.506     4354.840        7.943        2.298      335.621       62.419        0.035      345.119       22.418      858.311
06/22/2013  21:33:00     -185.557      -35.286        8.888       99.977      119.169       50.041     9995.392    14201.298     2504.108        3.122        1.335      188.882       42.022        0.049      345.080       22.353      858.350
06/22/2013  21:34:00     -350.111      -47.744        2.290      153.348      125.828       77.111    23515.623    15832.782     5946.161        8.507        2.265      353.351       75.902        0.046      345.110       22.404      858.376
06/22/2013  21:35:00     -314.865      -36.777      -10.394      199.049      132.766       76.176    39620.568    17626.723     5802.813        8.181        3.153      317.006       91.517        0.083      345.114       22.410      858.395
06/22/2013  21:36:00     -277.551      -78.355      -13.355      146.301      104.036       65.834    21403.904    10823.587     4334.101        5.995        1.828      288.399       73.422        0.065      345.085       22.360      858.412
06/22/2013  21:37:00     -415.544     -158.538      -15.748      142.282      136.622       63.252    20244.264    18665.622     4000.753       12.048        2.146      444.760       67.687        0.023      345.102       22.389      858.398
06/22/2013  21:38:00     -212.135      -70.833       -3.814      122.661       88.628       56.509    15045.704     7854.912     3193.236        3.806        1.305      223.648       56.240        0.063      345.084       22.361      858.413
06/22/2013  21:39:00     -280.912      -28.156      -13.515      115.395       85.509       44.575    13316.068     7311.716     1986.957        5.125        1.131      282.320       23.706        0.007      345.074       22.341      858.406
06/22/2013  21:40:00     -206.258      -75.130       -7.040       84.439       69.886       38.029     7129.956     4884.003     1446.185        3.085        0.673      219.515       27.534        0.016      345.045       22.292      858.395
06/22/2013  21:41:00     -320.149      -58.740      -17.861      115.117      136.669       45.986    13251.958    18678.496     2114.667        7.015        1.702      325.493       42.864        0.017      345.003       22.220      858.403
06/22/2013  21:42:00     -345.733      -87.752      -10.914      183.418      177.056       86.409    33642.310    31348.941     7466.552        9.989        3.623      356.696       77.681        0.047      345.002       22.218      858.379
06/22/2013  21:43:00     -283.937      -48.176       -1.531      188.850      137.707       77.239    35664.461    18963.264     5965.790        7.176        3.030      287.995       83.460        0.084      344.945       22.121      858.406
06/22/2013  21:44:00     -270.448      -58.594        4.257      209.106       89.851       70.795    43725.209     8073.278     5011.958        6.669        2.841      276.722       95.715        0.120      344.921       22.079      858.429
06/22/2013  21:45:00     -432.005      -34.670       -8.466      200.907      141.418       92.048    40363.480    19999.039     8472.824       12.836        3.442      433.394       98.958        0.052      344.929       22.093      858.455
06/22/2013  21:46:00     -354.853      -65.045      -21.867      119.586      135.048       66.608    14300.701    18238.097     4436.626        8.380        1.849      360.765       57.287        0.025      344.933       22.100      858.487
06/22/2013  21:47:00     -440.469      -13.684      -35.923      179.055      146.681       56.457    32060.722    21515.372     3187.438       12.612        2.838      440.682       59.938        0.018      344.977       22.177      858.488
06/22/2013  21:48:00     -356.298     -139.132       -4.205      163.893      151.997       78.814    26860.950    23103.199     6211.644       10.124        2.809      382.499       84.543        0.049      344.951       22.131      858.452
06/22/2013  21:49:00     -429.297      -70.730      -17.076      222.821      147.525       70.791    49649.167    21763.624     5011.313       13.299        3.821      435.084       80.914        0.035      344.937       22.108      858.469
06/22/2013  21:50:00     -324.514      -99.773      -14.295      159.030      130.072       61.387    25290.411    16918.832     3768.326        8.071        2.299      339.506       66.456        0.038      344.929       22.095      858.468
06/22/2013  21:51:00     -237.704      -29.100        1.828      144.428      124.389       64.149    20859.471    15472.560     4115.086        4.889        2.022      239.479       70.704        0.087      344.884       22.018      858.506
06/22/2013  21:52:00     -362.263      -49.575      -22.047      102.874       89.619       46.563    10582.969     8031.491     2168.079        7.748        1.039      365.640       36.232        0.010      344.923       22.082      858.489
06/22/2013  21:53:00     -355.193      -91.123       -3.342      170.771      140.764       75.043    29162.645    19814.494     5631.466        9.453        2.730      366.695       80.265        0.048      344.865       21.984      858.500
06/22/2013  21:54:00     -353.349     -100.429      -19.149      168.322      127.195       62.757    28332.262    16178.694     3938.420        9.187        2.422      367.344       70.953        0.037      344.860       21.977      858.513
06/22/2013  21:55:00     -350.778      -81.259      -13.793      169.335      115.527       76.078    28674.291    13346.562     5787.922        8.881        2.390      360.067       88.064        0.060      344.836       21.933      858.500
06/22/2013  21:56:00     -402.360      -31.005      -32.195      160.380       96.649       68.471    25721.701     9340.942     4688.304       10.181        1.988      403.553       79.974        0.039      344.847       21.952      858.496
06/22/2013  21:57:00     -212.041      -73.574       16.150      179.450      163.647       91.343    32202.146    26780.196     8343.490        5.897        3.366      224.443       97.505        0.189      344.839       21.940      858.475
06/22/2013  21:58:00     -280.360      -46.183      -15.344      183.160      122.849       76.472    33547.579    15091.772     5847.892        6.772        2.724      284.139       81.610        0.082      344.838       21.938      858.502
06/22/2013  21:59:00     -407.135      -44.681      -23.797      161.439      130.671       78.149    26062.644    17075.017     6107.231       10.877        2.462      409.580       76.708        0.035      344.843       21.946      858.525
06/22/2013  22:00:00     -411.623      -37.322      -23.694      157.634      159.775       80.996    24848.524    25528.036     6560.406       11.415        2.847      413.312       74.765        0.033      344.856       21.969      858.512
06/22/2013  22:01:00     -487.709      -70.935      -26.582      199.701      180.934       82.025    39880.577    32737.233     6728.100       16.146        3.967      492.841       96.327        0.038      344.836       21.934      858.529
06/22/2013  22:02:00     -503.405     -139.359      -26.119      196.140      158.081       83.675    38470.891    24989.463     7001.455       17.198        3.523      522.339       91.740        0.031      344.822       21.908      858.530
06/22/2013  22:03:00     -287.005      -13.007       -0.540      177.712      104.071       76.359    31581.496    10830.798     5830.740        6.538        2.412      287.299       94.046        0.107      344.776       21.831      858.530
06/22/2013  22:04:00     -471.749      -78.139      -30.498      251.233      148.854       80.883    63117.894    22157.474     6542.041       16.068        4.591      478.176      103.118        0.047      344.778       21.834      858.546
06/22/2013  22:05:00     -370.861      -68.709      -20.724      163.695      107.488       75.117    26795.937    11553.710     5642.612        9.333        2.200      377.172       84.642        0.050      344.782       21.841      858.543
06/22/2013  22:06:00     -348.326     -131.744        1.313      143.767      134.425       67.238    20668.950    18069.950     4520.887        9.097        2.163      372.407       68.631        0.034      344.762       21.806      858.552
06/22/2013  22:07:00     -295.165      -85.604      -10.513      131.417      133.601       65.853    17270.545    17849.337     4336.617        6.700        1.973      307.328       64.693        0.044      344.738       21.766      858.543
06/22/2013  22:08:00     -415.180      -69.505      -15.787      197.221      151.800       87.162    38896.131    23043.274     7597.236       12.348        3.477      420.957       91.582        0.047      344.743       21.774      858.541
06/22/2013  22:09:00     -395.329      -57.076      -15.483      220.547      143.825       90.757    48640.823    20685.712     8236.879       11.866        3.878      399.428      107.733        0.073      344.762       21.807      858.557
06/22/2013  22:10:00     -340.260     -134.138      -15.109      165.982      116.307       70.088    27550.181    13527.414     4912.393        8.999        2.299      365.746       73.039        0.040      344.792       21.860      858.584
06/22/2013  22:11:00     -226.607      -49.756      -15.762       82.123       76.276       52.598     6744.166     5818.075     2766.554        3.470        0.766      232.006       43.345        0.035      344.755       21.795      858.600
06/22/2013  22:12:00     -205.705      -16.786        2.250      132.488       76.096       61.348    17552.982     5790.544     3763.626        3.485        1.355      206.388       67.412        0.107      344.703       21.709      858.602
06/22/2013  22:13:00     -409.042      -62.916       -8.366      155.665      109.366       76.785    24231.512    11961.001     5896.012       10.671        2.104      413.853       81.069        0.038      344.691       21.686      858.606
06/22/2013  22:14:00     -326.544       -2.654      -28.374      125.269      105.862       57.104    15692.213    11206.799     3260.884        6.880        1.508      326.555       57.678        0.031      344.685       21.675      858.583
06/22/2013  22:15:00     -351.415      -53.750      -20.675      142.257      154.183       69.268    20236.920    23772.312     4798.076        8.780        2.440      355.502       76.611        0.046      344.675       21.658      858.560
06/22/2013  22:16:00     -224.854      -32.595        3.828      184.123      131.908       75.976    33901.327    17399.703     5772.292        5.434        2.854      227.204       91.844        0.163      344.640       21.600      858.566
06/22/2013  22:17:00     -349.396     -112.458       -9.952      134.289      123.477       57.495    18033.550    15246.525     3305.622        8.570        1.829      367.048       59.467        0.026      344.693       21.687      858.555
06/22/2013  22:18:00     -309.160      -47.893        6.080      184.214      111.948       88.879    33934.662    12532.413     7899.503        7.613        2.718      312.848      109.437        0.122      344.665       21.642      858.573
06/22/2013  22:19:00     -316.012      -40.875        5.119      167.339      140.805       81.349    28002.201    19826.174     6617.714        7.799        2.722      318.645       95.710        0.090      344.692       21.687      858.559
06/22/2013  22:20:00     -344.413      -75.690      -15.448      152.503      144.270       73.043    23257.044    20813.798     5335.264        8.699        2.470      352.632       64.482        0.033      344.687       21.678      858.564
06/22/2013  22:21:00     -366.047     -115.732      -12.404      195.755      132.421       81.094    38319.986    17535.251     6576.180       10.497        3.122      383.907       88.174        0.053      344.669       21.648      858.553
06/22/2013  22:22:00     -233.446     -105.857        9.413      176.405      148.474       71.982    31118.852    22044.422     5181.472        6.206        2.917      256.325       87.107        0.115      344.636       21.593      858.557
06/22/2013  22:23:00     -239.481      -43.481       25.931      219.675      165.856      101.875    48257.149    27508.059    10378.600        7.301        4.307      243.397      126.148        0.269      344.629       21.580      858.556
06/22/2013  22:24:00     -430.633      -77.403      -22.378      185.555      121.385       78.798    34430.714    14734.242     6209.183       12.364        2.769      437.534       86.835        0.039      344.663       21.638      858.598
06/22/2013  22:25:00     -204.939     -132.902      -13.454      124.902      102.498       67.791    15600.385    10505.803     4595.672        4.527        1.535      244.260       58.012        0.056      344.655       21.625      858.580
06/22/2013  22:26:00     -254.772      -93.948      -11.852      139.507      107.387       61.530    19462.326    11531.936     3785.946        5.432        1.739      271.542       62.009        0.052      344.646       21.610      858.587
06/22/2013  22:27:00     -188.607      -60.405       11.720      163.852      127.209       69.358    26847.418    16182.136     4810.506        4.359        2.392      198.044       83.999        0.180      344.627       21.575      858.594
06/22/2013  22:28:00     -326.320      -51.750      -11.897      166.118      128.658       68.307    27595.087    16552.821     4665.781        7.905        2.441      330.398       72.138        0.048      344.589       21.512      858.602
06/22/2013  22:29:00     -374.906     -139.067      -36.255      115.033      151.430       69.285    13232.693    22931.059     4800.389       10.108        2.048      399.868       52.191        0.017      344.621       21.566      858.617
06/22/2013  22:30:00     -304.187      -46.317       -7.623      198.460      163.009       78.049    39386.517    26572.016     6091.590        8.338        3.603      307.693       82.145        0.071      344.612       21.551      858.600
06/22/2013  22:31:00     -283.885     -114.115      -17.460      162.203      107.621       71.007    26309.960    11582.364     5041.947        6.842        2.147      305.962       72.424        0.056      344.608       21.546      858.596
06/22/2013  22:32:00     -291.312      -46.975        3.764      166.184      115.178       64.242    27617.093    13265.937     4127.059        6.604        2.251      295.075       71.886        0.059      344.578       21.493      858.596
06/22/2013  22:33:00     -343.623     -114.140        4.804      221.390      136.015       87.659    49013.627    18500.036     7684.078       10.315        3.760      362.084       96.754        0.071      344.578       21.493      858.590
06/22/2013  22:34:00     -263.598      -96.690       -6.511      146.875      127.582       66.912    21572.288    16277.131     4477.261        6.059        2.116      280.772       64.278        0.052      344.587       21.509      858.585
06/22/2013  22:35:00     -307.088      -78.460       -4.068      129.049      130.505       67.296    16653.593    17031.527     4528.717        6.934        1.911      316.953       59.436        0.035      344.573       21.482      858.582
06/22/2013  22:36:00     -286.183      -66.104        2.023      140.910       94.041       61.717    19855.603     8843.770     3809.022        5.939        1.625      293.719       66.133        0.051      344.527       21.406      858.577
06/22/2013  22:37:00     -299.516     -129.205       -3.622      120.156       92.464       58.266    14437.582     8549.524     3394.904        6.639        1.319      326.196       63.694        0.038      344.508       21.373      858.555
06/22/2013  22:38:00     -407.143      -44.404      -10.474      240.885      129.029       91.187    58025.802    16648.563     8315.032       12.540        4.149      409.557      116.555        0.081      344.522       21.397      858.558
06/22/2013  22:39:00     -370.154     -115.001      -15.595      144.354      137.039       73.239    20838.184    18779.596     5363.884        9.772        2.249      387.607       79.443        0.042      344.494       21.348      858.549
06/22/2013  22:40:00     -241.730      -40.530        9.380      151.419      114.057       72.604    22927.838    13009.054     5271.306        5.068        2.060      245.104       74.797        0.093      344.493       21.349      858.551
06/22/2013  22:41:00     -256.344      -27.126       -2.149      177.402      109.408       61.922    31471.632    11970.181     3834.376        5.686        2.364      257.775       74.138        0.083      344.465       21.301      858.568
06/22/2013  22:42:00     -100.566      -25.572       10.102       88.544       85.284       51.242     7840.025     7273.401     2625.713        1.430        0.887      103.766       47.207        0.207      344.465       21.303      858.510
06/22/2013  22:43:00     -317.323      -89.043      -29.608      172.860      125.345       75.011    29880.438    15711.326     5626.611        8.035        2.561      329.579       86.289        0.069      344.468       21.304      858.498
06/22/2013  22:44:00     -393.680      -85.904      -19.778      180.510      147.502       75.175    32583.728    21756.846     5651.260       11.136        3.000      402.944       91.427        0.051      344.479       21.322      858.521
06/22/2013  22:45:00     -439.857      -99.428      -31.675      149.562      182.809       70.988    22368.921    33419.134     5039.226       13.258        3.041      450.955       58.880        0.017      344.556       21.455      858.532
06/22/2013  22:46:00     -285.911      -87.740       -8.398      147.174      105.304       59.396    21660.127    11089.021     3527.917        6.289        1.814      299.071       66.383        0.049      344.543       21.433      858.508
06/22/2013  22:47:00     -310.920      -60.272       -5.240      146.390      134.893       69.971    21429.922    18196.085     4895.893        7.242        2.226      316.708       65.667        0.043      344.494       21.350      858.494
06/22/2013  22:48:00     -297.901      -75.322      -19.045      130.398      142.342       65.470    17003.704    20261.371     4286.278        6.816        2.078      307.276       64.567        0.044      344.491       21.344      858.487
06/22/2013  22:49:00     -178.626     -133.170        0.760      144.562      106.035       60.952    20898.297    11243.402     3715.160        4.274        1.793      222.804       67.535        0.092      344.470       21.311      858.487
06/22/2013  22:50:00     -263.009      -42.136       -9.267      160.273      129.202       60.973    25687.523    16693.105     3717.719        5.856        2.305      266.363       70.058        0.069      344.474       21.316      858.488
06/22/2013  22:51:00     -389.146      -10.406      -31.038      112.244      121.810       53.204    12598.701    14837.568     2830.619        9.138        1.513      389.285       47.719        0.015      344.453       21.278      858.484
06/22/2013  22:52:00     -358.696     -138.478       -8.905      164.598      120.328       74.323    27092.496    14478.794     5523.962        9.750        2.355      384.498       78.842        0.042      344.484       21.331      858.465
06/22/2013  22:53:00     -324.457     -167.648      -27.890      138.252      132.073       70.884    19113.537    17443.164     5024.514        8.786        2.079      365.210       57.487        0.025      344.464       21.297      858.472
06/22/2013  22:54:00     -289.313     -101.707      -11.398      163.763      103.278       60.118    26818.210    10666.445     3614.150        6.763        2.055      306.669       69.654        0.052      344.443       21.263      858.446
06/22/2013  22:55:00     -308.111      -89.708       -4.845      183.846      109.812       71.667    33799.494    12058.660     5136.190        7.699        2.550      320.905       89.361        0.078      344.415       21.213      858.443
06/22/2013  22:56:00     -475.517      -84.441      -15.768      175.435      128.865       85.403    30777.318    16606.070     7293.632       14.408        2.734      482.956       86.906        0.032      344.480       21.326      858.468
06/22/2013  22:57:00     -319.651     -126.530        1.257      166.364      176.833       86.336    27676.868    31269.811     7453.914        9.228        3.320      343.783       88.717        0.067      344.467       21.302      858.458
06/22/2013  22:58:00     -419.660      -90.962      -23.242      120.126      108.944       72.184    14430.159    11868.893     5210.471       10.821        1.575      429.405       68.775        0.026      344.476       21.318      858.468
06/22/2013  22:59:00     -188.557      -71.286        3.485      126.717       91.855       52.164    16057.216     8437.427     2721.036        3.393        1.361      201.583       54.949        0.074      344.466       21.301      858.459
06/22/2013  23:00:00     -339.977      -56.776      -19.437      132.696      104.147       59.948    17608.103    10846.691     3593.706        7.561        1.602      344.685       61.751        0.032      344.431       21.240      858.445
06/22/2013  23:01:00     -362.301     -102.235        5.487      166.167      140.403       70.645    27611.380    19712.869     4990.706        9.702        2.616      376.449       71.848        0.036      344.418       21.220      858.436
06/22/2013  23:02:00     -370.263     -102.156      -16.598      136.735      151.939       59.087    18696.462    23085.608     3491.290        9.653        2.264      384.097       58.519        0.023      344.438       21.253      858.431
06/22/2013  23:03:00     -329.106      -26.367      -25.552      128.244       98.371       60.500    16446.506     9676.900     3660.302        6.972        1.489      330.160       58.910        0.032      344.441       21.256      858.426
06/22/2013  23:04:00      -81.733      -42.504       23.158      109.964       98.276       58.261    12092.047     9658.199     3394.350        1.708        1.257       92.124       60.139        0.426      344.374       21.145      858.419
06/22/2013  23:05:00     -172.184       -9.221       -5.210      106.658       70.298       55.618    11375.934     4941.781     3093.351        2.458        0.971      172.430       56.530        0.107      344.369       21.137      858.414
06/22/2013  23:06:00     -351.532      -60.374      -29.830      175.281      140.537       68.843    30723.592    19750.679     4739.401        9.165        2.761      356.679       64.781        0.033      344.349       21.101      858.366
06/22/2013  23:07:00     -404.907      -62.781      -14.547      143.918      126.259       73.591    20712.268    15941.272     5415.697       10.508        2.103      409.746       72.277        0.031      344.351       21.105      858.385
06/22/2013  23:08:00     -390.732      -68.222      -35.408      132.338      124.882       71.608    17513.245    15595.435     5127.634        9.840        1.912      396.643       73.480        0.034      344.371       21.138      858.388
06/22/2013  23:09:00     -263.705      -58.791        5.013      165.845      126.676       76.544    27504.514    16046.722     5859.014        6.121        2.471      270.179       90.340        0.112      344.356       21.115      858.392
06/22/2013  23:10:00     -251.946        6.610      -17.298       98.276       94.075       53.035     9658.260     8850.030     2812.748        4.257        1.066      252.033       56.856        0.051      344.410       21.204      858.382
06/22/2013  23:11:00     -260.375      -59.597      -15.059       81.261       63.899       44.077     6603.307     4083.115     1942.762        4.210        0.631      267.108       34.329        0.017      344.374       21.145      858.350
06/22/2013  23:12:00     -221.460      -89.561        4.630      128.947       90.386       54.908    16627.244     8169.610     3014.929        4.244        1.391      238.884       65.656        0.076      344.361       21.123      858.358
06/22/2013  23:13:00      -84.771      -40.437        0.541       66.071       58.250       36.852     4365.395     3393.110     1358.034        0.897        0.456       93.921       30.930        0.108      344.332       21.077      858.354
06/22/2013  23:14:00     -245.269       19.787      -25.308      172.450       75.682       53.537    29738.841     5727.737     2866.214        4.975        1.917      246.066       74.804        0.092      344.323       21.057      858.371
06/22/2013  23:15:00     -240.155       -8.481      -18.930      108.739       99.183       49.395    11824.253     9837.235     2439.887        4.110        1.205      240.305       48.603        0.041      344.330       21.069      858.363
06/22/2013  23:16:00     -292.433      -35.273       -0.516      145.343      120.961       66.319    21124.708    14631.649     4398.236        6.345        2.008      294.553       70.193        0.057      344.370       21.137      858.376
06/22/2013  23:17:00     -308.087      -30.467      -18.880      117.366       96.987       66.751    13774.782     9406.479     4455.665        6.191        1.382      309.589       66.180        0.046      344.421       21.224      858.355
06/22/2013  23:18:00     -167.129      -38.562       10.446      132.659       61.827       45.794    17598.452     3822.604     2097.062        2.652        1.176      171.520       62.777        0.134      344.434       21.249      858.332
06/22/2013  23:19:00      -79.735      -27.192        4.726       69.233       81.310       34.096     4793.174     6611.348     1162.546        0.984        0.628       84.244       33.528        0.158      344.358       21.120      858.356
06/22/2013  23:20:00     -151.291      -40.756       -4.099       51.854       47.215       28.385     2688.822     2229.250      805.693        1.514        0.286      156.684       24.394        0.024      344.364       21.129      858.399
06/22/2013  23:21:00     -143.709      -57.119       -4.271      113.367       75.256       30.086    12852.183     5663.486      905.195        2.167        0.971      154.644       33.715        0.048      344.388       21.168      858.377
06/22/2013  23:22:00      -61.177      -32.689        4.972       66.821       54.117       31.068     4465.030     2928.636      965.206        0.660        0.418       69.363       20.036        0.083      344.357       21.116      858.333
06/22/2013  23:23:00     -170.017      -10.940      -15.524      101.525       53.271       28.769    10307.333     2837.847      827.661        2.162        0.699      170.368       27.776        0.027      344.353       21.110      858.345
06/22/2013  23:24:00     -169.540      -59.509        7.600       96.630       95.632       45.911     9337.317     9145.496     2107.778        2.646        1.030      179.681       41.417        0.053      344.249       20.931      858.365
06/22/2013  23:25:00     -234.952        7.296      -20.049       75.170       69.054       39.235     5650.574     4768.520     1539.413        3.381        0.598      235.065       35.072        0.022      344.377       21.149      858.372
06/22/2013  23:26:00     -213.762       -8.610      -13.754       82.155       79.890       37.355     6749.413     6382.415     1395.433        3.024        0.726      213.935       38.983        0.033      344.386       21.164      858.356
06/22/2013  23:27:00     -173.707       11.754       -9.113       48.434       41.522       28.357     2345.900     1724.051      804.099        1.763        0.244      174.105       28.534        0.027      344.408       21.205      858.341
06/22/2013  23:28:00     -163.447       -1.578      -14.482       66.598       51.598       34.332     4435.301     2662.318     1178.715        1.760        0.414      163.455       29.369        0.032      344.328       21.069      858.329
06/22/2013  23:29:00     -125.869      -26.689       -8.471       55.047       40.142       24.226     3030.142     1611.353      586.878        1.093        0.261      128.667       27.732        0.046      344.290       21.005      858.335
06/22/2013  23:30:00      -92.238      -31.876        0.109       56.989       60.730       28.628     3247.768     3688.151      819.570        0.864        0.388       97.591       31.553        0.105      344.300       21.020      858.342
06/22/2013  23:31:00     -101.757      -26.409       -8.659       80.805       37.553       29.138     6529.413     1410.235      849.017        0.996        0.439      105.128       38.015        0.131      344.294       21.010      858.336
06/22/2013  23:32:00      -29.600       -8.758        4.961       32.766       39.329       21.547     1073.602     1546.770      464.270        0.203        0.154       30.869       18.196        0.347      344.197       20.846      858.337
06/22/2013  23:33:00      -50.835      -14.182       -1.392       31.134       63.990       23.193      969.349     4094.743      537.919        0.419        0.280       52.776       14.718        0.078      344.270       20.969      858.333
06/22/2013  23:34:00      -34.946       21.911       -0.665       39.617       33.848       20.334     1569.475     1145.705      413.489        0.241        0.156       41.247       24.346        0.348      344.264       20.959      858.327
06/22/2013  23:35:00      -85.293      -44.393       -0.445       55.867       45.469       29.338     3121.174     2067.459      860.705        0.765        0.302       96.154       24.467        0.065      344.300       21.023      858.324
06/22/2013  23:36:00      -16.955        9.180        7.045       26.128       17.320       16.769      682.648      299.998      281.207        0.084        0.063       19.281       12.354        0.411      344.188       20.828      858.334
06/22/2013  23:37:00      -82.429      -17.932       -0.877       54.266       34.212       24.532     2944.846     1170.451      601.817        0.592        0.236       84.357       22.675        0.072      344.206       20.860      858.331
06/22/2013  23:38:00      -52.151      -26.069       -0.504       54.728       32.168       32.123     2995.151     1034.780     1031.899        0.423        0.253       58.304       25.591        0.193      344.223       20.889      858.312
06/22/2013  23:39:00      -52.309       -2.147        8.401       50.220       45.788       26.499     2522.040     2096.564      702.171        0.407        0.266       52.353       27.788        0.282      344.162       20.786      858.315
06/22/2013  23:40:00     -106.645      -95.917      -12.069       39.970       59.179       28.709     1597.627     3502.171      824.218        1.332        0.296      143.434       19.344        0.018      344.288       21.000      858.310
06/22/2013  23:41:00      -61.575      -25.402        7.256       44.938       43.879       27.573     2019.384     1925.373      760.248        0.460        0.235       66.608       28.186        0.179      344.156       20.774      858.314
06/22/2013  23:42:00      -60.499       33.058       -5.811       30.820       32.304       18.226      949.867     1043.538      332.196        0.356        0.116       68.942       16.641        0.058      344.060       20.611      858.321
06/22/2013  23:43:00      -91.634       24.206       -7.996       42.058       47.732       25.253     1768.895     2278.308      637.715        0.686        0.234       94.778       18.622        0.039      344.061       20.613      858.317
06/22/2013  23:44:00      -71.348      -22.435        2.622       34.967       29.875       19.962     1222.676      892.525      398.489        0.406        0.126       74.792       17.347        0.054      344.043       20.581      858.312
06/22/2013  23:45:00     -108.830       17.562       -1.692       47.629       31.572       18.633     2268.564      996.816      347.181        0.788        0.181      110.238       17.874        0.026      344.115       20.704      858.312
06/22/2013  23:46:00     -103.537       36.805      -10.334       51.538       61.035       23.890     2656.203     3725.267      570.729        0.957        0.348      109.884       20.844        0.036      344.121       20.716      858.312
06/22/2013  23:47:00      -95.862        5.268        5.894       35.605       40.714       36.133     1267.739     1657.640     1305.589        0.674        0.212       96.007       30.359        0.100      344.088       20.657      858.306
06/22/2013  23:48:00      -28.159       11.235        1.796       36.946       23.517       25.726     1364.973      553.035      661.829        0.175        0.129       30.317       19.678        0.421      344.026       20.553      858.318
06/22/2013  23:49:00      -30.959       10.568      -10.093       17.987       29.770       11.847      323.534      886.264      140.350        0.126        0.068       32.713       11.771        0.129      344.036       20.571      858.325
06/22/2013  23:50:00      -56.873       -4.612       -3.204       30.377       29.228       13.655      922.750      854.255      186.450        0.261        0.098       57.059       11.694        0.042      343.974       20.464      858.342
06/22/2013  23:51:00      -82.547      -32.475       -1.839       35.376       28.894       16.338     1251.461      834.876      266.930        0.511        0.118       88.705       19.835        0.050      343.988       20.489      858.349
06/22/2013  23:52:00     -148.456      -19.161       -8.048       34.512       43.854       28.559     1191.062     1923.212      815.621        1.320        0.196      149.688       17.846        0.014      344.218       20.880      858.332
06/22/2013  23:53:00     -120.219       25.409      -14.217       27.239       33.068       16.834      741.941     1093.494      283.390        0.871        0.106      122.875       11.146        0.008      344.321       21.057      858.311
06/22/2013  23:54:00     -124.794        4.686      -10.191       30.865       25.278       18.504      952.676      639.001      342.389        0.882        0.097      124.882       17.974        0.021      344.206       20.860      858.302
06/22/2013  23:55:00      -98.975      -17.395      -13.179       32.616       26.322       15.124     1063.771      692.836      228.739        0.613        0.099      100.492       13.772        0.019      344.022       20.545      858.307
06/22/2013  23:56:00      -50.877        5.320       -0.572       28.618       14.993        8.436      818.997      224.793       71.166        0.187        0.056       51.154        9.466        0.034      343.900       20.337      858.309
06/22/2013  23:57:00      -10.335      -15.243       -1.265       10.220        7.957        4.809      104.447       63.316       23.125        0.027        0.010       18.416        3.558        0.037      343.990       20.491      858.290
06/22/2013  23:58:00      -44.542      -19.661       -4.641       22.395       12.370        7.396      501.554      153.022       54.701        0.155        0.035       48.688        9.811        0.041      344.196       20.845      858.281
06/22/2013  23:59:00      -46.297       -5.346       -4.821       21.819       22.278       11.139      476.048      496.302      124.072        0.165        0.055       46.605        5.507        0.014      343.904       20.344      858.273
